[[{"header":{"parameterUnit":"m.s-1","parameterCategory":1,"la1":30.6,"la2":28.766,"lo1":-90.7593,"lo2":-88.6598,"dy":0.0162,"dx":0.0183,"nx":116,"ny":114,"refTime":"2023-03-15T12:00:00:Z","depth":0,"parameterNumber":2,"parameterNumberName":"U-component_of_WINDS"},"data":[0.0,0.0,0.0,0.0,0.0,0.0,0.0,0.0,0.0,0.0,0.0,0.0,0.0,0.0,0.0,0.0,0.0,0.0,0.0,0.0,0.0,0.0,0.0,0.0,0.0,0.0,0.0,0.0,0.0,0.0,0.0,0.0,0.0,0.0,0.0,0.0,0.0,0.0,0.0,0.0,0.0,0.0,0.0,0.0,0.0,0.0,0.0,0.0,0.0,0.0,0.0,0.0,0.0,0.0,0.0,0.0,0.0,0.0,0.0,0.0,0.0,0.0,0.0,0.0,0.0,0.0,0.0,0.0,0.0,0.0,0.0,0.0,0.0,0.0,0.0,0.0,0.0,0.0,0.0,0.0,0.0,0.0,0.0,0.0,0.0,0.0,0.0,0.0,0.0,0.0,0.0,0.0,0.0,0.0,0.0,0.0,0.0,0.0,0.0,0.0,0.0,0.0,0.0,0.0,0.0,0.0,0.0,0.0,0.0,0.0,0.0,0.0,0.0,0.0,0.0,0.0,0.0,0.0,0.0,0.0,0.0,0.0,0.0,0.0,0.0,0.0,0.0,0.0,0.0,0.0,0.0,0.0,0.0,0.0,0.0,0.0,0.0,0.0,0.0,0.0,0.0,0.0,0.0,0.0,0.0,0.0,0.0,0.0,0.0,0.0,0.0,0.0,0.0,0.0,0.0,0.0,0.0,0.0,0.0,0.0,0.0,0.0,0.0,0.0,0.0,0.0,0.0,0.0,0.0,0.0,0.0,0.0,0.0,0.0,0.0,0.0,0.0,0.0,0.0,0.0,0.0,0.0,0.0,0.0,0.0,0.0,0.0,0.0,0.0,0.0,0.0,0.0,0.0,0.0,0.0,0.0,0.0,0.0,0.0,0.0,0.0,0.0,0.0,0.0,0.0,0.0,0.0,0.0,0.0,0.0,0.0,0.0,0.0,0.0,0.0,0.0,0.0,0.0,0.0,0.0,0.0,0.0,0.0,0.0,0.0,0.0,0.0,0.0,0.0,0.0,0.0,0.0,0.0,0.0,0.0,0.0,0.0,0.0,0.0,0.0,0.0,0.0,0.0,0.0,0.0,0.0,0.0,0.0,0.0,0.0,0.0,0.0,0.0,0.0,0.0,0.0,0.0,0.0,0.0,0.0,0.0,0.0,0.0,0.0,0.0,0.0,0.0,0.0,0.0,0.0,0.0,0.0,0.0,0.0,0.0,0.0,0.0,0.0,0.0,0.0,0.0,0.0,0.0,0.0,0.0,0.0,0.0,0.0,0.0,0.0,0.0,0.0,0.0,0.0,0.0,0.0,0.0,0.0,0.0,0.0,0.0,0.0,0.0,0.0,0.0,0.0,0.0,0.0,0.0,0.0,0.0,0.0,0.0,0.0,0.0,0.0,0.0,0.0,0.0,0.0,0.0,0.0,0.0,0.0,0.0,0.0,0.0,0.0,0.0,0.0,0.0,0.0,0.0,0.0,0.0,0.0,0.0,0.0,0.0,0.0,0.0,0.0,0.0,0.0,0.0,0.0,0.0,0.0,0.0,0.0,0.0,0.0,0.0,0.0,0.0,0.0,0.0,0.0,0.0,0.0,0.0,0.0,0.0,0.0,0.0,0.0,0.0,0.0,0.0,0.0,0.0,0.0,0.0,0.0,0.0,0.0,0.0,0.0,0.0,0.0,0.0,0.0,0.0,0.0,0.0,0.0,0.0,0.0,0.0,0.0,0.0,0.0,0.0,0.0,0.0,0.0,0.0,0.0,0.0,0.0,0.0,0.0,0.0,0.0,0.0,0.0,0.0,0.0,0.0,0.0,0.0,0.0,0.0,0.0,0.0,0.0,0.0,0.0,0.0,0.0,0.0,0.0,0.0,0.0,0.0,0.0,0.0,0.0,0.0,0.0,0.0,0.0,0.0,0.0,0.0,0.0,0.0,0.0,0.0,0.0,0.0,0.0,0.0,0.0,0.0,0.0,0.0,0.0,0.0,0.0,0.0,0.0,0.0,0.0,0.0,0.0,0.0,0.0,0.0,0.0,0.0,0.0,0.0,0.0,0.0,0.0,0.0,0.0,0.0,0.0,0.0,0.0,0.0,0.0,0.0,0.0,0.0,0.0,0.0,0.0,0.0,0.0,0.0,0.0,0.0,0.0,0.0,0.0,0.0,0.0,0.0,0.0,0.0,0.0,0.0,0.0,0.0,0.0,0.0,0.0,0.0,0.0,0.0,0.0,0.0,0.0,0.0,0.0,0.0,0.0,0.0,0.0,0.0,0.0,0.0,0.0,0.0,0.0,0.0,0.0,0.0,0.0,0.0,0.0,0.0,0.0,0.0,0.0,0.0,0.0,0.0,0.0,0.0,0.0,0.0,0.0,0.0,0.0,0.0,0.0,0.0,0.0,0.0,0.0,0.0,0.0,0.0,0.0,0.0,0.0,0.0,0.0,0.0,0.0,0.0,0.0,0.0,0.0,0.0,0.0,0.0,0.0,0.0,0.0,0.0,0.0,0.0,0.0,0.0,0.0,0.0,0.0,0.0,0.0,0.0,0.0,0.0,0.0,0.0,0.0,0.0,0.0,0.0,0.0,0.0,0.0,0.0,0.0,0.0,0.0,0.0,0.0,0.0,0.0,0.0,0.0,0.0,0.0,0.0,0.0,0.0,0.0,0.0,0.0,0.0,0.0,0.0,0.0,0.0,0.0,0.0,0.0,0.0,0.0,0.0,0.0,0.0,0.0,0.0,0.0,0.0,0.0,0.0,0.0,0.0,0.0,0.0,0.0,0.0,0.0,0.0,0.0,0.0,0.0,0.0,0.0,0.0,0.0,0.0,0.0,0.0,0.0,0.0,0.0,0.0,0.0,0.0,0.0,0.0,0.0,0.0,0.0,0.0,0.0,0.0,0.0,0.0,0.0,0.0,0.0,0.0,0.0,0.0,0.0,0.0,0.0,0.0,0.0,0.0,0.0,0.0,0.0,0.0,0.0,0.0,0.0,0.0,0.0,0.0,0.0,0.0,0.0,0.0,0.0,0.0,0.0,0.0,0.0,0.0,0.0,0.0,0.0,0.0,0.0,0.0,0.0,0.0,0.0,0.0,0.0,0.0,0.0,0.0,0.0,0.0,0.0,0.0,0.0,0.0,0.0,0.0,0.0,0.0,0.0,0.0,0.0,0.0,0.0,0.0,0.0,0.0,0.0,0.0,0.0,0.0,0.0,0.0,0.0,0.0,0.0,0.0,0.0,0.0,0.0,0.0,0.0,0.0,0.0,0.0,0.0,0.0,0.0,0.0,0.0,0.0,0.0,0.0,0.0,0.0,0.0,0.0,0.0,0.0,0.0,0.0,0.0,0.0,0.0,0.0,0.0,0.0,0.0,0.0,0.0,0.0,0.0,0.0,0.0,0.0,0.0,0.0,0.0,0.0,0.0,0.0,0.0,0.0,0.0,0.0,0.0,0.0,0.0,0.0,0.0,0.0,0.0,0.0,0.0,0.0,0.0,0.0,0.0,0.0,0.0,0.0,0.0,0.0,0.0,0.0,0.0,0.0,0.0,0.0,0.0,0.0,0.0,0.0,0.0,0.0,0.0,0.0,0.0,0.0,0.0,0.0,0.0,0.0,0.0,0.0,0.0,0.0,0.0,0.0,0.0,0.0,0.0,0.0,0.0,0.0,0.0,0.0,0.0,0.0,0.0,0.0,0.0,0.0,0.0,0.0,0.0,0.0,0.0,0.0,0.0,0.0,0.0,0.0,0.0,0.0,0.0,0.0,0.0,0.0,0.0,0.0,0.0,0.0,0.0,0.0,0.0,0.0,0.0,0.0,0.0,0.0,0.0,0.0,0.0,0.0,0.0,0.0,0.0,0.0,0.0,0.0,0.0,0.0,0.0,0.0,0.0,0.0,0.0,0.0,0.0,0.0,0.0,0.0,0.0,0.0,0.0,0.0,0.0,0.0,0.0,0.0,0.0,0.0,0.0,0.0,0.0,0.0,0.0,0.0,0.0,0.0,0.0,0.0,0.0,0.0,0.0,0.0,0.0,0.0,0.0,0.0,0.0,0.0,0.0,0.0,0.0,0.0,0.0,0.0,0.0,0.0,0.0,0.0,0.0,0.0,0.0,0.0,0.0,0.0,0.0,0.0,0.0,0.0,0.0,0.0,0.0,0.0,0.0,0.0,0.0,0.0,0.0,0.0,0.0,0.0,0.0,0.0,0.0,0.0,0.0,0.0,0.0,0.0,0.0,0.0,0.0,0.0,0.0,0.0,0.0,0.0,0.0,0.0,0.0,0.0,0.0,0.0,0.0,0.0,0.0,0.0,0.0,0.0,0.0,0.0,0.0,0.0,0.0,0.0,0.0,0.0,0.0,0.0,0.0,0.0,0.0,0.0,0.0,0.0,0.0,0.0,0.0,0.0,0.0,0.0,0.0,0.0,0.0,0.0,0.0,0.0,0.0,0.0,0.0,0.0,0.0,0.0,0.0,0.0,0.0,0.0,0.0,0.0,0.0,0.0,0.0,0.0,0.0,0.0,0.0,0.0,0.0,0.0,0.0,0.0,0.0,0.0,0.0,0.0,0.0,0.0,0.0,0.0,0.0,0.0,0.0,0.0,0.0,0.0,0.0,0.0,0.0,0.0,0.0,0.0,0.0,0.0,0.0,0.0,0.0,0.0,0.0,0.0,0.0,0.0,0.0,0.0,0.0,0.0,0.0,0.0,0.0,0.0,0.0,0.0,0.0,0.0,0.0,0.0,0.0,0.0,0.0,0.0,0.0,0.0,0.0,0.0,0.0,0.0,0.0,0.0,0.0,0.0,0.0,0.0,0.0,0.0,0.0,0.0,0.0,0.0,0.0,0.0,0.0,0.0,0.0,0.0,0.0,0.0,0.0,0.0,0.0,0.0,0.0,0.0,0.0,0.0,0.0,0.0,0.0,0.0,0.0,0.0,0.0,0.0,0.0,0.0,0.0,0.0,0.0,0.0,0.0,0.0,0.0,0.0,0.0,0.0,0.0,0.0,0.0,0.0,0.0,0.0,0.0,0.0,0.0,0.0,0.0,0.0,0.0,0.0,0.0,0.0,0.0,0.0,0.0,0.0,0.0,0.0,0.0,0.0,0.0,0.0,0.0,0.0,0.0,0.0,0.0,0.0,0.0,0.0,0.0,0.0,0.0,0.0,0.0,0.0,0.0,0.0,0.0,0.0,0.0,0.0,0.0,0.0,0.0,0.0,0.0,0.0,0.0,0.0,0.0,0.0,0.0,0.0,0.0,0.0,0.0,0.0,0.0,0.0,0.0,0.0,0.0,0.0,0.0,0.0,0.0,0.0,0.0,0.0,0.0,0.0,0.0,0.0,0.0,0.0,0.0,0.0,0.0,0.0,0.0,0.0,0.0,0.0,0.0,0.0,0.0,0.0,0.0,0.0,0.0,0.0,0.0,0.0,0.0,0.0,0.0,0.0,0.0,0.0,0.0,0.0,0.0,0.0,0.0,0.0,0.0,0.0,0.0,0.0,0.0,0.0,0.0,0.0,0.0,0.0,0.0,0.0,0.0,0.0,0.0,0.0,0.0,0.0,0.0,0.0,0.0,0.0,0.0,0.0,0.0,0.0,0.0,0.0,0.0,0.0,0.0,0.0,0.0,0.0,0.0,0.0,0.0,0.0,0.0,0.0,0.0,0.0,0.0,0.0,0.0,0.0,0.0,0.0,0.0,0.0,0.0,0.0,0.0,0.0,0.0,0.0,0.0,0.0,0.0,0.0,0.0,0.0,0.0,0.0,0.0,0.0,0.0,0.0,0.0,0.0,0.0,0.0,0.0,0.0,0.0,0.0,0.0,0.0,0.0,0.0,0.0,0.0,0.0,0.0,0.0,0.0,0.0,0.0,0.0,0.0,0.0,0.0,0.0,0.0,0.0,0.0,0.0,0.0,0.0,0.0,0.0,0.0,0.0,0.0,0.0,0.0,0.0,0.0,0.0,0.0,0.0,0.0,0.0,0.0,0.0,0.0,0.0,0.0,0.0,0.0,0.0,0.0,0.0,0.0,0.0,0.0,0.0,0.0,0.0,0.0,0.0,0.0,0.0,0.0,0.0,0.0,0.0,0.0,0.0,-0.8626,0.0,0.0,0.0,0.0,0.0,0.0,0.0,0.0,0.0,0.0,0.0,0.0,0.0,0.0,0.0,0.0,0.0,0.0,0.0,0.0,0.0,0.0,0.0,0.0,0.0,0.0,0.0,0.0,0.0,0.0,0.0,0.0,0.0,0.0,0.0,0.0,0.0,0.0,0.0,-2.6131,-2.6302,-2.6127,-2.47,-2.2427,-1.9614,0.0,0.0,0.0,0.0,0.0,0.0,0.0,0.0,0.0,0.0,0.0,0.0,0.0,0.0,0.0,0.0,0.0,0.0,0.0,0.0,0.0,0.0,0.0,0.0,0.0,0.0,0.0,0.0,0.0,0.0,0.0,0.0,0.0,0.0,0.0,0.0,0.0,0.0,0.0,0.0,0.0,0.0,0.0,0.0,0.0,0.0,0.0,0.0,0.0,0.0,0.0,0.0,0.0,0.0,0.0,0.0,0.0,0.0,0.0,0.0,0.0,0.0,0.0,0.0,0.0,0.0,0.0,0.0,0.0,0.0,0.0,-0.9451,0.0,0.0,0.0,0.0,0.0,0.0,0.0,0.0,0.0,0.0,0.0,0.0,0.0,0.0,0.0,0.0,0.0,0.0,0.0,0.0,0.0,0.0,0.0,0.0,0.0,0.0,0.0,0.0,0.0,0.0,0.0,0.0,0.0,0.0,0.0,-2.6043,-2.6976,-2.8192,-2.8683,-2.917,-2.9618,-2.9039,-2.6329,-2.1934,-2.1713,0.0,0.0,0.0,0.0,0.0,0.0,0.0,0.0,0.0,0.0,0.0,0.0,0.0,0.0,0.0,0.0,0.0,0.0,0.0,0.0,0.0,0.0,0.0,0.0,0.0,0.0,0.0,0.0,0.0,0.0,0.0,0.0,0.0,0.0,0.0,0.0,0.0,0.0,0.0,0.0,0.0,0.0,0.0,0.0,0.0,0.0,0.0,0.0,0.0,0.0,0.0,0.0,0.0,0.0,0.0,0.0,0.0,0.0,0.0,0.0,0.0,0.0,0.0,0.0,0.0,-2.2289,-2.1784,-2.0889,-1.9531,-1.649,-1.3887,-1.1672,0.0,0.0,0.0,0.0,0.0,0.0,0.0,0.0,0.0,0.0,0.0,0.0,0.0,0.0,0.0,0.0,0.0,0.0,0.0,0.0,0.0,0.0,-2.0913,-2.1187,-2.1787,-2.1843,-2.1843,0.0,0.0,0.0,0.0,0.0,0.0,-2.8073,-2.923,-3.021,-3.0952,-3.1595,-3.2188,-3.2626,-3.2358,-3.1446,-2.9888,-2.6187,-2.3986,-2.2921,0.0,0.0,0.0,0.0,0.0,0.0,0.0,0.0,0.0,0.0,0.0,0.0,0.0,0.0,0.0,0.0,0.0,0.0,0.0,0.0,0.0,0.0,0.0,0.0,0.0,0.0,0.0,0.0,0.0,0.0,0.0,0.0,0.0,0.0,0.0,0.0,0.0,0.0,0.0,0.0,0.0,-1.6838,-1.5958,0.0,0.0,0.0,0.0,0.0,0.0,0.0,0.0,0.0,0.0,0.0,0.0,0.0,0.0,-2.682,-2.7307,-2.7477,-2.7227,-2.8364,-2.8671,-2.8164,-2.7655,-2.7454,-2.7493,-2.5254,0.0,-1.5072,-1.4191,0.0,0.0,0.0,0.0,0.0,0.0,0.0,0.0,0.0,0.0,0.0,0.0,0.0,0.0,0.0,0.0,0.0,0.0,0.0,0.0,0.0,-2.3979,-2.4445,-2.5112,-2.5665,-2.5731,-2.5228,0.0,0.0,0.0,0.0,-2.8521,-3.0195,-3.0763,-3.19,-3.3569,-3.5714,-3.6663,-3.6394,-3.6249,-3.5911,-3.5283,-3.1918,-2.8926,-2.6202,-2.3746,0.0,0.0,0.0,0.0,0.0,0.0,0.0,0.0,0.0,0.0,0.0,0.0,0.0,0.0,0.0,0.0,0.0,0.0,0.0,0.0,0.0,0.0,0.0,0.0,0.0,0.0,0.0,0.0,0.0,0.0,0.0,0.0,0.0,0.0,0.0,0.0,0.0,0.0,0.0,-2.2199,-2.1857,-2.0632,-2.073,-2.0675,0.0,0.0,0.0,0.0,0.0,0.0,0.0,0.0,0.0,-2.9615,-2.9616,-3.0174,-3.1444,-3.183,-3.2113,-3.223,-3.3149,-3.3013,-3.1991,-3.1765,-3.1314,-3.0639,-2.9737,-2.7484,-2.4142,-2.0159,-1.791,-1.695,0.0,0.0,0.0,0.0,0.0,0.0,0.0,0.0,0.0,0.0,0.0,0.0,0.0,0.0,0.0,0.0,0.0,0.0,-2.6393,-2.7051,-2.7794,-2.8783,-2.9415,-2.9423,-2.8557,-2.8982,0.0,0.0,-2.9486,-3.0372,-3.1959,-3.2497,-3.402,-3.6548,-3.9318,-4.0523,-4.0216,-4.0217,-4.0025,-3.9556,-3.7242,-3.3717,-2.9356,-2.6625,-2.4389,-2.2667,0.0,0.0,0.0,0.0,0.0,0.0,0.0,0.0,0.0,0.0,0.0,0.0,0.0,0.0,0.0,0.0,0.0,0.0,0.0,0.0,0.0,0.0,0.0,0.0,0.0,0.0,0.0,0.0,0.0,0.0,0.0,0.0,0.0,0.0,0.0,0.0,0.0,-2.6367,-2.5997,-2.4365,-2.5082,-2.5222,0.0,0.0,0.0,0.0,0.0,0.0,-3.0794,-3.1741,-3.2621,-3.358,-3.3891,-3.4529,-3.5527,-3.5841,-3.615,-3.656,-3.7006,-3.6567,-3.531,-3.5149,-3.4393,-3.3214,-3.2824,-3.2453,-3.1795,-2.5964,-2.2975,-2.2026,-2.1876,-2.1844,0.0,-2.2945,-2.2859,-2.2356,0.0,0.0,0.0,0.0,0.0,0.0,0.0,0.0,0.0,0.0,0.0,-2.5076,-2.8992,-2.9442,-3.0193,-3.2108,-3.202,-3.1598,-3.096,-3.0367,-3.0338,-3.0929,-3.184,-3.2647,-3.3395,-3.525,-3.7524,-4.0157,-4.1564,-4.2762,-4.3742,-4.4116,-4.3877,-4.3082,-4.1367,-3.7412,-3.1965,-2.9631,-2.7089,-2.4497,-2.3835,0.0,0.0,0.0,0.0,0.0,0.0,0.0,0.0,0.0,0.0,0.0,0.0,0.0,0.0,0.0,0.0,0.0,0.0,0.0,0.0,0.0,0.0,0.0,0.0,0.0,0.0,0.0,0.0,0.0,0.0,0.0,0.0,0.0,0.0,0.0,0.0,0.0,0.0,-2.5898,-2.8353,0.0,0.0,0.0,0.0,-3.2564,-3.3251,-3.4009,-3.5157,-3.6071,-3.6822,-3.732,-3.764,-3.8105,-3.8672,-3.892,-3.9107,-3.9102,-3.9334,-3.9145,-3.8539,-3.8011,-3.7484,-3.6829,-3.5323,-3.478,-3.4675,-3.0444,-2.8678,-2.8433,-2.649,-2.5718,-2.5712,-2.5602,-2.5518,-2.5577,0.0,0.0,0.0,0.0,0.0,0.0,0.0,0.0,0.0,-2.5627,-2.6422,-2.8158,-3.1719,-3.2497,-3.3545,-3.5489,-3.5311,-3.4593,-3.342,-3.324,-3.3067,-3.278,-3.3411,-3.4472,-3.5998,-3.7973,-3.9888,-4.1692,-4.3838,-4.5323,-4.6135,-4.6159,-4.615,-4.605,-4.4443,-4.2037,-3.8882,-3.4725,-3.1021,-2.7886,-2.7565,-2.5707,0.0,0.0,0.0,0.0,0.0,0.0,0.0,0.0,0.0,0.0,0.0,0.0,0.0,0.0,0.0,0.0,0.0,0.0,0.0,0.0,0.0,0.0,0.0,0.0,0.0,0.0,0.0,0.0,0.0,0.0,0.0,0.0,0.0,0.0,0.0,0.0,0.0,-3.2969,-3.4435,0.0,0.0,-3.3534,-3.4537,-3.5655,-3.6091,-3.6944,-3.8416,-3.8931,-3.947,-3.9935,-4.0104,-4.0419,-4.0961,-4.0728,-4.0795,-4.1083,-4.0974,-4.0611,-4.0079,-3.972,-3.9248,-3.8743,-3.8149,-3.778,-3.7346,-3.5538,-3.3508,-3.1416,-3.0262,-2.9579,-2.9224,-2.9432,-2.926,-2.9001,0.0,0.0,0.0,0.0,0.0,0.0,0.0,0.0,0.0,-2.6022,-2.782,-3.0193,-3.3455,-3.4801,-3.6178,-3.7943,-3.7534,-3.6564,-3.5175,-3.4769,-3.4361,-3.3831,-3.4896,-3.6297,-3.8063,-4.0038,-4.1923,-4.3688,-4.5693,-4.71,-4.7967,-4.7747,-4.7778,-4.7954,-4.6579,-4.5374,-4.4161,-4.0152,-3.5961,-3.1901,-3.0976,-2.9159,-2.6876,0.0,0.0,0.0,0.0,0.0,0.0,0.0,0.0,0.0,0.0,0.0,0.0,0.0,0.0,0.0,0.0,0.0,0.0,0.0,0.0,0.0,0.0,0.0,0.0,0.0,0.0,0.0,0.0,0.0,0.0,0.0,0.0,0.0,0.0,0.0,-3.5805,-3.7258,-3.8585,-3.8768,-3.7063,-3.7638,-3.8291,-3.8818,-3.9217,-3.9987,-4.1284,-4.1693,-4.2053,-4.24,-4.2227,-4.2301,-4.2673,-4.204,-4.1854,-4.211,-4.1777,-4.1282,-4.066,-4.0491,-4.0114,-3.9609,-3.9609,-3.9417,-3.9025,-3.8618,-3.7192,-3.5017,-3.36,-3.2721,-3.2267,-3.2458,-3.2223,-3.1803,0.0,0.0,0.0,0.0,0.0,0.0,0.0,-2.3348,-2.4846,-2.5535,-2.7945,-3.0881,-3.4204,-3.6267,-3.8003,-3.9313,-3.8525,-3.7357,-3.6114,-3.479,-3.4061,-3.4104,-3.6271,-3.8123,-3.9463,-4.1444,-4.3748,-4.6309,-4.704,-4.8027,-4.9329,-4.9058,-4.8967,-4.8892,-4.7786,-4.7294,-4.7131,-4.5593,-4.1752,-3.6484,-3.3979,-3.262,-3.1794,0.0,0.0,0.0,0.0,0.0,0.0,0.0,0.0,0.0,0.0,0.0,0.0,0.0,0.0,0.0,0.0,0.0,0.0,0.0,0.0,0.0,0.0,0.0,0.0,0.0,0.0,0.0,0.0,0.0,0.0,0.0,0.0,0.0,-3.4428,-3.6514,-3.8115,-3.8165,-4.0576,-4.1659,-3.9973,-4.0802,-4.1656,-4.2238,-4.2791,-4.3263,-4.3815,-4.4367,-4.4644,-4.4644,-4.4141,-4.384,-4.384,-4.3006,-4.2393,-4.2135,-4.1802,-4.125,-4.0483,-4.0427,-4.0162,-3.9657,-3.9657,-3.9657,-3.9633,-3.9633,-3.9633,-3.9323,-3.658,-3.5218,-3.4782,-3.4571,-3.4218,-3.3737,0.0,0.0,0.0,0.0,0.0,0.0,0.0,-2.2013,-2.392,-2.6064,-2.8562,-3.1631,-3.5547,-3.7255,-3.8871,-4.0696,-3.8829,-3.7445,-3.7178,-3.5389,-3.5204,-3.7119,-3.8251,-3.9881,-4.2183,-4.3718,-4.5334,-4.704,-4.8177,-4.9164,-4.9972,-4.9881,-5.0027,-5.0258,-4.928,-4.8752,-4.8448,-4.6496,-4.4702,-4.2941,-3.8974,-3.598,-3.3659,0.0,0.0,0.0,0.0,0.0,0.0,0.0,0.0,0.0,0.0,0.0,0.0,0.0,0.0,0.0,0.0,0.0,0.0,0.0,0.0,0.0,0.0,0.0,0.0,0.0,0.0,0.0,0.0,0.0,0.0,0.0,0.0,-3.7292,-3.6493,-3.8364,-4.0275,-4.148,-4.2986,-4.3614,-4.276,-4.3313,-4.379,-4.394,-4.4091,-4.4418,-4.4995,-4.5171,-4.5246,-4.5246,-4.5095,-4.502,-4.502,-4.4009,-4.3394,-4.3362,-4.302,-4.2462,-4.1663,-4.1825,-4.1474,-4.0739,-4.0739,-4.0523,-4.0186,-4.0186,-3.9946,-3.953,-3.8777,-3.7888,-3.6982,-3.6736,-3.5635,-3.4261,0.0,0.0,0.0,0.0,0.0,0.0,0.0,-2.13,-2.3231,-2.4978,-2.8111,-3.1377,-3.4499,-3.6594,-3.8275,-3.9437,-3.8232,-3.7207,-3.6754,-3.6071,-3.6387,-3.7913,-3.9709,-4.1504,-4.326,-4.5185,-4.68,-4.8117,-4.9164,-5.0002,-5.0614,-5.0614,-5.0747,-5.0934,-5.0075,-4.9693,-4.9556,-4.7654,-4.677,-4.6446,-4.3243,-4.0476,-3.8016,-3.5655,-3.4735,-3.4408,-3.2323,-3.164,-3.122,-2.8765,0.0,0.0,0.0,0.0,0.0,0.0,0.0,0.0,0.0,0.0,0.0,0.0,0.0,0.0,0.0,0.0,0.0,0.0,0.0,0.0,0.0,0.0,0.0,0.0,-3.8013,-3.9967,-3.9978,-4.1078,-4.2509,-4.4166,-4.5146,-4.5623,-4.5522,-4.5623,-4.5673,-4.5673,-4.5472,-4.5472,-4.5824,-4.5824,-4.5824,-4.5824,-4.5623,-4.5497,-4.5497,-4.4367,-4.3758,-4.3644,-4.3248,-4.2633,-4.1883,-4.2281,-4.2026,0.0,-4.1413,-4.122,-4.0739,-4.0739,-4.0547,0.0,0.0,0.0,0.0,0.0,-3.644,-3.4965,0.0,0.0,0.0,0.0,0.0,0.0,0.0,-2.0888,-2.2618,-2.3226,-2.6945,-3.0223,-3.1959,-3.4739,-3.6532,-3.6679,-3.6807,-3.6503,-3.5579,-3.6686,-3.7524,-3.7853,-4.0853,-4.2851,-4.3618,-4.6142,-4.8027,-4.9299,-4.9912,-5.0524,-5.1229,-5.1229,-5.1229,-5.1152,-5.0351,-5.0206,-5.0412,-4.8893,-4.8103,-4.7695,-4.6563,-4.5006,-4.3003,-4.0035,-3.9349,-3.9609,-3.6584,-3.4676,-3.3316,-3.171,0.0,0.0,0.0,0.0,0.0,0.0,0.0,0.0,0.0,0.0,0.0,0.0,0.0,0.0,0.0,0.0,0.0,0.0,0.0,0.0,0.0,0.0,0.0,0.0,-4.0594,-4.2624,-4.3904,-4.4192,-4.4794,-4.6225,-4.6878,-4.7405,-4.7857,-4.7481,-4.7205,-4.7068,-4.6728,-4.6426,-4.6326,0.0,0.0,0.0,0.0,-4.5573,-4.5573,-4.4518,-4.3876,-4.3614,-4.3091,-4.2478,-4.1858,-4.2394,-4.2195,-4.1389,-4.1798,-4.1701,-4.1268,-4.1196,-4.1172,-4.1076,-4.009,-3.9459,-3.8974,-3.7831,-3.6678,0.0,0.0,0.0,0.0,0.0,0.0,0.0,0.0,-1.9855,-2.1639,-2.3171,-2.5739,-2.8056,-2.9897,-3.193,-3.3747,-3.5066,-3.441,-3.4399,-3.5427,-3.6686,-3.8362,-4.0516,-4.2252,-4.3988,-4.5651,-4.7279,-4.8476,-4.9299,-4.9912,-5.0524,-5.1229,-5.1229,-5.1229,-5.1182,-5.0639,-5.043,-5.0394,-4.9124,-4.8294,-4.7753,-4.7521,-4.5568,-4.2676,-4.1118,-3.9617,-3.8167,-3.6664,-3.6508,-3.6806,-3.5098,-3.4495,-3.4105,-3.2219,0.0,0.0,0.0,0.0,0.0,0.0,0.0,0.0,0.0,0.0,0.0,0.0,0.0,0.0,0.0,0.0,0.0,0.0,0.0,0.0,-4.1363,-4.3121,-4.4497,-4.5623,-4.6577,-4.7079,-4.6979,-4.7431,-4.7807,-4.7908,-4.7807,-4.7581,-4.7093,-4.7431,-4.723,-4.6351,-4.6728,0.0,-4.6326,-4.62,-4.615,-4.615,-4.5497,-4.5171,-4.5112,0.0,0.0,-4.3296,-4.387,-4.3525,-4.2506,-4.211,-4.1918,-4.1774,-4.1365,-4.1172,-4.1124,-4.0499,-3.9727,-3.8847,-3.7557,-3.6319,-3.5146,0.0,0.0,0.0,0.0,0.0,0.0,0.0,-1.9152,-2.0859,-2.2591,-2.4296,-2.6007,-2.7746,-2.919,-3.0662,-3.2208,-3.2926,-3.3926,-3.5397,-3.7345,-3.914,-4.0816,-4.312,-4.4796,-4.5783,-4.7429,-4.864,-4.9299,-4.9912,-5.0524,-5.1229,-5.1229,-5.1003,-5.0704,-5.0656,-5.0212,-4.9451,-4.9044,-4.8505,-4.7753,-4.7433,-4.6304,-4.4686,-4.41,-4.2884,-4.1315,-3.9726,-3.9356,-3.9315,-3.7365,-3.6689,-3.6467,-3.5047,-3.3332,-3.1705,0.0,0.0,0.0,0.0,0.0,0.0,0.0,0.0,0.0,0.0,0.0,0.0,0.0,0.0,-3.6181,0.0,0.0,-4.1014,-4.3734,-4.489,-4.5849,-4.6954,-4.7832,-4.8234,-4.7983,-4.8184,-4.846,-4.8736,-4.851,-4.8234,-4.7983,-4.7682,-4.728,-4.6753,-4.6728,-4.6602,-4.6326,-4.6301,-4.6301,-4.6301,-4.5773,-4.5497,-4.5497,-4.5196,-4.4568,-4.3733,-4.4274,-4.3842,-4.2819,-4.276,-4.2447,-4.1942,-4.1413,-4.1172,-4.1148,-4.0884,-4.0134,-3.9001,-3.7759,-3.6511,-3.53,0.0,0.0,0.0,0.0,0.0,0.0,0.0,0.0,-1.9888,-2.1483,-2.2676,-2.3939,-2.5495,-2.655,-2.7806,-2.9383,-3.1801,-3.3928,-3.54,-3.7973,-3.9828,-4.0756,-4.3569,-4.5214,-4.5484,-4.707,-4.8297,-4.912,-4.9613,-5.0182,-5.084,-5.084,-5.0541,-5.0016,-5.0245,-4.9656,-4.8509,-4.8729,-4.8348,-4.755,-4.7172,-4.6882,-4.6604,-4.6512,-4.5798,-4.4563,-4.2634,-4.1556,-4.0757,-3.8978,-3.7885,-3.7184,-3.6919,-3.5851,-3.4469,-3.3498,-3.3069,0.0,0.0,0.0,0.0,0.0,0.0,0.0,0.0,0.0,-3.5596,-3.7156,-3.7954,-3.8768,-4.0224,-4.1681,-4.3338,-4.5472,-4.6276,-4.6954,-4.7933,-4.856,-4.8937,-4.8937,-4.8937,-4.9113,-4.9565,-4.9188,-4.8887,-4.8786,-4.8058,-4.7506,-4.7305,-4.6979,-4.6677,-4.6476,-4.6476,-4.6426,-4.6301,-4.5874,-4.5648,-4.5648,-4.5112,-4.4593,-4.4112,-4.441,-4.4085,-4.3192,-4.3349,-4.2784,-4.1774,-4.1365,-4.1172,-4.1172,-4.1172,-4.0421,-3.918,-3.8069,-3.6831,-3.5512,0.0,0.0,0.0,0.0,0.0,0.0,0.0,0.0,0.0,-1.9677,-2.0836,-2.19,-2.2908,-2.4105,-2.5722,-2.7994,-3.0879,-3.3392,-3.5397,-3.7973,-4.0217,-4.2111,-4.3599,-4.4975,-4.613,-4.6441,-4.716,-4.8386,-4.8476,-4.8835,-4.9539,-4.9539,-4.9479,-4.9374,-4.8932,-4.8643,-4.8479,-4.8074,-4.7567,-4.6923,-4.7462,-4.6998,-4.5937,-4.5573,-4.4705,-4.3598,-4.2378,-4.1237,-4.025,-4.0081,-3.8983,-3.7891,-3.8826,-3.7111,-3.4978,-3.6332,0.0,-3.2617,-3.3979,-3.3688,-3.3452,-3.5314,-3.5562,-3.6279,0.0,0.0,-4.0106,-4.2023,-4.2364,-4.2534,-4.3212,-4.389,-4.492,-4.6677,-4.738,-4.7958,-4.8586,-4.9163,-4.9515,-4.9515,-4.9515,-4.9515,-4.959,-4.954,-4.9289,-4.8875,-4.9113,-4.8887,-4.7883,-4.8259,-4.8058,-4.7079,-4.6993,-4.6803,-4.6326,-4.625,-4.6225,-4.6225,-4.5849,-4.5643,-4.5583,-4.5025,-4.4719,-4.4475,-4.3361,-4.2254,-4.1268,-4.1196,-4.1172,-4.1172,-4.1172,-4.0421,-3.918,-3.8362,-3.7067,-3.5512,0.0,0.0,0.0,0.0,0.0,0.0,0.0,0.0,0.0,0.0,-1.9686,-2.0678,-2.14,-2.3214,-2.4811,-2.5817,-2.919,-3.1936,-3.36,-3.6539,-3.914,-4.1145,-4.2851,-4.4157,-4.5125,-4.5544,-4.6202,-4.716,-4.7,-4.7372,-4.8147,-4.8447,-4.8417,-4.8147,-4.8354,-4.8113,-4.739,-4.724,-4.7085,-4.6778,-4.6708,-4.6359,-4.5808,-4.4876,-4.3567,-4.2132,-4.1183,-4.0299,0.0,0.0,-3.9229,-3.8461,-3.9479,-3.8042,-3.6131,-3.7064,-3.6174,0.0,-3.618,-3.63,-3.6297,0.0,-3.8069,-3.8925,-4.0593,-4.1156,-4.1717,-4.2846,-4.3528,-4.4116,-4.4669,-4.5497,-4.6426,0.0,-4.8058,-4.8611,-4.9163,-4.9163,-4.8987,-4.8661,-4.8611,-4.8862,-4.954,-4.959,-4.949,-4.9264,-4.9163,-4.8912,-4.8435,-4.8309,-4.7908,-4.7093,-4.7068,-4.6878,-4.6326,-4.6301,-4.6301,-4.6301,-4.5939,-4.5696,-4.5514,-4.5025,-4.4717,-4.4484,-4.359,-4.2952,-4.2495,-4.1894,-4.1822,-4.2038,-4.1007,-4.0235,-3.9675,-3.8794,-3.7487,-3.5979,0.0,0.0,0.0,0.0,0.0,0.0,0.0,0.0,0.0,0.0,0.0,0.0,0.0,-2.2056,-2.3467,-2.3864,-2.7048,-2.9768,-3.1524,-3.4629,-3.7421,-3.9768,-4.1449,-4.2882,-4.4018,-4.4496,-4.5185,-4.6022,-4.5853,-4.6135,-4.677,-4.7076,-4.7046,-4.6672,-4.72,-4.6889,-4.5947,-4.6016,-4.604,-4.6011,-4.5547,-4.5256,-4.4937,-4.3357,-4.1747,-4.0269,-3.9858,-3.9242,0.0,0.0,-3.8389,-3.7993,-3.9172,-3.8196,-3.6791,-3.7813,-3.7882,-3.7645,-3.7717,-3.8027,-3.8479,-3.8956,-4.0018,-4.0977,-4.1134,-4.2057,-4.2986,-4.3564,-4.4443,-4.5271,-4.5824,-4.6602,-4.7355,-4.8033,-4.8485,-4.8962,-4.9515,-4.8987,-4.8385,-4.7958,-4.7657,-4.7857,-4.8812,-4.9188,-4.9364,-4.9364,-4.9138,-4.9012,-4.9012,-4.8611,-4.8134,-4.7606,-4.7581,-4.7255,-4.6552,-4.6552,-4.6451,-4.6301,-4.5939,-4.5696,-4.5453,-4.5025,-4.4521,-4.4045,-4.3697,-4.3433,-4.3241,-4.2495,-4.2327,-4.2352,-4.1034,-4.0163,-3.9551,-3.8866,-3.7736,-3.6298,0.0,0.0,0.0,0.0,0.0,0.0,0.0,0.0,0.0,0.0,0.0,0.0,0.0,-1.9881,-2.1103,-2.2537,-2.4431,-2.673,-2.9522,-3.2339,-3.5276,-3.8327,-3.9476,-4.1041,-4.329,-4.3349,-4.3977,-4.5334,-4.5334,-4.5334,-4.5364,-4.5394,-4.5269,-4.503,-4.4807,-4.4595,-4.4352,-4.4196,-4.4066,-4.4066,-4.4066,-4.366,-4.2834,-4.0502,-3.8903,-3.7959,-3.8523,0.0,0.0,0.0,-3.6162,-3.6102,-3.7792,-3.7235,0.0,-3.9359,-3.9902,0.0,0.0,0.0,-3.9008,-4.0088,-4.0824,-4.158,-4.266,-4.3765,-4.4719,-4.5296,-4.5874,-4.6426,-4.6918,-4.7043,-4.7481,-4.856,-4.8761,-4.8962,-4.9515,-4.8636,-4.7933,-4.7908,-4.6979,-4.6577,0.0,-4.8184,-4.8786,-4.8786,-4.9264,-4.9565,-4.9565,-4.9565,-4.9289,-4.8736,-4.8711,-4.8209,-4.7129,-4.7043,-4.6828,-4.6301,-4.5939,-4.5817,-4.5757,-4.5086,-4.4365,-4.3529,-4.3529,-4.3241,-4.2843,-4.2819,-4.2269,-4.1519,-4.1496,-4.0197,-3.8313,-3.8313,-3.7473,-3.6298,0.0,0.0,0.0,0.0,0.0,0.0,0.0,0.0,0.0,0.0,0.0,0.0,0.0,0.0,0.0,0.0,-2.3147,-2.5329,-2.6732,-2.9995,-3.2832,-3.5007,-3.6945,-3.8608,-4.0038,-4.0293,-4.0948,-4.2043,-4.1509,-4.1706,-4.2535,-4.2792,-4.292,-4.2909,-4.3673,-4.3889,-4.3708,-4.3934,-4.3357,-4.2336,-4.2647,-4.1513,-3.9682,-3.9083,-3.761,-3.5913,0.0,0.0,0.0,0.0,0.0,0.0,-3.6065,0.0,0.0,-3.7775,0.0,0.0,0.0,0.0,-4.0877,-4.2632,-4.3278,-4.3815,-4.492,-4.5472,-4.5698,-4.5522,-4.5321,-4.5146,-4.4945,-4.5522,-4.6276,-4.7029,-4.8058,-4.8962,-4.9515,-4.8962,-4.8058,-4.6979,-4.6527,0.0,0.0,0.0,0.0,-4.8711,-4.8937,-4.9213,-4.9565,-4.959,-4.9339,-4.8786,-4.8761,-4.841,-4.7657,-4.7657,-4.738,-4.6792,-4.593,-4.5331,-4.5147,-4.4656,-4.4312,-4.3997,-4.3997,-4.3962,-4.3794,-4.3409,-4.3179,-4.2909,-4.1798,-4.0554,-3.9254,-3.827,-3.7108,-3.6034,0.0,0.0,0.0,0.0,0.0,0.0,0.0,0.0,0.0,0.0,0.0,0.0,0.0,0.0,0.0,0.0,0.0,-2.3202,-2.4378,-2.7163,-2.9613,-3.1553,-3.3614,-3.5403,-3.6936,-3.7369,-3.8161,-3.932,-3.8811,-3.8981,-3.9757,-3.995,-3.9976,-3.9997,-4.0588,-4.0879,-4.0829,-4.0966,-4.0366,-3.9299,-3.9567,-3.8222,-3.6059,-3.5772,-3.4476,0.0,0.0,0.0,0.0,0.0,0.0,0.0,0.0,0.0,0.0,0.0,0.0,0.0,0.0,-4.1612,-4.2293,-4.4013,-4.47,-4.5171,-4.61,-4.615,-4.5849,-4.5296,-4.4568,-4.3991,-4.384,-4.4066,-4.4744,-4.61,-4.7029,-4.8008,-4.9138,-4.8661,-4.7857,-4.6979,-4.6552,-4.5974,0.0,0.0,0.0,-4.7832,-4.8435,-4.8937,-4.9289,-4.949,-4.9439,-4.9088,-4.9063,-4.8786,-4.8209,-4.8209,-4.7857,-4.7068,-4.5883,-4.5208,-4.4963,-4.4532,-4.4285,-4.4285,-4.4285,-4.4285,-4.4261,-4.3962,-4.3549,-4.3,-4.1911,-4.0449,-3.8886,-3.7964,-3.6801,-3.5726,0.0,0.0,0.0,0.0,0.0,0.0,0.0,0.0,0.0,0.0,0.0,0.0,0.0,0.0,0.0,0.0,0.0,0.0,-2.2512,-2.395,-2.5818,-2.8198,-2.966,-3.1551,-3.4047,-3.4582,-3.5629,-3.7097,-3.7063,-3.7097,-3.7161,-3.6916,-3.6645,-3.64,-3.597,-3.5885,-3.5985,-3.5806,-3.5459,-3.5111,-3.5046,-3.3952,-3.2132,-3.0945,-2.9833,-2.8955,-2.9162,0.0,0.0,0.0,0.0,0.0,0.0,0.0,0.0,0.0,0.0,-3.9179,-4.1512,-4.2543,-4.3279,-4.4345,-4.507,-4.5623,-4.61,-4.5773,-4.5171,-4.4543,-4.3539,-4.2911,0.0,0.0,-4.2961,-4.5698,-4.5824,-4.6326,-4.851,-4.7908,-4.7431,0.0,0.0,0.0,0.0,0.0,0.0,-4.6351,0.0,-4.8761,-4.8812,-4.9314,-4.959,-4.959,-4.959,-4.9339,-4.8812,-4.8761,-4.8209,-4.7093,-4.5907,-4.5331,-4.527,-4.4594,-4.4347,-4.4285,-4.4285,-4.4285,-4.4285,-4.4285,-4.3378,-4.1905,-4.1905,-4.0068,-3.7461,-3.7461,-3.6627,-3.5418,0.0,0.0,0.0,0.0,0.0,0.0,0.0,0.0,0.0,0.0,0.0,0.0,0.0,0.0,0.0,0.0,0.0,0.0,-2.033,-2.1859,-2.357,-2.5358,-2.7039,-2.854,-2.9823,-3.0215,-3.1249,-3.2942,-3.2526,-3.3013,-3.4282,-3.4186,-3.4026,-3.3862,-3.4394,-3.4567,-3.443,-3.4289,-3.3463,-3.224,-3.1965,-3.0672,-2.8946,-2.9285,-2.878,-2.8087,-2.9563,0.0,0.0,0.0,0.0,0.0,0.0,-3.4873,-3.5159,0.0,0.0,-3.8862,-4.1871,-4.3401,-4.4333,-4.5079,-4.5372,-4.5422,-4.5121,-4.4317,-4.3237,-4.1856,-4.0676,-3.9697,0.0,0.0,0.0,-4.3514,-4.5447,0.0,-4.9138,-4.9138,0.0,-4.7983,0.0,-4.723,-4.6577,-4.6753,0.0,0.0,-4.7682,-4.8485,-4.9339,-4.9515,-4.959,-4.959,-4.959,-4.9515,-4.9389,-4.8535,-4.7983,-4.7707,-4.6326,-4.5514,-4.527,-4.484,-4.4532,-4.4285,-4.4285,-4.4285,-4.4285,-4.4285,-4.3745,-4.2926,-4.2926,-4.1096,-3.8507,-3.8507,-3.7183,-3.5418,0.0,0.0,0.0,0.0,0.0,0.0,0.0,0.0,0.0,0.0,0.0,0.0,0.0,0.0,0.0,0.0,0.0,0.0,0.0,-2.0009,-2.1361,-2.2229,-2.3995,-2.548,-2.6553,-2.6999,-2.8026,-2.9592,-2.9315,-2.9638,-3.0592,-3.0211,-3.0119,-3.0252,-3.0275,-3.0304,-3.0363,-3.0447,-2.9721,0.0,0.0,-2.755,-2.6142,-2.6601,-2.6294,-2.5783,-2.7506,-2.8987,0.0,0.0,0.0,-3.6158,-3.5842,-3.5967,-3.6625,-3.8777,0.0,-4.0104,-4.3164,-4.452,-4.507,-4.5422,-4.5296,-4.4769,-4.3432,-4.2333,-4.1003,-3.9094,-3.8015,0.0,-3.6584,0.0,0.0,0.0,0.0,0.0,-4.8862,-4.9238,-4.9088,0.0,-4.8661,0.0,-4.7807,-4.7807,-4.7958,0.0,-4.8259,-4.856,-4.9188,-4.9464,-4.959,-4.959,-4.959,-4.959,-4.959,-4.8359,-4.7783,-4.7883,-4.6314,-4.5514,-4.527,-4.4963,-4.4594,-4.4285,0.0,-4.4285,-4.4285,-4.4161,-4.3645,-4.2934,-4.2474,-4.0864,-3.8794,-3.8564,-3.7402,-3.6039,0.0,0.0,0.0,0.0,0.0,0.0,0.0,0.0,0.0,0.0,0.0,0.0,0.0,0.0,0.0,0.0,0.0,0.0,0.0,0.0,-1.927,-1.9579,-2.1117,-2.2582,-2.396,-2.4487,-2.5346,-2.6682,-2.6682,-2.674,-2.68,-2.6043,-2.5981,-2.6444,-2.5488,-2.5246,-2.5536,-2.581,-2.5432,-2.4711,-2.5088,-2.4633,-2.3778,0.0,0.0,0.0,-2.4704,-2.7696,-3.1211,-3.2774,-3.4963,-3.711,-3.7177,-3.7891,-3.9011,-4.0434,-4.1174,-4.2087,-4.4738,-4.5497,-4.5573,-4.5497,-4.4945,-4.384,-4.1576,-4.0149,-3.8617,-3.6433,0.0,-3.5056,-3.5056,-3.573,-3.7561,-4.1458,0.0,-4.4443,-4.8335,-4.8812,-4.8987,-4.954,-4.9665,-4.9665,-4.9615,-4.9213,-4.9163,-4.9565,-4.9163,-4.8887,-4.8887,-4.9339,-4.959,-4.959,-4.959,-4.959,-4.959,-4.8244,-4.7745,-4.8008,-4.6328,-4.5503,-4.5368,-4.5061,-4.4667,-4.4285,0.0,0.0,-4.4285,-4.4013,-4.3378,-4.2606,-4.161,-4.0204,-3.8818,-3.8145,-3.7423,-3.6804,0.0,0.0,0.0,0.0,0.0,0.0,0.0,0.0,0.0,0.0,-1.3105,-1.2915,0.0,0.0,0.0,0.0,0.0,0.0,0.0,0.0,0.0,-1.9527,-1.9909,-2.0667,-2.197,-2.2071,0.0,0.0,0.0,-2.3716,-2.4326,-2.4191,-2.4138,-2.4249,-2.4059,-2.4004,-2.4031,-2.3474,-2.3175,-2.2958,-2.2449,-2.2387,-2.2598,0.0,0.0,0.0,-2.4704,-2.7421,-3.063,-3.2512,-3.4877,-3.7321,-3.8492,-3.9101,-3.976,-4.1929,-4.262,-4.3143,-4.4961,-4.5808,-4.605,-4.5598,-4.4367,-4.2685,-4.0475,-3.8391,0.0,0.0,-3.3194,-3.2792,-3.2792,-3.4329,-3.6912,-4.0852,-4.271,-4.502,-4.8912,-4.9063,-4.8987,0.0,0.0,0.0,0.0,0.0,0.0,0.0,0.0,0.0,-4.9464,-4.954,-4.959,-4.959,-4.959,-4.959,-4.959,-4.8643,-4.8319,-4.8611,-4.7269,-4.6412,-4.5945,-4.5597,-4.5005,-4.4285,0.0,0.0,-4.4285,-4.4223,-4.3778,-4.3122,-4.2345,-4.0972,-3.9364,-3.8637,-3.7696,-3.6804,0.0,0.0,0.0,0.0,0.0,0.0,0.0,-1.3685,-1.388,-1.4141,-1.4004,-1.3717,-1.3262,-1.3032,0.0,0.0,0.0,0.0,0.0,0.0,0.0,0.0,0.0,0.0,0.0,0.0,0.0,0.0,0.0,0.0,0.0,0.0,0.0,0.0,0.0,0.0,0.0,0.0,0.0,0.0,0.0,0.0,0.0,0.0,0.0,0.0,0.0,-2.6138,-2.8944,-3.1273,-3.3782,-3.6372,-3.9229,-4.0422,-4.1159,-4.3216,-4.3635,-4.3765,-4.5447,-4.61,-4.61,-4.5246,-4.379,-4.181,-3.8718,0.0,0.0,0.0,-3.1361,-3.1386,-3.1386,-3.3194,0.0,-3.9069,-4.0752,-4.3212,-4.7682,-4.7832,0.0,0.0,0.0,0.0,0.0,0.0,0.0,0.0,0.0,0.0,-4.959,-4.959,-4.959,-4.959,-4.959,-4.959,-4.959,-4.8743,-4.8405,-4.8532,-4.7389,-4.6679,-4.626,-4.5827,-4.531,-4.4669,0.0,0.0,-4.4285,-4.4075,-4.3764,-4.3177,-4.1975,-4.0879,-3.9801,-3.876,-3.7978,-3.7529,0.0,0.0,0.0,0.0,0.0,0.0,0.0,-1.4192,-1.4445,-1.5009,-1.5009,-1.4574,-1.3664,-1.3245,-1.2993,0.0,0.0,0.0,0.0,0.0,0.0,0.0,0.0,0.0,0.0,0.0,0.0,0.0,0.0,0.0,0.0,0.0,0.0,0.0,0.0,0.0,0.0,0.0,0.0,0.0,0.0,0.0,0.0,0.0,0.0,0.0,0.0,0.0,-2.6919,-2.9386,-3.1872,-3.453,-3.8051,-4.0201,-4.1802,-4.3424,-4.3863,-4.4141,-4.5698,-4.6225,-4.605,-4.4895,-4.3212,-4.0905,-3.726,-3.4901,0.0,-3.0306,-3.0131,-3.0507,-3.0733,-3.229,-3.4525,0.0,-3.8843,-4.1229,-4.61,-4.6502,-4.7079,0.0,0.0,0.0,0.0,0.0,0.0,0.0,0.0,0.0,-4.959,-4.959,-4.959,-4.959,-4.959,-4.959,-4.959,-4.8779,-4.8387,-4.8451,-4.7494,-4.6841,-4.6527,-4.593,-4.5426,-4.5053,0.0,0.0,0.0,-4.4013,-4.3639,-4.3075,-4.1527,-4.0582,-3.9997,-3.8702,-3.8191,-3.8191,0.0,0.0,0.0,0.0,0.0,0.0,0.0,-1.4473,-1.5048,-1.587,-1.5605,-1.4946,-1.3894,-1.3582,-1.3301,0.0,0.0,0.0,0.0,0.0,0.0,0.0,0.0,0.0,0.0,0.0,0.0,0.0,0.0,0.0,0.0,0.0,0.0,0.0,0.0,0.0,0.0,0.0,0.0,0.0,0.0,0.0,0.0,0.0,0.0,0.0,0.0,0.0,0.0,0.0,0.0,-3.1454,-3.2965,-3.6567,-4.036,-4.1415,0.0,0.0,-4.5246,-4.5924,-4.605,-4.4895,-4.2635,-3.9923,-3.7061,0.0,-3.1888,-3.0156,-2.9829,-3.0156,-3.1135,-3.1888,-3.3596,-3.7387,-3.8542,-4.0578,-4.502,-4.6024,-4.6928,0.0,0.0,0.0,0.0,0.0,0.0,0.0,0.0,0.0,0.0,-4.959,-4.959,-4.959,-4.959,-4.959,-4.959,-4.8918,-4.8698,-4.8998,-4.797,-4.731,-4.7062,-4.6295,-4.5597,-4.5053,0.0,0.0,0.0,-4.4285,-4.3725,-4.2759,-4.1655,-4.0625,-3.9648,-3.857,-3.8191,-3.8191,0.0,0.0,0.0,0.0,0.0,0.0,-1.3977,-1.425,-1.4707,-1.5547,-1.5527,-1.5042,-1.4069,-1.3922,-1.3414,0.0,0.0,0.0,0.0,0.0,0.0,0.0,0.0,0.0,0.0,0.0,0.0,0.0,0.0,0.0,0.0,0.0,0.0,0.0,0.0,0.0,0.0,0.0,0.0,0.0,0.0,0.0,0.0,0.0,0.0,0.0,0.0,0.0,0.0,0.0,0.0,0.0,-2.9441,-3.1891,0.0,0.0,-4.0312,-4.1781,-4.389,-4.4869,-4.5095,-4.4317,-4.2057,-3.9295,-3.6486,0.0,-3.1763,-3.0131,-2.9804,-2.993,-3.0357,-3.0884,-3.219,-3.5077,-3.573,-3.7437,-4.1882,-4.2685,-4.394,0.0,0.0,0.0,0.0,0.0,0.0,0.0,0.0,0.0,0.0,-4.959,-4.959,-4.959,-4.9396,-4.9332,-4.9332,-4.8837,-4.8576,-4.842,-4.8026,-4.7496,-4.6899,-4.6239,-4.5645,-4.5053,0.0,0.0,0.0,-4.4285,-4.3725,-4.2696,-4.1719,-4.0603,-3.9583,-3.857,-3.8191,-3.8191,0.0,0.0,0.0,0.0,0.0,-1.3164,-1.3977,-1.4114,-1.4406,-1.5293,-1.5312,-1.4915,-1.4122,-1.3968,-1.3406,-1.2124,0.0,0.0,0.0,0.0,0.0,0.0,0.0,0.0,0.0,0.0,0.0,0.0,0.0,0.0,0.0,0.0,0.0,0.0,0.0,0.0,0.0,0.0,0.0,0.0,0.0,0.0,0.0,0.0,0.0,0.0,0.0,0.0,0.0,0.0,0.0,0.0,-2.6542,-2.7971,-3.0467,0.0,-3.7653,-3.9697,-4.1957,-4.3338,-4.3966,-4.3237,-4.0835,-3.7964,0.0,0.0,-3.1042,-2.9584,-2.9585,-2.9854,-3.0005,-3.0482,-3.1461,-3.3345,-3.4073,-3.5705,-3.9496,-4.045,0.0,0.0,0.0,0.0,0.0,0.0,0.0,0.0,0.0,0.0,0.0,-4.959,-4.959,-4.959,-4.9267,-4.9072,-4.9072,-4.8641,-4.8313,-4.8026,-4.7894,-4.743,-4.6704,-4.6175,-4.5645,0.0,0.0,0.0,0.0,-4.4285,-4.3639,-4.257,-4.1783,-4.069,-3.9451,-3.8636,-3.8304,-3.8191,0.0,0.0,0.0,0.0,0.0,0.0,0.0,-1.4114,-1.4406,-1.5293,-1.5039,-1.4561,-1.3892,-1.3632,-1.3215,-1.255,0.0,0.0,0.0,0.0,0.0,0.0,0.0,0.0,0.0,0.0,-1.7738,-1.7605,-2.0738,0.0,0.0,0.0,0.0,0.0,0.0,0.0,0.0,0.0,0.0,0.0,0.0,0.0,0.0,0.0,0.0,0.0,0.0,0.0,0.0,0.0,0.0,0.0,0.0,-2.5192,-2.7278,-3.1135,-3.5002,-3.8266,-3.9421,-4.1329,-4.2735,-4.1576,-3.8764,-3.5685,0.0,0.0,-2.9326,-2.8322,-2.9028,-2.9955,-3.0507,-3.1035,-3.1763,-3.2893,-3.4449,-3.626,-3.8567,-4.03,0.0,0.0,0.0,0.0,0.0,0.0,0.0,0.0,0.0,0.0,0.0,0.0,-4.959,-4.959,-4.9267,-4.9072,-4.9072,-4.8355,-4.8026,-4.8026,-4.763,-4.7233,-4.6704,-4.6175,0.0,0.0,0.0,0.0,0.0,-4.4285,-4.3514,-4.2293,-4.1934,-4.0712,-3.9144,-3.8814,-3.8503,-3.8191,0.0,0.0,0.0,0.0,0.0,0.0,0.0,-1.3281,-1.3477,-1.4043,-1.3984,-1.3827,-1.3616,-1.3542,-1.3303,-1.2832,0.0,0.0,0.0,0.0,0.0,0.0,0.0,0.0,0.0,0.0,-1.7933,-1.878,-2.0991,-2.2272,-2.2594,0.0,0.0,0.0,0.0,0.0,0.0,0.0,0.0,0.0,0.0,0.0,0.0,0.0,0.0,0.0,0.0,0.0,0.0,0.0,0.0,0.0,0.0,0.0,0.0,-2.7695,-3.1009,0.0,-3.631,-3.7638,-3.8416,-3.8065,-3.5941,-3.3481,-3.1783,-3.0457,-2.9326,-2.8298,-2.9028,-2.9854,-3.003,-3.0181,-3.1035,-3.3269,-3.4073,-3.5328,0.0,0.0,0.0,0.0,0.0,0.0,0.0,0.0,0.0,0.0,0.0,0.0,0.0,0.0,-4.959,-4.959,-4.9032,-4.8772,-4.8772,-4.7661,-4.7268,-4.763,-4.6841,-4.6343,-4.615,-4.5621,0.0,0.0,0.0,0.0,0.0,-4.4285,-4.3514,-4.2229,-4.1655,-4.0495,-3.9144,-3.857,-3.8304,-3.8191,0.0,0.0,0.0,0.0,0.0,0.0,0.0,-1.2915,-1.2993,-1.3242,-1.3262,-1.334,-1.3496,-1.3359,-1.3223,-1.3125,0.0,0.0,0.0,0.0,0.0,0.0,0.0,0.0,0.0,-1.6676,-1.8265,-1.9591,-2.1581,-2.2979,-2.3716,-2.306,-2.3014,0.0,0.0,0.0,0.0,0.0,0.0,0.0,0.0,0.0,-2.3496,0.0,0.0,0.0,0.0,0.0,0.0,0.0,0.0,0.0,0.0,0.0,0.0,0.0,-2.8147,0.0,-3.3319,-3.47,-3.5429,-3.5454,-3.3538,0.0,0.0,-2.9451,-2.8566,-2.8194,-2.9028,-2.9804,-2.9804,-2.9955,-3.0733,-3.2641,-3.3495,0.0,0.0,0.0,0.0,0.0,0.0,0.0,0.0,0.0,0.0,0.0,0.0,0.0,0.0,0.0,-4.9525,-4.9396,-4.8902,-4.86,-4.86,-4.732,-4.6872,-4.7185,-4.6343,-4.5814,-4.5621,0.0,0.0,0.0,0.0,0.0,0.0,-4.4285,-4.3639,-4.261,-4.1975,-4.0819,-3.9473,-3.8835,-3.8437,-3.8191,0.0,0.0,0.0,0.0,0.0,0.0,0.0,0.0,-1.2915,-1.2915,-1.2915,-1.3027,-1.3418,-1.3105,-1.3047,-1.3418,0.0,0.0,0.0,0.0,0.0,0.0,0.0,0.0,0.0,-1.6986,-1.8772,-2.0151,-2.2515,-2.4107,-2.4893,-2.3664,-2.337,-2.3898,-2.2087,-2.1978,0.0,0.0,0.0,0.0,0.0,0.0,0.0,0.0,0.0,0.0,0.0,0.0,0.0,0.0,0.0,0.0,0.0,0.0,0.0,0.0,0.0,0.0,0.0,-3.2265,-3.3495,-3.3433,0.0,0.0,-2.9541,-2.8364,0.0,-2.8002,-2.9028,-2.9804,-2.9905,-3.0306,-3.0859,-3.1562,0.0,0.0,0.0,0.0,0.0,0.0,0.0,0.0,0.0,0.0,0.0,0.0,0.0,0.0,0.0,0.0,0.0,-4.9137,-4.8698,-4.8502,-4.8461,-4.7271,-4.6655,-4.6655,-4.6078,-4.5573,-4.5077,0.0,0.0,0.0,0.0,0.0,0.0,-4.4285,-4.3888,-4.3263,-4.2483,-4.1399,-4.0127,-3.9407,-3.8702,-3.8191,0.0,0.0,0.0,0.0,0.0,0.0,0.0,0.0,0.0,0.0,-1.2915,-1.2954,-1.3052,-1.2974,-1.2954,0.0,0.0,0.0,0.0,0.0,0.0,0.0,0.0,0.0,0.0,-1.7704,-1.9568,-2.0705,-2.366,-2.5469,-2.6063,-2.5105,-2.429,-2.3586,-2.2731,-2.2606,-2.3095,0.0,0.0,0.0,0.0,0.0,0.0,0.0,0.0,0.0,-2.6097,-2.5787,0.0,0.0,0.0,0.0,0.0,0.0,0.0,0.0,-2.5458,0.0,-2.7827,0.0,-2.9361,-2.8946,-2.8549,-2.8115,0.0,-2.7856,-2.8357,-2.8163,-2.9028,-3.0055,-3.0859,-3.0783,-3.1446,0.0,0.0,0.0,0.0,0.0,0.0,0.0,0.0,0.0,0.0,0.0,0.0,0.0,0.0,0.0,0.0,0.0,0.0,-4.9112,-4.7957,-4.739,-4.7548,-4.6561,-4.6102,-4.6102,-4.5101,-4.4813,-4.5053,0.0,0.0,0.0,0.0,0.0,0.0,-4.4285,-4.3888,-4.3177,-4.1975,-4.1013,-4.0062,-3.8901,-3.8325,-3.8191,0.0,0.0,0.0,0.0,0.0,0.0,0.0,0.0,0.0,0.0,0.0,0.0,0.0,0.0,0.0,0.0,0.0,0.0,0.0,0.0,0.0,0.0,0.0,0.0,-1.5391,-1.7192,-1.93,-2.1668,-2.3773,-2.576,-2.7595,-2.5935,-2.4836,-2.4147,-2.3057,-2.2599,-2.2555,-2.2944,-2.3446,0.0,0.0,0.0,0.0,0.0,0.0,0.0,-2.6876,-2.6675,0.0,-2.6038,-2.5963,-2.5862,0.0,0.0,0.0,0.0,-2.5213,-2.6103,-2.6491,-2.7164,-2.7789,-2.7968,-2.8002,-2.7988,-2.8011,-2.8241,-2.8562,-2.884,-2.9365,-3.0055,-3.0884,-3.1009,0.0,0.0,-3.5182,0.0,0.0,0.0,0.0,0.0,0.0,0.0,0.0,0.0,0.0,0.0,0.0,0.0,0.0,0.0,0.0,0.0,-4.7184,-4.6816,-4.7223,-4.6086,-4.5549,-4.5486,-4.4669,-4.4429,-4.4693,0.0,0.0,0.0,0.0,0.0,-4.4285,-4.4285,-4.4099,-4.3639,-4.2293,-4.1335,-4.056,-3.9144,-3.8437,-3.8191,0.0,0.0,0.0,0.0,0.0,0.0,0.0,0.0,0.0,0.0,0.0,0.0,0.0,0.0,0.0,0.0,0.0,0.0,0.0,0.0,0.0,0.0,0.0,-1.464,-1.5556,-1.6499,-1.8748,-2.2321,-2.3546,-2.5583,-2.8346,-2.6379,-2.5188,-2.4672,-2.2988,-2.2151,-2.2027,-2.2807,-2.3498,0.0,-2.4732,0.0,0.0,0.0,0.0,0.0,0.0,0.0,0.0,-2.7379,-2.7293,-2.7168,-2.6575,0.0,0.0,0.0,0.0,0.0,-2.6191,-2.6832,-2.7708,-2.8496,-2.8533,-2.8569,-2.9365,-2.8949,-2.8673,-2.9724,-2.9905,-3.0156,-3.0959,-3.1537,0.0,0.0,0.0,0.0,0.0,0.0,0.0,0.0,0.0,0.0,0.0,0.0,0.0,0.0,0.0,0.0,0.0,0.0,0.0,0.0,-4.6402,-4.6382,-4.6851,-4.57,-4.5029,-4.4957,-4.4501,-4.4285,-4.4285,-4.4285,0.0,0.0,0.0,0.0,-4.4285,-4.4285,-4.4285,-4.4161,-4.2736,-4.1783,-4.1142,-3.9604,-3.866,-3.8067,0.0,0.0,0.0,0.0,0.0,0.0,0.0,0.0,0.0,0.0,0.0,0.0,0.0,0.0,0.0,0.0,0.0,0.0,0.0,0.0,0.0,0.0,-1.5124,-1.5273,-1.6473,-1.7673,-1.9225,-2.1061,-2.3831,-2.5475,-2.6081,-2.6483,-2.5534,-2.3495,-2.1666,-2.1463,-2.2447,-2.3028,-2.3815,-2.47,0.0,0.0,0.0,0.0,0.0,0.0,0.0,0.0,0.0,-2.7595,-2.7293,-2.7128,-2.6063,0.0,0.0,0.0,0.0,0.0,-2.7396,-2.8198,-2.8497,-2.7732,-2.8533,-2.9326,-2.8545,-2.8988,-2.971,-3.0342,-3.0482,-3.1085,-3.3043,-3.3847,-3.4901,0.0,0.0,0.0,0.0,0.0,0.0,0.0,0.0,0.0,0.0,0.0,0.0,0.0,0.0,0.0,0.0,0.0,0.0,0.0,0.0,-4.5164,-4.5444,-4.5213,-4.4861,-4.4405,-4.4333,-4.4285,-4.4285,-4.4285,-4.4285,0.0,0.0,0.0,-4.4285,-4.4285,-4.4285,-4.4099,-4.2229,-4.1399,-4.1077,-3.9078,-3.8075,-3.7484,0.0,0.0,0.0,0.0,0.0,0.0,0.0,0.0,0.0,0.0,0.0,0.0,0.0,0.0,0.0,0.0,0.0,0.0,0.0,0.0,0.0,-1.6991,-1.7172,-1.7645,-1.854,-1.9291,-2.0935,-2.3476,-2.477,-2.5998,-2.7077,-2.5973,-2.4164,-2.1828,-2.1199,-2.1393,-2.2305,-2.3005,-2.4056,-2.5259,0.0,0.0,0.0,0.0,0.0,0.0,0.0,0.0,0.0,0.0,-2.772,-2.7645,-2.7118,0.0,0.0,0.0,0.0,0.0,-2.7091,-2.8069,-2.8988,-2.9395,-3.0562,-3.1439,-3.0934,-3.1208,-3.1738,-3.2265,-3.239,-3.2893,0.0,0.0,-3.7412,-4.0224,0.0,0.0,0.0,0.0,0.0,0.0,0.0,0.0,0.0,0.0,0.0,0.0,0.0,0.0,0.0,0.0,0.0,0.0,0.0,0.0,-4.4251,-4.3986,-4.3866,-4.389,-4.389,-4.389,-4.3914,-4.4141,-4.4285,0.0,0.0,-4.4285,-4.4285,-4.4285,-4.4285,-4.4161,-4.2483,-4.1474,-4.0631,-3.8291,-3.7301,-3.7029,0.0,0.0,0.0,0.0,0.0,0.0,0.0,0.0,0.0,0.0,0.0,0.0,0.0,0.0,0.0,0.0,0.0,0.0,0.0,0.0,-1.5322,-1.7333,-1.8948,-2.0244,-2.116,-2.1331,-2.2922,-2.595,-2.5841,-2.648,-2.7705,-2.5039,-2.2696,-2.0742,-2.0956,-2.1307,-2.1724,-2.2639,-2.3878,-2.5252,0.0,0.0,0.0,0.0,0.0,0.0,0.0,0.0,0.0,0.0,0.0,0.0,0.0,0.0,0.0,-2.6903,-2.6664,-2.6726,-2.704,-2.8087,-2.9503,-3.1009,-3.2039,-3.2817,-3.3345,-3.347,-3.3696,-3.45,-3.4675,-3.4977,0.0,-3.7688,0.0,-4.2886,0.0,0.0,0.0,0.0,0.0,0.0,0.0,0.0,0.0,0.0,0.0,0.0,0.0,0.0,0.0,0.0,0.0,0.0,0.0,0.0,-4.3337,-4.2832,-4.2832,-4.3337,-4.3337,-4.3337,-4.3361,-4.3914,-4.4093,-4.4093,-4.4237,-4.4213,-4.4093,-4.4093,-4.4021,-4.3778,-4.2388,-4.1004,-3.9591,-3.7424,-3.6575,-3.6426,0.0,0.0,0.0,0.0,0.0,0.0,0.0,0.0,0.0,0.0,0.0,0.0,0.0,0.0,0.0,0.0,0.0,0.0,0.0,0.0,-1.5092,-1.6266,-1.947,-2.2217,-2.4306,-2.4075,-2.4745,-2.6425,-2.6766,-2.6556,-2.5867,-2.3629,-2.2114,-2.1132,-2.0801,-2.0679,-2.0751,-2.1687,-2.295,-2.4348,-2.4825,0.0,0.0,0.0,0.0,0.0,0.0,0.0,0.0,0.0,0.0,0.0,0.0,0.0,-2.9329,-2.9232,-2.827,-2.7469,-2.8437,-2.9201,-3.0005,-3.111,-3.1461,-3.2064,-3.4123,-3.4555,-3.5052,-3.6634,-3.6935,-3.7136,0.0,-4.0023,-4.2489,0.0,0.0,0.0,0.0,0.0,0.0,0.0,0.0,0.0,0.0,0.0,0.0,0.0,0.0,0.0,0.0,0.0,0.0,0.0,0.0,0.0,-4.2867,-4.2303,-4.2303,-4.2867,-4.2867,-4.2867,-4.2891,-4.3337,-4.3577,-4.3601,-4.4069,-4.3997,-4.3577,-4.3577,-4.3289,-4.276,-4.1076,-3.9258,-3.7445,-3.6518,-3.5973,-3.5595,0.0,0.0,0.0,0.0,0.0,0.0,0.0,0.0,0.0,0.0,0.0,0.0,0.0,0.0,0.0,0.0,0.0,0.0,0.0,0.0,-1.4878,-1.6547,-1.8862,-2.1689,-2.5063,-2.6391,-2.7734,-2.9102,-2.7427,-2.6328,-2.5635,-2.3471,-2.2207,-2.1602,-2.0918,-2.1086,-2.1916,-2.1979,-2.2852,-2.4182,-2.4082,-2.4671,0.0,0.0,0.0,0.0,0.0,0.0,0.0,0.0,-2.9571,-3.0358,-3.0121,-2.9804,-2.9566,-2.9936,-2.8737,-2.7444,-2.8222,-2.9101,-3.0131,-3.1562,-3.2692,-3.3947,-3.583,-3.6784,-3.7764,-3.9421,-4.0049,-4.0503,0.0,0.0,0.0,0.0,0.0,0.0,0.0,0.0,0.0,0.0,0.0,0.0,0.0,0.0,0.0,0.0,0.0,0.0,0.0,0.0,0.0,0.0,0.0,0.0,0.0,-4.1749,-4.1581,-4.1774,-4.211,-4.2338,-4.2338,-4.2808,-4.3048,-4.3048,-4.3265,-4.3241,-4.3048,-4.3048,-4.2928,-4.2532,-4.0167,-3.8273,-3.6729,-3.5476,-3.5124,-3.5084,0.0,0.0,0.0,0.0,0.0,0.0,0.0,0.0,0.0,0.0,0.0,0.0,0.0,0.0,0.0,0.0,0.0,0.0,-1.2915,-1.3286,-1.4258,-1.5953,-1.7795,-2.0438,-2.4038,-2.6818,-2.8996,-3.0532,-2.7902,-2.613,-2.5226,-2.3398,-2.2363,-2.2051,-2.1309,-2.157,-2.2448,-2.208,-2.2661,-2.3689,-2.336,-2.377,0.0,0.0,0.0,0.0,0.0,0.0,0.0,0.0,-2.9674,-3.0659,-3.0797,-3.045,-3.0192,-3.0878,-2.9532,-2.7896,-2.8273,-2.9076,-3.0105,-3.1386,-3.3219,-3.5303,-3.7487,-3.8843,-4.0124,-4.1781,-4.2133,-4.2363,-4.2886,0.0,0.0,0.0,0.0,0.0,0.0,0.0,0.0,0.0,0.0,0.0,0.0,0.0,0.0,0.0,0.0,0.0,0.0,0.0,0.0,0.0,0.0,0.0,0.0,-4.1365,-4.1172,-4.1196,-4.1557,-4.1725,-4.1749,-4.2338,-4.2578,-4.2578,-4.2747,-4.2723,-4.2578,-4.2578,-4.2221,-4.1496,-3.9484,-3.7772,-3.6393,-3.5273,-3.4859,-3.4797,0.0,0.0,0.0,0.0,0.0,0.0,0.0,0.0,0.0,0.0,0.0,0.0,0.0,0.0,0.0,0.0,0.0,0.0,-1.2915,-1.2915,-1.3262,-1.4075,-1.6391,-1.881,-2.1198,-2.4985,-2.802,-3.0198,-2.7938,-2.6013,-2.4375,-2.3125,-2.2519,-2.25,-2.209,-2.1894,-2.1894,-2.1894,-2.2211,-2.2712,-2.2691,-2.3031,-2.3644,0.0,0.0,0.0,0.0,0.0,0.0,0.0,-2.9931,-3.1246,-3.1693,-3.1522,-3.1389,-3.2307,-3.0844,-2.8888,-2.8888,-2.9352,-2.9955,-3.0507,-3.2717,-3.5629,-3.8944,-4.0551,-4.1752,-4.3463,-4.2961,-4.2414,-4.2911,-4.3463,0.0,0.0,0.0,0.0,0.0,0.0,0.0,0.0,0.0,0.0,0.0,0.0,0.0,0.0,0.0,0.0,0.0,0.0,0.0,0.0,0.0,0.0,0.0,-4.1172,-4.1172,-4.1172,-4.1172,-4.1172,-4.1196,-4.1725,-4.1966,-4.199,-4.2578,-4.2506,-4.1966,-4.1966,-4.0952,-3.9249,-3.893,-3.7796,-3.6361,-3.6055,-3.5479,-3.4859,0.0,0.0,0.0,0.0,0.0,0.0,0.0,0.0,0.0,0.0,0.0,0.0,0.0,0.0,0.0,0.0,0.0,0.0,-1.2915,-1.2915,-1.3262,-1.4075,-1.5091,-1.6576,-1.8507,-2.2003,-2.5347,-2.8578,-2.6292,-2.5133,-2.5091,-2.393,-2.3501,-2.368,-2.3018,-2.2598,-2.2305,-2.2012,-2.218,-2.2507,-2.1889,-2.216,-2.3003,0.0,0.0,0.0,0.0,0.0,0.0,0.0,0.0,0.0,-3.1216,-3.1293,-3.1162,-3.1055,-3.0006,-2.8813,-2.8448,-2.9603,-3.116,-3.2114,-3.5027,-3.8191,-4.035,-4.0802,-4.1555,-4.4392,-4.5045,-4.502,-4.4794,0.0,0.0,0.0,0.0,0.0,0.0,0.0,0.0,0.0,0.0,0.0,0.0,0.0,0.0,0.0,0.0,0.0,0.0,0.0,0.0,0.0,0.0,0.0,0.0,0.0,-4.1172,-4.1172,-4.1172,-4.1172,-4.1196,-4.1341,-4.1413,-4.1437,-4.1581,-4.1557,-4.1413,-4.1413,-4.0621,-3.9249,-3.867,-3.7473,-3.5993,-3.5418,-3.4922,-3.4548,0.0,0.0,0.0,0.0,0.0,0.0,0.0,0.0,0.0,0.0,-1.2005,-1.2641,0.0,0.0,0.0,0.0,0.0,0.0,0.0,-1.3661,-1.4114,-1.4794,-1.523,-1.6345,-1.8183,-2.0313,-2.2691,-2.5311,-2.4893,-2.4781,-2.4912,-2.4568,-2.4833,-2.5635,-2.4585,-2.4098,-2.3964,-2.3205,-2.2754,-2.2461,-2.1953,-2.1988,-2.245,0.0,0.0,0.0,0.0,0.0,0.0,0.0,0.0,0.0,-3.0635,-3.0749,-3.0655,-3.0724,-3.0017,-2.9302,-2.9377,-3.0532,-3.2139,-3.3966,-3.6681,-3.9421,-4.1505,-4.2434,-4.3514,0.0,-4.62,-4.6024,-4.6125,0.0,0.0,0.0,0.0,0.0,0.0,0.0,0.0,0.0,0.0,0.0,0.0,0.0,0.0,0.0,0.0,0.0,0.0,0.0,0.0,0.0,0.0,0.0,0.0,0.0,0.0,-4.0547,-4.0547,-4.0547,-4.0571,-4.0787,-4.098,-4.1172,-4.1172,-4.0956,-4.0571,-4.0787,-4.0114,-3.8928,-3.8349,-3.7072,-3.5577,-3.5023,-3.4513,-3.4161,0.0,0.0,0.0,0.0,0.0,0.0,0.0,0.0,0.0,0.0,-1.1469,-1.2369,0.0,0.0,0.0,0.0,0.0,0.0,0.0,0.0,-1.5468,-1.6057,-1.6462,-1.7576,-1.9432,-1.9665,-2.0309,-2.1403,-2.3755,-2.4675,-2.432,-2.5013,-2.6233,-2.7764,-2.6337,-2.5859,-2.5975,-2.48,-2.3633,-2.2559,-2.2519,-2.2285,-2.2058,-2.2839,0.0,0.0,0.0,0.0,0.0,0.0,0.0,0.0,-2.9839,-2.9982,-2.9947,-3.0768,-3.0405,-3.0005,-3.1035,-3.1788,-3.2968,-3.5776,-3.7938,-4.0023,-4.2685,-4.4844,-4.6577,-4.7506,0.0,-4.5999,0.0,0.0,0.0,0.0,0.0,0.0,0.0,0.0,0.0,0.0,0.0,0.0,0.0,0.0,0.0,0.0,0.0,0.0,0.0,0.0,0.0,0.0,0.0,0.0,0.0,0.0,0.0,0.0,-3.9609,-3.9609,-3.9633,-4.009,-4.0595,-4.1028,-4.1028,-4.0499,-3.9633,-4.0058,-3.9514,-3.8378,-3.7919,-3.6742,-3.5194,-3.4774,-3.4221,-3.3719,0.0,0.0,0.0,0.0,0.0,0.0,0.0,0.0,0.0,0.0,0.0,0.0,0.0,0.0,0.0,0.0,0.0,0.0,0.0,0.0,-1.588,-1.7345,-1.7884,-1.8512,-1.9321,-1.9029,-1.9689,-2.1403,-2.2184,-2.3426,-2.4992,-2.5419,-2.6202,-2.7253,-2.6194,-2.52,-2.4292,-2.3644,-2.3218,-2.2925,-2.2637,-2.2461,-2.2344,-2.2241,-2.2534,0.0,0.0,0.0,0.0,0.0,0.0,0.0,-2.7933,-2.8895,-2.9742,-2.9492,-2.958,-2.993,-3.0608,-3.1813,-3.3545,-3.6355,-3.9898,-4.3237,-4.5171,-4.5974,-4.625,-4.605,-4.6753,0.0,0.0,0.0,0.0,0.0,0.0,0.0,0.0,0.0,0.0,0.0,0.0,0.0,0.0,0.0,0.0,0.0,0.0,0.0,0.0,0.0,0.0,0.0,0.0,0.0,-3.9777,-3.9657,-3.9609,0.0,-3.9609,-3.9609,-3.9609,-3.9729,-3.9826,-3.9946,-3.9946,-3.9826,-3.9554,-3.9204,-3.8634,-3.7873,-3.7303,-3.6289,-3.5028,-3.4707,-3.4015,-3.3296,0.0,0.0,0.0,0.0,0.0,0.0,0.0,0.0,0.0,0.0,0.0,0.0,0.0,0.0,0.0,0.0,0.0,0.0,0.0,0.0,0.0,-1.9269,-2.0059,-2.0399,-2.0303,-2.0538,-2.1275,-2.2491,-2.2878,-2.4041,-2.59,-2.6713,-2.7415,-2.792,-2.6949,-2.5805,-2.4642,-2.3974,-2.3471,-2.3081,-2.2847,-2.2769,-2.275,-2.2559,-2.2661,0.0,0.0,0.0,0.0,0.0,0.0,0.0,0.0,0.0,-2.8308,-2.8475,-2.8925,-2.9628,-3.0683,-3.2014,-3.3997,-3.7814,-4.1304,-4.4091,-4.5246,-4.5497,-4.5422,-4.5121,-4.5974,0.0,0.0,0.0,0.0,0.0,0.0,0.0,0.0,0.0,0.0,0.0,0.0,0.0,0.0,0.0,0.0,0.0,0.0,0.0,0.0,0.0,0.0,0.0,0.0,0.0,-3.9224,-3.896,-3.8815,-3.8815,-3.8815,-3.8815,-3.8839,-3.9369,-3.932,-3.8864,-3.9393,-3.932,-3.8839,-3.8776,-3.8208,-3.7346,-3.6646,-3.5479,-3.4169,-3.3668,-3.2967,-3.2355,0.0,0.0,0.0,0.0,0.0,0.0,0.0,0.0,0.0,0.0,0.0,0.0,0.0,0.0,0.0,0.0,0.0,0.0,0.0,0.0,0.0,-2.0843,-2.1926,-2.2241,-2.1741,-2.2567,-2.3347,-2.4064,-2.4596,-2.5683,-2.731,-2.8086,-2.8592,-2.8858,-2.767,-2.6609,-2.5501,-2.4561,-2.3744,-2.3101,-2.3101,-2.3101,-2.3101,0.0,0.0,0.0,0.0,0.0,0.0,0.0,0.0,0.0,0.0,0.0,-2.6764,-2.7594,-2.8275,-2.9151,-3.0809,-3.2491,-3.4851,-3.927,-4.1957,-4.3664,-4.4217,-4.4342,-4.4367,-4.4468,0.0,0.0,0.0,0.0,0.0,0.0,0.0,0.0,0.0,0.0,0.0,0.0,0.0,0.0,0.0,0.0,0.0,0.0,0.0,0.0,0.0,0.0,0.0,0.0,0.0,-3.8671,-3.8671,-3.8214,-3.7974,-3.7974,-3.7974,-3.7974,-3.8022,-3.8912,-3.8839,-3.8022,-3.8936,-3.8815,-3.8022,-3.8263,-3.7801,-3.6796,-3.5921,-3.4675,-3.3261,-3.2543,-3.1951,-3.1465,0.0,0.0,0.0,0.0,0.0,0.0,0.0,0.0,0.0,0.0,-1.2995,-1.4291,0.0,0.0,0.0,0.0,0.0,0.0,0.0,0.0,0.0,-2.0485,-2.1768,-2.269,-2.3038,-2.3276,-2.41,-2.5525,-2.6557,-2.8101,-3.0044,-2.8514,-2.8202,-2.8751,-2.7019,-2.5957,-2.5349,-2.3903,-2.3198,-2.3101,-2.3101,-2.3101,-2.3101,0.0,0.0,0.0,0.0,0.0,0.0,0.0,-2.3186,0.0,0.0,0.0,0.0,-2.6764,-2.7471,-2.8574,-3.0256,-3.3621,-3.7136,-3.927,-4.1103,-4.2564,0.0,0.0,-4.3338,0.0,0.0,0.0,0.0,0.0,0.0,0.0,0.0,0.0,0.0,0.0,0.0,0.0,0.0,0.0,0.0,0.0,0.0,0.0,0.0,0.0,0.0,0.0,-3.8695,-3.8214,-3.8118,0.0,-3.8094,-3.8022,-3.7974,-3.7974,-3.7974,-3.7974,-3.7998,-3.8142,-3.8118,-3.7998,-3.8142,-3.8118,-3.7945,-3.6998,-3.6533,-3.626,-3.5146,-3.4108,-3.3167,-3.2763,-3.2096,-3.1347,0.0,0.0,0.0,0.0,0.0,0.0,0.0,0.0,0.0,0.0,0.0,-1.5101,0.0,0.0,0.0,0.0,0.0,0.0,0.0,0.0,0.0,-2.1188,-2.24,-2.3406,-2.4108,-2.514,-2.6118,-2.7078,-2.7901,-2.9241,-3.1019,-3.0143,-2.9785,-2.9772,-2.8654,-2.7172,-2.5459,-2.4481,-2.3671,-2.3101,-2.3101,-2.3188,0.0,0.0,0.0,0.0,0.0,0.0,0.0,0.0,0.0,0.0,0.0,0.0,0.0,0.0,-2.5975,-2.7434,-3.0273,-3.3144,-3.5881,-3.8191,-3.9772,-4.1078,-4.2313,-4.2283,-4.2308,0.0,0.0,0.0,0.0,0.0,0.0,0.0,0.0,0.0,0.0,0.0,0.0,0.0,0.0,0.0,0.0,0.0,0.0,0.0,0.0,0.0,0.0,-3.8359,-3.8238,-3.7998,-3.7974,0.0,-3.7974,-3.7974,-3.7974,-3.7974,-3.7974,-3.7974,-3.7974,-3.7974,-3.7974,-3.7974,-3.7974,-3.7974,-3.7921,-3.7066,-3.6603,-3.6223,-3.5157,-3.3987,-3.2856,-3.2571,-3.1845,-3.1073,0.0,0.0,0.0,0.0,0.0,0.0,0.0,0.0,0.0,0.0,0.0,0.0,0.0,0.0,0.0,0.0,0.0,0.0,0.0,0.0,0.0,-2.1195,-2.2311,-2.3475,-2.4616,-2.6144,-2.7329,-2.8097,-2.88,-3.0055,-3.1813,-3.1964,-3.2017,-3.2015,-3.0769,-2.8869,-2.6606,-2.5915,-2.5144,-2.4341,-2.4054,-2.4036,0.0,0.0,0.0,0.0,0.0,0.0,0.0,0.0,0.0,0.0,0.0,0.0,0.0,0.0,0.0,-2.6428,-2.9357,-3.1697,-3.3822,-3.6157,-3.7814,-3.9245,0.0,0.0,0.0,0.0,0.0,0.0,0.0,0.0,0.0,0.0,0.0,0.0,0.0,0.0,0.0,0.0,0.0,0.0,0.0,0.0,0.0,0.0,0.0,0.0,-3.7998,-3.7974,-3.7974,-3.7974,-3.7974,-3.7974,-3.7974,-3.7853,-3.7781,-3.7781,-3.7623,-3.7498,-3.7379,-3.7482,-3.7583,-3.7623,-3.7873,-3.7974,-3.7921,-3.7173,-3.6657,-3.6223,-3.5212,-3.3909,-3.2685,-3.2399,-3.173,-3.0898,0.0,0.0,0.0,0.0,0.0,0.0,0.0,0.0,0.0,0.0,0.0,0.0,0.0,0.0,-1.8149,-1.7383,-1.7305,-1.7181,-1.6809,-1.8332,-1.93,-1.9441,-2.0654,0.0,-2.4194,-2.5314,-2.6627,-2.8097,-2.9202,-3.0859,-3.2993,-3.352,-3.4625,-3.5962,-3.2759,-3.0691,-2.9503,-2.8391,-2.7916,-2.7739,-2.6716,0.0,0.0,0.0,0.0,0.0,0.0,0.0,0.0,0.0,0.0,0.0,0.0,0.0,0.0,0.0,0.0,0.0,-2.6665,-2.914,-3.1813,-3.3043,-3.4997,-3.6883,0.0,0.0,0.0,0.0,0.0,0.0,0.0,0.0,0.0,0.0,0.0,0.0,0.0,0.0,0.0,0.0,0.0,0.0,0.0,0.0,0.0,0.0,0.0,0.0,-3.7974,-3.7974,-3.7974,-3.7974,-3.7974,-3.7974,-3.7974,-3.7493,-3.7228,-3.7228,-3.6654,-3.6132,-3.5737,-3.6193,-3.6433,-3.652,-3.7546,-3.7974,-3.7921,-3.6796,-3.6332,-3.6168,-3.5013,-3.3784,-3.2685,-3.2685,-3.1903,-3.0898,0.0,0.0,0.0,0.0,0.0,0.0,0.0,0.0,0.0,0.0,0.0,0.0,0.0,-1.8676,-1.8481,-1.8223,-1.8184,-1.8242,-1.8359,-1.8969,-1.955,-2.0121,-2.0892,-2.2218,-2.4163,-2.5266,-2.6566,-2.8097,-2.8875,-3.0181,-3.1989,-3.219,-3.2792,-3.3696,-3.3201,-3.2357,-3.1212,-2.9033,-2.7893,-2.7509,-2.6604,0.0,0.0,0.0,0.0,0.0,0.0,0.0,0.0,0.0,0.0,0.0,0.0,0.0,0.0,0.0,0.0,-2.3817,-2.6014,-2.771,-2.9493,-3.1939,-3.3922,-3.5604,-3.6709,0.0,0.0,0.0,0.0,0.0,0.0,0.0,0.0,0.0,0.0,0.0,0.0,0.0,0.0,0.0,0.0,0.0,0.0,0.0,0.0,0.0,0.0,0.0,-3.7974,-3.7974,-3.7829,-3.7493,-3.7469,-3.73,-3.6964,-3.6771,-3.6699,-3.6675,-3.6109,-3.5944,-3.6033,-3.5855,-3.6002,-3.6379,-3.6727,-3.7334,-3.7921,-3.6742,-3.6332,-3.6168,-3.4568,-3.3445,-3.2628,-3.2305,-3.1614,-3.0898,0.0,0.0,0.0,0.0,0.0,0.0,0.0,0.0,0.0,0.0,0.0,0.0,0.0,0.0,-1.9609,-1.9316,-1.9104,-1.9121,-1.9277,-1.9297,-1.9627,-2.0328,-2.0687,-2.1867,-2.3909,-2.4831,-2.62,-2.8097,-2.8612,-2.9779,-3.1386,-3.1587,-3.2064,-3.2792,-3.3169,-3.3027,-3.2414,-3.0937,-2.9888,-2.9183,0.0,0.0,-2.7975,0.0,0.0,0.0,0.0,0.0,0.0,0.0,0.0,0.0,0.0,0.0,0.0,0.0,0.0,0.0,-2.4566,0.0,0.0,0.0,0.0,-3.3721,-3.5203,0.0,0.0,0.0,0.0,0.0,0.0,0.0,0.0,0.0,0.0,0.0,0.0,0.0,0.0,0.0,0.0,0.0,0.0,0.0,0.0,0.0,0.0,0.0,-3.7974,-3.7805,-3.7469,-3.694,-3.6916,-3.6771,-3.6411,-3.6218,-3.6146,-3.6146,-3.5588,-3.5301,-3.523,-3.5031,-3.507,-3.5283,-3.5466,-3.6279,-3.7334,-3.6363,-3.5982,-3.5872,-3.4457,-3.3388,-3.2628,-3.2248,-3.1556,-3.0898,0.0,0.0,0.0,0.0,0.0,0.0,0.0,0.0,0.0,0.0,0.0,0.0,0.0,0.0,0.0,-2.0723,-2.0215,-1.9805,-1.9394,-1.9392,-1.9568,-1.9979,-2.0017,-2.1114,-2.3503,-2.4071,-2.5569,-2.8097,-2.8612,-2.9754,-3.1361,-3.1888,-3.2742,-3.3746,-3.2667,-3.2491,-3.3136,-3.4148,-3.3997,-3.3011,0.0,-3.1042,-3.0601,0.0,0.0,0.0,-2.9781,-2.8595,0.0,-2.5988,0.0,0.0,0.0,0.0,0.0,0.0,0.0,0.0,0.0,0.0,0.0,0.0,0.0,0.0,0.0,0.0,0.0,0.0,0.0,0.0,0.0,0.0,0.0,0.0,0.0,0.0,0.0,0.0,0.0,0.0,0.0,0.0,0.0,0.0,0.0,0.0,0.0,-3.795,-3.795,-3.7445,-3.6916,-3.6386,-3.6362,-3.6362,-3.6362,-3.5857,-3.5593,-3.5543,-3.5044,-3.4233,-3.3265,-3.3682,-3.3653,-3.3256,-3.375,-3.4834,-3.6177,-3.563,-3.5411,-3.5323,-3.4736,-3.3784,-3.2685,-3.2685,-3.1903,-3.0898,0.0,0.0,0.0,0.0,0.0,0.0,0.0,0.0,0.0,0.0,0.0,0.0,-2.1855,-2.1894,-2.1797,-2.1543,-2.1406,-2.1289,-2.1172,-2.1906,-2.2214,-2.195,-2.2696,-2.3564,-2.4564,-2.5128,-2.6273,-2.8097,-2.8612,-2.9377,-3.0231,-3.0382,-3.0834,-3.1537,-3.1587,-3.1712,-3.1838,-3.1361,0.0,-3.2943,-3.1272,-3.1431,0.0,0.0,0.0,0.0,0.0,-2.9612,-2.8551,0.0,-2.716,-2.5976,0.0,0.0,0.0,0.0,0.0,0.0,-2.206,0.0,0.0,0.0,0.0,0.0,0.0,0.0,0.0,0.0,0.0,0.0,0.0,0.0,0.0,0.0,0.0,0.0,0.0,0.0,0.0,0.0,0.0,0.0,0.0,0.0,0.0,0.0,0.0,-3.7421,-3.7421,-3.6555,-3.5978,-3.5833,-3.5473,-3.5256,-3.5256,-3.5112,-3.4991,-3.4991,-3.4499,-3.407,-3.3747,-3.3531,-3.3309,-3.314,-3.3272,-3.3599,-3.4026,-3.4652,-3.5064,-3.5323,-3.4233,-3.3388,-3.2628,-3.219,-3.1556,-3.0898,0.0,0.0,0.0,0.0,0.0,0.0,0.0,0.0,0.0,0.0,0.0,0.0,-2.2383,-2.2578,-2.2539,-2.2168,-2.2148,-2.207,-2.1894,-2.2879,-2.3377,-2.3063,-2.4095,-2.5012,-2.5635,-2.5957,-2.6869,-2.8411,-2.8737,-2.9227,-2.9804,-2.9804,-2.9955,-3.0281,-3.0583,-3.0733,-3.0683,0.0,0.0,0.0,-3.2039,0.0,0.0,-3.2581,-3.2512,0.0,0.0,0.0,-3.0767,-2.995,-2.8688,0.0,0.0,0.0,0.0,0.0,0.0,0.0,0.0,0.0,0.0,0.0,0.0,0.0,0.0,-2.9873,0.0,0.0,0.0,0.0,0.0,0.0,0.0,0.0,0.0,0.0,0.0,0.0,0.0,0.0,0.0,0.0,0.0,0.0,0.0,0.0,-3.7036,-3.6771,-3.6555,-3.5954,-3.5521,-3.5304,-3.4943,-3.4775,-3.4775,-3.4775,-3.4775,-3.4775,-3.4237,-3.3907,-3.3632,-3.3124,-3.2716,-3.2459,-3.2459,-3.259,-3.2862,-3.3466,-3.4136,-3.4626,-3.393,-3.3275,-3.2685,-3.2285,-3.1614,-3.0898,0.0,0.0,0.0,0.0,0.0,0.0,0.0,0.0,0.0,0.0,0.0,-2.3318,-2.3521,-2.3875,0.0,0.0,-2.2617,-2.2464,-2.2239,-2.3226,-2.387,-2.3926,-2.4993,-2.5962,-2.6764,-2.6812,-2.7516,-2.8888,-2.8963,-2.9277,-2.9804,-2.9804,-2.9804,-2.9804,0.0,0.0,-2.9804,0.0,0.0,-3.2215,-3.3294,-3.3765,0.0,0.0,-3.491,-3.4198,-3.4782,-3.4105,-3.2738,-3.1424,-2.9849,0.0,0.0,0.0,0.0,0.0,-2.4639,0.0,0.0,0.0,0.0,0.0,0.0,0.0,-2.7718,-2.8285,-2.8745,0.0,0.0,0.0,0.0,0.0,0.0,0.0,0.0,0.0,0.0,0.0,0.0,0.0,0.0,0.0,0.0,0.0,0.0,-3.6411,-3.6338,-3.6098,-3.5545,-3.5521,-3.5255,-3.4799,-3.4775,-3.4775,-3.4775,-3.4775,-3.4775,-3.4775,-3.4335,-3.3793,-3.3197,-3.2723,-3.2167,-3.1629,-3.1629,-3.187,-3.2306,-3.2306,-3.2799,-3.3617,-3.3661,-3.3223,-3.2509,-3.255,-3.1903,-3.0898,0.0,0.0,0.0,0.0,0.0,0.0,0.0,0.0,0.0,0.0,-2.7323,-2.7325,-2.64,-2.6124,0.0,0.0,-2.3223,-2.3358,-2.4177,-2.5287,-2.6134,-2.6535,-2.7603,-2.8039,-2.7804,-2.8226,-2.8612,-2.8888,-2.9402,-2.9679,-2.9804,-2.9804,-2.9804,-2.9804,-2.9804,-2.9804,-2.9854,0.0,0.0,-3.1612,-3.2265,0.0,-3.5506,-3.5351,-3.5147,-3.4991,-3.5137,-3.4581,-3.3547,0.0,-3.0395,-2.8572,0.0,0.0,0.0,0.0,0.0,0.0,0.0,0.0,0.0,0.0,0.0,0.0,-2.5141,-2.6265,-2.7687,0.0,0.0,0.0,0.0,0.0,0.0,0.0,0.0,0.0,0.0,0.0,0.0,0.0,0.0,0.0,0.0,0.0,-3.5954,-3.6362,-3.6002,-3.5545,-3.4967,-3.4943,-3.4895,-3.4775,-3.4775,-3.4775,-3.4775,-3.4775,-3.4775,-3.4775,-3.4677,-3.4139,-3.3197,-3.3097,-3.2544,-3.1629,-3.1629,-3.1673,-3.176,-3.176,-3.2036,-3.2543,-3.2928,-3.2399,-3.1455,-3.1819,-3.1518,-3.0898,0.0,0.0,0.0,0.0,0.0,0.0,0.0,0.0,0.0,-2.9363,-3.0033,-3.0073,-2.898,-2.838,0.0,0.0,0.0,0.0,0.0,-2.6666,-2.7405,-2.7664,-2.8765,-2.9227,-2.895,-2.9227,-2.9352,-2.9352,-2.9654,-2.9804,-2.9804,-2.9804,-2.9503,-2.8976,-2.9553,-2.9478,-2.9026,0.0,-3.106,-3.1913,-3.3018,0.0,-3.5771,-3.5926,-3.6008,-3.5941,-3.5722,-3.4921,-3.3837,-3.2675,-3.1653,0.0,0.0,-2.9195,-2.8631,0.0,-2.7259,-2.6994,0.0,0.0,0.0,-2.4007,0.0,0.0,0.0,-2.5232,-2.6084,-2.7009,0.0,0.0,0.0,0.0,0.0,0.0,0.0,0.0,0.0,0.0,0.0,0.0,0.0,0.0,0.0,0.0,-3.4559,-3.4823,-3.4607,-3.4438,-3.439,-3.439,-3.451,-3.4775,-3.4775,-3.4775,-3.4775,-3.4775,-3.4775,-3.4775,-3.4531,-3.4139,-3.3595,-3.3024,-3.2521,-3.1964,-3.1403,-3.1197,-3.1197,-3.0909,-3.0716,-3.0752,-3.1803,-3.1864,-3.1445,-3.1445,-3.1204,-3.0898,0.0,0.0,0.0,0.0,0.0,0.0,0.0,0.0,-3.1158,-3.195,-3.2653,-3.2665,-3.1642,-3.0881,0.0,0.0,0.0,0.0,0.0,-2.7806,-2.814,-2.8242,-2.9252,-2.9754,-2.9628,-2.9729,-2.9804,-2.9804,-2.9804,-2.9804,-2.9804,-2.9804,-2.9302,-2.8473,-2.9377,-2.9352,-2.8649,0.0,0.0,-3.2516,0.0,-3.5006,-3.5608,-3.6545,-3.6798,-3.6652,-3.6161,-3.5211,-3.4054,-3.3208,0.0,-3.2999,-3.1351,-3.1294,0.0,0.0,0.0,0.0,0.0,0.0,0.0,0.0,0.0,-2.5376,0.0,0.0,0.0,-2.5715,0.0,0.0,0.0,0.0,0.0,0.0,0.0,0.0,0.0,0.0,0.0,0.0,0.0,0.0,0.0,0.0,-3.3114,-3.3284,-3.3234,-3.3403,-3.3814,-3.3934,-3.4198,-3.4607,-3.4727,-3.4775,-3.4775,-3.4775,-3.4775,-3.4775,-3.4384,-3.4089,-3.3991,-3.2974,-3.242,-3.2218,-3.1249,-3.0733,-3.0578,-3.0203,-2.972,-2.9346,-3.0671,-3.1271,-3.1334,-3.1054,-3.091,-3.0898,-2.6415,-2.7675,0.0,0.0,0.0,0.0,0.0,0.0,-3.2596,-3.4145,-3.5675,-3.6185,0.0,0.0,0.0,0.0,0.0,0.0,-3.0,0.0,-2.8288,-2.8799,-2.9426,-2.9553,-2.8988,-2.9528,-2.9804,-2.9804,-2.9804,-2.9804,-2.9804,-2.9804,-2.9729,-2.9603,-2.9729,-3.0005,-3.0357,0.0,-3.1888,0.0,-3.4248,-3.5006,0.0,-3.6712,-3.6847,-3.6407,-3.6112,-3.5429,-3.4703,0.0,-3.4132,-3.343,0.0,-3.1951,0.0,0.0,0.0,0.0,0.0,0.0,0.0,0.0,-2.7258,0.0,0.0,0.0,-2.4371,-2.6074,0.0,0.0,0.0,0.0,0.0,0.0,0.0,0.0,0.0,0.0,0.0,0.0,0.0,0.0,0.0,0.0,0.0,-3.3212,-3.301,-3.3032,-3.3356,-3.3742,-3.4006,-3.4078,-3.4534,-3.4775,-3.4775,-3.4775,-3.4775,-3.4775,-3.4726,-3.4482,-3.3991,-3.3396,-3.2594,-3.168,-3.1043,-3.0547,-3.0099,-3.0047,-2.9905,-2.9735,-2.9938,-2.9919,-2.9858,-3.0192,-3.0546,-3.0898,-2.7669,-2.8513,0.0,0.0,0.0,0.0,0.0,0.0,-3.5579,-3.696,-3.8567,-3.9878,0.0,0.0,0.0,0.0,0.0,-3.2882,0.0,0.0,0.0,-3.0317,-3.0005,-2.9829,-2.9905,-2.9829,-2.9804,-2.9804,-2.9804,-2.9804,-2.9804,-2.9804,-2.9453,-2.885,-2.9829,0.0,-3.0206,0.0,-3.2516,0.0,0.0,0.0,0.0,-3.6718,-3.6603,-3.6137,-3.6014,-3.5454,-3.48,0.0,-3.467,0.0,0.0,0.0,0.0,0.0,0.0,0.0,0.0,0.0,0.0,0.0,0.0,0.0,0.0,0.0,-2.4413,0.0,0.0,0.0,0.0,0.0,0.0,0.0,0.0,0.0,0.0,0.0,0.0,0.0,0.0,0.0,0.0,0.0,0.0,0.0,0.0,-3.2015,-3.2367,-3.314,-3.3741,-3.3982,-3.4198,-3.4462,-3.4775,-3.4462,-3.4486,-3.4775,-3.4775,-3.4677,-3.4433,-3.3273,-3.2471,-3.1964,-3.0474,-2.9711,-2.9448,-2.9132,-2.8987,-2.8951,-2.9208,-2.9557,-2.9922,-2.9863,-3.0273,-3.0898,-2.8922,0.0,0.0,0.0,0.0,0.0,0.0,0.0,0.0,0.0,0.0,0.0,-4.5309,-4.4094,0.0,0.0,-4.0079,-3.7219,0.0,0.0,-3.1712,0.0,0.0,0.0,0.0,-3.0156,-2.9955,-2.9804,-2.9804,-2.9804,-2.9804,-2.9804,-2.9352,-2.8624,-3.0156,-3.0683,-3.0557,0.0,-3.342,-3.465,-3.5454,-3.6107,-3.6659,-3.7095,-3.6776,-3.6137,-3.6356,-3.577,-3.4921,-3.4868,-3.5206,0.0,-3.3657,0.0,0.0,0.0,0.0,0.0,-3.1822,0.0,0.0,0.0,0.0,0.0,0.0,0.0,0.0,0.0,0.0,0.0,0.0,0.0,0.0,0.0,0.0,0.0,0.0,0.0,0.0,0.0,0.0,0.0,0.0,0.0,0.0,0.0,-3.0361,0.0,-3.1452,-3.2391,-3.314,-3.3766,-3.391,-3.4246,-3.4775,-3.439,-3.439,-3.4775,-3.4775,-3.4775,-3.4726,-3.3273,-3.2471,-3.2044,-3.0162,-2.9185,-2.8867,-2.8441,-2.8301,-2.834,-2.875,-2.9375,-3.0,-2.9805,-3.0234,-3.0898,-3.0442,-3.0116,-2.9804,-2.9765,-3.0217,0.0,0.0,0.0,0.0,0.0,0.0,0.0,0.0,0.0,0.0,0.0,0.0,-3.9844,-3.9549,0.0,-3.2541,0.0,0.0,-3.0859,0.0,0.0,-3.0331,-2.9804,-2.9804,-2.9804,-2.9804,-2.9804,-2.9779,-2.9779,-3.0884,-3.1662,-3.2215,-3.337,-3.4801,-3.6329,-3.6355,-3.6707,-3.7262,0.0,-3.7517,-3.6481,-3.7246,0.0,0.0,-3.5787,-3.5812,0.0,0.0,0.0,0.0,0.0,0.0,0.0,0.0,0.0,0.0,-3.1814,0.0,0.0,0.0,0.0,-2.5811,0.0,0.0,0.0,0.0,0.0,0.0,0.0,0.0,0.0,0.0,0.0,0.0,0.0,0.0,0.0,0.0,0.0,0.0,0.0,-2.934,0.0,-3.085,-3.1452,-3.2247,-3.3284,-3.3742,-3.4246,-3.4775,-3.4751,-3.4751,-3.4775,-3.4775,-3.4775,-3.4775,-3.3694,-3.2622,-3.1586,-3.0443,-2.9363,-2.8335,-2.8301,-2.8301,-2.834,-2.875,-2.9199,-2.9629,-3.0039,-3.0488,-3.0898,0.0,-3.0733,-3.0859,-3.0859,-3.0708,0.0,0.0,-3.6678,0.0,0.0,0.0,0.0,0.0,-5.1386,-5.0803,0.0,0.0,-4.4423,-4.1125,-3.8049,0.0,0.0,0.0,-3.3269,0.0,0.0,0.0,0.0,-3.0331,-3.0156,-2.9804,-2.9804,-2.9804,-2.9854,-3.0909,-3.1913,0.0,0.0,0.0,0.0,0.0,-3.7688,-3.8768,0.0,0.0,-3.6725,-3.7143,-3.6652,0.0,-3.6161,-3.5867,-3.5234,-3.4508,-3.4358,-3.4277,-3.3671,-3.3546,0.0,0.0,0.0,-3.405,-3.2599,0.0,0.0,0.0,0.0,0.0,0.0,0.0,0.0,0.0,0.0,0.0,0.0,0.0,0.0,0.0,0.0,0.0,0.0,0.0,0.0,0.0,0.0,0.0,-2.8475,-2.8758,-2.9165,0.0,-3.1043,-3.1886,-3.2247,-3.2731,-3.3428,-3.4246,-3.3982,-3.415,-3.4775,-3.4775,-3.4628,-3.4237,-3.2801,-3.1739,-3.0991,-2.9501,-2.8674,-2.8301,-2.8301,-2.8301,-2.834,-2.875,-2.918,-2.9685,-3.0039,-3.0488,-3.0898,-3.0934,-3.116,0.0,0.0,0.0,0.0,0.0,0.0,0.0,0.0,-4.7267,0.0,-5.4756,0.0,-5.4044,0.0,-5.1428,-4.8163,-4.3913,-4.1261,0.0,-3.7888,-3.6558,0.0,0.0,0.0,0.0,0.0,0.0,-3.0909,-3.0357,-3.0181,-3.0181,-3.0407,-3.1286,-3.219,-3.3169,-3.4474,-3.5655,0.0,0.0,-3.8115,0.0,0.0,-3.7116,0.0,0.0,-3.7097,-3.6161,-3.6333,-3.5868,-3.5114,-3.4487,-3.4389,-3.4407,-3.3879,-3.3851,-3.3966,-3.3863,-3.4113,0.0,0.0,-3.269,0.0,-2.9618,0.0,0.0,0.0,0.0,0.0,0.0,0.0,0.0,0.0,0.0,0.0,0.0,0.0,0.0,0.0,0.0,0.0,0.0,0.0,-2.6867,-2.7493,-2.8055,-2.8572,0.0,0.0,-3.1332,-3.1693,-3.2202,-3.2899,-3.3765,-3.3621,-3.3885,-3.451,-3.4533,-3.4237,-3.3671,-3.2246,-3.1176,-3.0401,-2.9132,-2.8495,-2.8301,-2.8301,-2.8301,-2.8359,-2.8926,-2.9316,-2.9685,-3.0039,-3.0488,-3.0898,-3.1562,-3.1512,0.0,0.0,-3.3201,0.0,0.0,0.0,-4.6588,0.0,-5.1293,-5.4017,-5.6912,-5.6401,-5.6384,-5.7608,-5.4233,-5.0851,-4.7944,-4.4967,0.0,0.0,-3.8542,-3.7186,-3.4977,0.0,0.0,0.0,0.0,-3.1938,-3.1386,-3.0884,-3.0909,-3.1386,-3.1964,0.0,-3.3093,-3.4731,-3.606,-3.7186,-3.7739,-3.799,-3.7889,-3.6857,0.0,-3.8515,-3.8768,-3.7817,-3.6432,-3.6456,-3.5893,-3.5138,-3.4872,-3.4438,-3.403,-3.403,-3.403,-3.3958,-3.3756,-3.4021,-3.4214,-3.3371,0.0,0.0,0.0,0.0,-3.018,0.0,0.0,0.0,0.0,0.0,0.0,0.0,0.0,0.0,0.0,0.0,0.0,0.0,0.0,0.0,0.0,-2.6336,-2.6527,-2.6708,-2.7164,-2.7813,0.0,0.0,0.0,-3.1597,-3.213,-3.2683,-3.3236,-3.367,-3.3934,-3.3959,-3.3904,-3.3648,-3.3101,-3.2015,-3.094,-2.9828,-2.927,-2.8761,-2.8301,-2.8301,-2.8301,-2.8379,-2.9219,-2.957,-2.9704,-3.0078,-3.0508,-3.0898,-3.2667,-3.3294,-3.3947,0.0,-3.5642,-3.729,0.0,0.0,0.0,0.0,-5.2733,-5.5311,-5.704,-5.705,-5.6852,-5.6766,-5.4137,0.0,0.0,0.0,0.0,-4.2585,-4.1605,-4.0126,-3.7864,-3.6985,0.0,-3.3244,0.0,0.0,-3.1386,-3.126,-3.106,-3.0859,-3.1788,-3.2064,-3.1938,-3.3621,-3.5203,-3.6681,-3.7186,-3.7638,0.0,0.0,-3.7439,-3.8116,-3.8241,-3.7567,-3.675,-3.6973,-3.6235,-3.5138,-3.4872,-3.4679,-3.4583,-3.4583,-3.4583,-3.4583,-3.4511,-3.4583,-3.4607,-3.4165,-3.3749,-3.3238,0.0,0.0,0.0,0.0,0.0,0.0,0.0,0.0,0.0,0.0,0.0,0.0,0.0,0.0,0.0,0.0,0.0,0.0,0.0,0.0,-2.5896,-2.6648,-2.6476,0.0,0.0,0.0,0.0,-3.047,-3.1023,-3.1745,-3.2683,-3.262,-3.2887,-3.3409,-3.2871,-3.2384,-3.1964,-3.0867,-2.9932,-2.927,-2.8761,-2.8441,-2.8301,-2.8301,-2.8301,-2.834,-2.8887,-2.9473,-3.0098,-3.0547,-3.0781,-3.0898,-3.36,-3.5102,0.0,-3.6609,0.0,0.0,-4.1651,0.0,0.0,-5.1373,-5.3772,0.0,-5.6575,-5.7021,-5.6938,-5.6049,-5.49,0.0,-5.1422,0.0,0.0,-4.5463,-4.4056,-4.2103,-3.9647,-3.8241,0.0,-3.4248,0.0,0.0,-3.1738,-3.1512,-3.1361,-3.1336,-3.1938,-3.219,-3.224,-3.3922,-3.5429,-3.6807,-3.7061,0.0,0.0,-3.7036,-3.7161,-3.7638,-3.7638,-3.7441,-3.7097,-3.6949,-3.6309,-3.5478,-3.4944,-3.4775,-3.4775,-3.4775,-3.4775,-3.4775,-3.4775,-3.4775,-3.4751,-3.4607,-3.4364,-3.3976,-3.343,-3.3179,-3.2629,0.0,0.0,0.0,0.0,0.0,0.0,0.0,0.0,0.0,0.0,0.0,0.0,0.0,0.0,0.0,0.0,0.0,0.0,0.0,0.0,0.0,0.0,0.0,0.0,0.0,-3.11,-3.1878,-3.213,-3.3044,-3.3291,-3.2887,-3.2457,-3.1901,-3.1197,-3.0057,-2.927,-2.8708,-2.8441,-2.8301,-2.8301,-2.8301,-2.8301,-2.8359,-2.8965,-2.9726,-3.0527,-3.0801,-3.0898,-3.0898,-3.4889,-3.7222,0.0,0.0,0.0,0.0,0.0,-4.8267,0.0,-5.3392,0.0,-5.5849,-5.5983,-5.6778,-5.6852,-5.5761,0.0,-5.5135,-5.2459,-5.1976,-5.0582,-4.7863,-4.6,-4.3738,-4.0883,-3.9145,0.0,0.0,0.0,0.0,-3.2315,-3.1763,-3.1763,-3.2215,-3.229,0.0,0.0,-3.47,-3.5909,0.0,-3.7036,-3.7111,-3.7136,-3.6631,-3.6757,-3.7186,-3.7186,-3.7341,-3.7394,-3.6702,-3.6284,-3.5891,-3.5137,-3.4847,-3.4775,-3.4775,-3.4775,-3.4775,-3.4775,-3.4775,-3.4775,-3.4775,-3.4775,-3.4631,-3.3831,-3.3223,-3.2779,-3.2396,-3.0348,0.0,0.0,0.0,0.0,0.0,0.0,0.0,0.0,0.0,0.0,0.0,0.0,0.0,0.0,0.0,0.0,0.0,0.0,0.0,0.0,0.0,0.0,0.0,-3.1515,0.0,-3.1954,0.0,-3.4174,-3.2747,-3.2347,-3.1695,-3.0733,-2.9554,-2.8761,-2.8301,-2.8301,-2.8301,-2.8301,-2.8301,-2.8359,-2.8535,-2.9277,-3.0117,-3.0898,-3.0898,-3.0898,-3.0898,-3.826,0.0,0.0,0.0,0.0,-4.8144,-4.8377,-5.1421,-5.4172,-5.5216,-5.7424,-5.8436,-5.7158,-5.7196,-5.7197,-5.6993,-5.6107,0.0,0.0,0.0,0.0,-4.9631,-4.7775,-4.5563,-4.2718,-4.0485,-3.8316,0.0,0.0,0.0,-3.2918,-3.234,-3.2114,-3.224,-3.2717,0.0,-3.3162,-3.3872,0.0,-3.5834,-3.6332,-3.6832,-3.7136,-3.6631,-3.6757,-3.7186,-3.7186,-3.7116,-3.6973,-3.7022,-3.6602,-3.5964,-3.5546,-3.5184,-3.4775,-3.4775,-3.4775,-3.4775,-3.4775,-3.4775,-3.4775,-3.4775,-3.4775,-3.4655,-3.4054,-3.3547,-3.3088,-3.2557,-3.1408,-3.0043,-2.8746,0.0,0.0,0.0,0.0,0.0,0.0,0.0,0.0,0.0,0.0,0.0,0.0,0.0,0.0,0.0,0.0,0.0,0.0,0.0,0.0,0.0,0.0,0.0,0.0,0.0,0.0,-3.4099,-3.1855,-3.0758,-3.0733,-2.9185,-2.8388,-2.8301,-2.8301,-2.8301,-2.8301,-2.8301,-2.8711,-2.9411,-2.9567,-3.0117,-3.0898,-3.0898,-3.0898,-3.0898,-4.1815,0.0,0.0,0.0,0.0,0.0,0.0,-5.3866,0.0,-5.5775,-5.6275,-5.6595,-5.6543,-5.6962,-5.7053,-5.6366,-5.6366,-5.585,-5.4527,-5.3375,-5.2198,-5.0966,-4.8919,0.0,-4.4448,-4.1874,-3.9348,-3.6784,0.0,0.0,0.0,-3.234,-3.2215,-3.224,0.0,-3.3395,0.0,0.0,0.0,-3.6408,-3.6684,-3.7111,-3.7588,-3.7312,-3.7211,-3.7236,-3.7513,-3.7242,-3.6824,-3.6776,-3.6626,-3.6328,-3.5763,-3.5449,-3.5183,-3.5183,-3.5183,-3.5184,-3.4895,-3.4775,-3.4775,-3.4775,-3.4775,-3.4703,-3.4462,-3.3837,-3.3212,-3.2971,-3.1817,-3.0358,-2.8533,-2.7376,0.0,0.0,0.0,0.0,0.0,0.0,0.0,0.0,0.0,0.0,0.0,0.0,0.0,0.0,0.0,0.0,0.0,0.0,0.0,0.0,0.0,0.0,0.0,0.0,0.0,-3.2981,-3.1488,-3.0499,-2.99,-2.8814,-2.8301,-2.8301,-2.8301,-2.8301,-2.8301,-2.8301,-2.8672,-2.9258,-2.9473,-2.9961,-3.0566,-3.0801,-3.0898,-3.0898,0.0,-4.5204,0.0,0.0,-4.9418,0.0,-5.3445,-5.5339,-5.6563,-5.6362,-5.5162,-5.4768,-5.5987,-5.6834,-5.6879,-5.5876,-5.6708,-5.645,-5.4536,-5.4063,-5.3332,-5.2097,-4.9872,-4.7625,-4.5448,-4.299,-4.0287,0.0,0.0,0.0,0.0,0.0,0.0,0.0,0.0,0.0,0.0,0.0,-3.5855,-3.7362,-3.7362,-3.7688,-3.8191,-3.804,-3.7814,-3.7588,-3.7889,-3.7617,-3.7072,-3.6555,-3.6504,-3.6522,-3.5787,-3.5617,-3.5593,-3.5473,-3.5521,-3.5497,-3.4968,-3.4775,-3.4775,-3.4775,-3.4775,-3.4751,-3.4631,-3.403,-3.338,-3.3164,-3.1937,-3.04,-2.8953,-2.8327,0.0,0.0,0.0,0.0,0.0,0.0,0.0,0.0,0.0,0.0,0.0,0.0,0.0,0.0,0.0,0.0,0.0,0.0,0.0,0.0,0.0,0.0,-3.1875,0.0,-3.4181,0.0,-3.1455,-3.0474,-2.9237,-2.8601,-2.8301,-2.8301,-2.8301,-2.8301,-2.8301,-2.8301,-2.8594,-2.9101,-2.9434,-2.9883,-3.0391,-3.0762,-3.0898,-3.0898,0.0,0.0,0.0,0.0,0.0,0.0,0.0,-5.5367,-5.7421,-5.7971,-5.6938,-5.6394,-5.7073,-5.7216,-5.7247,-5.7134,-5.7247,-5.7218,-5.6991,-5.5418,-5.3979,-5.279,-5.0867,-4.8222,-4.4888,-4.3573,-4.1027,0.0,0.0,0.0,0.0,0.0,0.0,0.0,0.0,0.0,0.0,-3.5207,-3.6386,-3.7939,-3.7939,-3.8266,-3.8793,-3.8216,-3.8291,-3.8693,-3.8191,-3.8091,-3.8064,-3.6801,-3.6259,-3.6037,-3.5691,-3.5617,-3.5521,-3.504,-3.5232,-3.5497,-3.4968,-3.4775,-3.4775,-3.4775,-3.4775,-3.4655,-3.4174,-3.3982,-3.3646,-3.2755,-3.1564,-3.0706,-3.0888,-3.0344,-2.9731,0.0,0.0,0.0,0.0,0.0,0.0,0.0,0.0,0.0,0.0,0.0,0.0,0.0,0.0,0.0,0.0,0.0,0.0,0.0,0.0,-3.2138,-3.3735,-3.3529,0.0,-3.4101,-3.1885,-3.0474,-2.9775,-2.8761,-2.8301,-2.8301,-2.8301,-2.8301,-2.8301,-2.8301,-2.8769,-2.9567,-2.9551,-3.0078,-3.084,-3.0879,-3.0898,-3.084,0.0,0.0,0.0,0.0,0.0,0.0,0.0,-5.5564,-5.6365,-5.6795,-5.691,-5.7021,-5.7247,-5.7303,-5.7078,-5.6509,-5.6964,-5.6279,-5.3884,-5.426,-5.3556,-5.1229,-5.0751,-4.9403,-4.6939,-4.5092,-4.2578,0.0,0.0,0.0,0.0,0.0,0.0,0.0,0.0,-3.45,-3.5232,-3.6157,-3.7111,-3.804,-3.8391,-3.8868,-3.9346,-3.9094,-3.8969,-3.8894,-3.8994,-3.8367,-3.7419,-3.7417,-3.6773,-3.5964,-3.5667,-3.5833,-3.5978,-3.5449,-3.5665,-3.5905,-3.5015,-3.4775,-3.4775,-3.4775,-3.4775,-3.4727,-3.451,-3.4222,-3.3886,-3.3454,-3.2277,-3.122,-3.1038,-3.0616,-3.0097,0.0,0.0,0.0,0.0,0.0,0.0,0.0,0.0,0.0,0.0,0.0,0.0,0.0,0.0,0.0,0.0,0.0,0.0,-2.8149,0.0,-3.1181,-3.1592,-3.2213,-3.2208,-3.1693,-3.0537,-2.9638,-2.89,-2.8495,-2.8301,-2.8301,-2.8301,-2.8301,-2.8301,-2.8301,-2.8652,-2.9199,-2.9473,-2.9941,-3.0508,-3.0781,-3.0898,-3.082,-5.4233,0.0,-5.2741,0.0,-5.4516,-5.4488,-5.5503,-5.5875,-5.5991,-5.6049,-5.6794,-5.7303,-5.7303,-5.7303,-5.6908,-5.5847,-5.6366,-5.5451,-5.2434,-5.3223,-5.2814,-5.0582,-5.058,0.0,-4.7561,-4.5919,-4.3515,-4.0262,-3.8515,0.0,0.0,0.0,0.0,0.0,-3.5027,-3.5604,-3.6285,-3.7086,-3.7839,-3.8542,-3.8944,-3.9346,-3.9697,-3.9697,-3.9446,-3.9145,-3.9371,-3.8517,-3.7295,-3.7713,-3.7091,-3.6207,-3.5907,-3.6098,-3.6338,-3.5954,-3.6122,-3.6218,-3.5304,-3.4895,-3.4775,-3.4775,-3.4775,-3.4775,-3.4775,-3.4486,-3.4174,-3.403,-3.2899,-3.1837,-3.1408,-3.1057,-3.0604,0.0,0.0,0.0,0.0,0.0,0.0,0.0,0.0,-2.2129,-2.1775,0.0,0.0,0.0,0.0,0.0,0.0,0.0,0.0,0.0,0.0,0.0,0.0,0.0,-3.1073,-2.9932,-2.9565,-2.9026,-2.8301,-2.8301,-2.8301,-2.8301,-2.8301,-2.8301,-2.8301,-2.8418,-2.873,-2.916,-2.959,-3.0019,-3.0449,-3.0762,-3.0898,-3.0762,-5.4828,-5.5738,-5.6508,-5.5963,-5.6619,-5.676,-5.5231,-5.6308,-5.7078,-5.6451,-5.6908,-5.7303,-5.7303,-5.7303,-5.6765,-5.5528,-5.5412,-5.5178,-5.4469,-5.2779,-5.1832,0.0,0.0,-4.8622,-4.5705,-4.5649,-4.3743,-3.9697,0.0,0.0,-3.6405,0.0,0.0,-3.638,-3.638,-3.696,-3.799,-3.799,-3.8642,-3.9672,-3.9672,-3.9697,-3.9697,-3.9697,-3.9697,-3.9622,-3.9069,-3.8692,-3.8263,-3.7465,-3.7017,-3.6765,-3.6488,-3.6386,-3.6411,-3.6386,-3.6386,-3.629,-3.5761,-3.5232,-3.4775,-3.4775,-3.4775,-3.4775,-3.4775,-3.4775,-3.4631,-3.4102,-3.3166,-3.2491,-3.2491,-3.201,-3.1568,-3.121,0.0,0.0,0.0,0.0,0.0,0.0,-2.3387,-2.3081,-2.3081,0.0,0.0,0.0,0.0,0.0,0.0,0.0,0.0,-2.8078,-2.9343,0.0,-2.9733,-3.0414,-3.0526,-2.9859,-2.9375,-2.8814,-2.8301,-2.8301,-2.8301,-2.8301,-2.8301,-2.8301,-2.832,-2.875,-2.916,-2.9609,-3.0019,-3.0469,-3.0879,-3.0898,-3.0898,-3.0762,-5.6476,-5.6791,-5.7049,-5.6908,-5.7109,-5.6881,-5.5787,-5.6222,-5.6509,-5.6106,-5.6451,-5.668,-5.668,-5.7078,-5.6908,0.0,-5.6308,-5.5447,0.0,-5.312,-5.2543,-4.9976,-5.0329,-4.9725,-4.8036,-4.647,-4.4877,-4.3146,0.0,0.0,0.0,-3.6983,-3.6983,-3.6935,-3.7312,-3.7889,-3.8617,-3.8994,-3.9371,-3.9697,-3.9697,-3.9697,-3.9697,-3.9697,-3.9697,-3.9672,-3.9496,-3.894,-3.8232,-3.8275,-3.7526,-3.6633,-3.7304,-3.7228,-3.6867,-3.6507,-3.6651,-3.6747,-3.5857,-3.5497,-3.528,-3.4871,-3.4775,-3.4775,-3.4775,-3.4775,-3.4631,-3.4102,-3.3742,-3.3332,-3.2635,-3.2346,-3.2102,-3.1636,0.0,0.0,0.0,0.0,0.0,0.0,0.0,-2.3721,0.0,-2.3265,0.0,0.0,0.0,0.0,0.0,0.0,0.0,0.0,-2.9172,0.0,-2.9006,-2.9415,-2.9375,-2.8794,-2.8654,-2.8461,-2.8301,-2.8301,-2.8301,-2.832,-2.8594,-2.8711,-2.875,-2.918,-2.9609,-3.0,-3.0137,-3.0353,-3.0567,-3.0567,-3.0392,-3.0157,-5.7303,-5.7021,-5.6794,-5.6794,-5.6794,-5.6566,-5.5991,-5.6394,-5.668,-5.6451,-5.6623,-5.6623,-5.6394,-5.6737,0.0,-5.544,-5.547,0.0,-5.1854,-5.2318,-5.1716,-4.9427,-5.0075,-4.9791,-4.8471,0.0,0.0,-4.445,-4.1455,-3.9471,-3.8442,-3.8216,-3.814,-3.814,-3.8693,-3.9145,-3.9521,-3.9848,-3.9998,-3.9973,-3.9772,-3.9697,-3.9697,-3.9697,-3.9697,-3.9697,-3.9697,-3.9214,-3.8578,-3.8742,-3.8087,-3.7263,-3.7834,-3.7757,-3.7421,-3.7084,-3.7084,-3.7012,-3.6146,-3.5761,-3.5497,-3.4919,-3.4775,-3.4775,-3.4775,-3.4775,-3.4679,-3.4366,-3.4126,-3.379,-3.3212,-3.2755,-3.2394,-3.2034,0.0,0.0,0.0,0.0,0.0,0.0,0.0,0.0,0.0,-2.4055,0.0,0.0,0.0,0.0,0.0,0.0,0.0,-2.8166,-2.8559,0.0,-2.833,-2.8665,-2.8601,-2.8301,-2.8301,-2.8379,-2.8535,-2.8535,-2.8613,-2.8789,-2.9043,-2.916,-2.9199,-2.9629,-2.9961,-3.0215,-3.0391,-3.0451,-3.0392,-3.0392,-3.0216,-2.9863,-5.7303,-5.6623,0.0,0.0,-5.5991,0.0,-5.5991,-5.6737,-5.7303,-5.7303,-5.7303,-5.7078,-5.6394,-5.6337,-5.5875,-5.4616,0.0,0.0,0.0,-5.0799,-4.9848,-4.9863,-4.9825,0.0,-4.7362,-4.6734,-4.5567,-4.3797,-4.1648,-4.0601,-4.0551,-4.0049,-3.9798,-3.9823,-4.035,-4.0551,-4.0526,-4.0551,-4.0551,-4.0475,-3.9998,-3.9798,-3.9798,-3.9772,-3.9747,-3.9747,-3.9697,-3.9542,-3.9258,-3.8893,-3.8631,-3.8368,-3.808,-3.7974,-3.7974,-3.7974,-3.7637,-3.7132,-3.6603,-3.6074,-3.5545,-3.4967,-3.4847,-3.4775,-3.4775,-3.4775,-3.4775,-3.4775,-3.439,-3.403,-3.4006,-3.326,-3.2587,-3.2515,-3.1854,-3.0937,-2.9891,0.0,0.0,0.0,0.0,0.0,0.0,-2.5378,-2.4941,0.0,0.0,0.0,0.0,0.0,0.0,-2.7125,-2.7708,-2.7964,-2.7748,-2.8105,-2.8301,-2.834,-2.8359,-2.8594,-2.8965,-2.8965,-2.918,-2.9626,-2.9646,-2.9609,-2.9648,-3.0078,-3.0234,-3.0293,-3.0723,-3.0704,-3.0392,-3.0392,-3.0157,-2.9804,0.0,0.0,-5.6964,-5.6964,-5.6964,-5.6964,-5.6964,-5.7191,-5.7303,-5.7303,-5.7303,-5.6908,-5.5845,-5.5729,-5.5351,-5.4556,-5.4199,-5.3571,-5.257,-5.1574,-5.0519,-4.9193,-4.9161,-4.8781,-4.7989,-4.6596,-4.474,-4.2608,-4.2066,-4.1555,-4.11,-4.0949,-4.0899,-4.0953,-4.1025,-4.0849,-4.0551,-4.0924,-4.0849,-4.0551,-4.0827,-4.0899,-4.0902,-4.0475,-4.0325,-4.0275,-3.9848,-3.9542,-3.9258,-3.8893,-3.8631,-3.8368,-3.808,-3.7974,-3.7974,-3.7974,-3.7902,-3.7685,-3.7156,-3.6627,-3.6098,-3.5569,-3.5087,-3.4775,-3.4775,-3.4775,-3.4775,-3.4775,-3.4679,-3.4462,-3.4054,-3.379,-3.3358,-3.2635,-3.1944,-3.1301,-3.0606,0.0,0.0,0.0,-2.8031,-2.7226,-2.7083,-2.6148,-2.5527,0.0,0.0,0.0,0.0,0.0,-2.71,-2.7321,-2.7975,-2.8269,-2.8144,-2.8242,-2.8457,-2.8769,-2.9101,-2.9316,-2.9414,-2.9414,-2.9473,-2.9646,-2.9902,-3.0059,-3.0078,-3.0547,-3.0723,-3.0742,-3.0859,-3.0528,-3.0039,-3.0039,-2.9686,-2.9213,-5.7303,-5.7303,-5.7303,-5.7303,-5.7303,-5.7303,-5.7303,-5.7303,-5.7303,-5.7303,-5.7078,-5.6509,-5.5613,-5.4939,-5.4318,-5.3658,-5.3356,-5.2964,-5.2508,-5.1096,-4.9731,-4.8517,-4.8483,-4.818,-4.7399,-4.6231,-4.4566,-4.259,-4.2338,-4.2062,-4.1706,-4.1401,-4.1275,-4.13,-4.1605,-4.1555,-4.1279,-4.158,-4.1404,-4.0874,-4.1175,-4.1125,-4.0874,-4.0626,-4.0526,-4.045,-3.9898,-3.9594,-3.9413,-3.8945,-3.8684,-3.8526,-3.8133,-3.7974,-3.7974,-3.7974,-3.7974,-3.7853,-3.7348,-3.6988,-3.6579,-3.5809,-3.54,-3.5087,-3.4847,-3.4967,-3.5184,-3.5184,-3.5184,-3.5112,-3.4775,-3.4174,-3.3501,-3.2947,-3.203,-3.1303,-3.1033,-3.0204,0.0,-2.9759,-2.8542,-2.7675,-2.7788,-2.7071,-2.6543,-2.6278,0.0,0.0,-2.668,-2.7441,-2.7754,-2.7531,-2.8244,-2.8607,-2.8574,-2.8769,-2.8984,-2.9219,-2.9453,-2.9668,-2.9863,-2.9863,-2.998,-3.0195,-3.041,-3.0508,-3.0527,-3.0781,-3.0898,-3.0898,-3.0898,-3.047,-2.9922,-2.9922,-2.9509,-2.8975,-5.7303,-5.7303,-5.7303,-5.7303,-5.7303,-5.7247,-5.7191,-5.7134,-5.7021,-5.6908,-5.6394,-5.5817,-5.5116,-5.4052,-5.3086,-5.2527,-5.1846,-5.1695,-5.2201,-5.0176,-4.8636,-4.7933,-4.7958,-4.747,-4.6397,-4.5783,-4.4662,-4.2986,-4.2564,-4.2338,-4.2313,-4.1806,-4.1526,-4.1551,-4.2057,-4.2288,-4.2213,-4.2313,-4.1957,-4.1455,-4.1501,-4.1304,-4.0877,-4.0701,-4.0651,-4.0551,-3.9923,-3.9697,-3.9645,-3.905,-3.8841,-3.8736,-3.821,-3.8027,-3.7974,-3.7974,-3.7974,-3.7878,-3.7445,-3.7252,-3.6964,-3.5978,-3.5665,-3.5521,-3.516,-3.5352,-3.5641,-3.5713,-3.5665,-3.5617,-3.5617,-3.4414,-3.3358,-3.3217,-3.2075,-3.1161,-3.1019,0.0,0.0,-2.9852,-2.8712,-2.7987,-2.8238,-2.8038,-2.7761,-2.7422,-2.8008,0.0,0.0,-2.8437,-2.8691,-2.8022,-2.8652,-2.9023,-2.9023,-2.9453,-2.9668,-2.9668,-2.9726,-2.9961,-3.0293,-3.0293,-3.0508,-3.0898,-3.0898,-3.0898,-3.0898,-3.0898,-3.0879,-3.082,-3.082,-3.0411,-2.9863,-2.9863,-2.945,-2.8975,-5.7303,-5.7303,-5.7303,-5.7303,-5.7303,-5.7134,-5.6623,-5.6279,-5.5847,-5.5029,-5.4588,-5.4024,-5.3059,-5.2754,-5.2412,-5.1846,-5.1157,-5.0778,-5.0905,-5.0138,-4.9138,-4.7933,-4.7467,-4.695,-4.6295,-4.5263,-4.4206,-4.2986,-4.2886,-4.2916,-4.2836,-4.276,-4.2735,-4.2735,-4.2811,-4.264,-4.2238,-4.2715,-4.259,-4.2112,-4.2534,-4.266,-4.2484,-4.1555,-4.115,-4.1025,-4.0049,-3.9697,-3.9645,-3.931,-3.905,-3.8736,-3.8473,-3.8185,-3.7974,-3.7974,-3.7974,-3.7974,-3.7878,-3.7541,-3.7036,-3.6435,-3.5954,-3.5713,-3.6074,-3.5881,-3.5737,-3.6194,-3.593,-3.5617,-3.5617,-3.4631,-3.3577,-3.269,-3.1908,-3.1153,0.0,0.0,-2.9992,-2.9487,-2.9768,-2.9724,-2.9027,-2.8938,-2.8993,-2.9176,-2.8945,-2.8926,-2.916,-2.9355,-2.9414,-2.9333,-2.945,-2.9473,-2.9473,-2.9883,-3.0098,-3.0098,-3.0508,-3.0723,-3.0781,-3.0781,-3.082,-3.0898,-3.0898,-3.0898,-3.0898,-3.0898,-3.0704,-3.045,-3.045,-3.0098,-2.9568,-2.9568,-2.9331,-2.8975,-5.7303,-5.7303,-5.7303,-5.7303,-5.7303,-5.7021,-5.6279,-5.5991,-5.5556,-5.4616,-5.3872,-5.3241,-5.2815,-5.1979,-5.1382,-5.1094,-5.0778,-5.0461,-5.0104,-4.9267,-4.8496,-4.7908,-4.7129,-4.6426,-4.5874,-4.4769,-4.394,-4.3413,-4.3112,-4.2986,-4.2986,-4.2986,-4.2986,-4.2986,-4.2986,-4.2836,-4.2665,-4.2861,-4.2715,-4.2263,-4.276,-4.2635,-4.2032,-4.1476,-4.11,-4.0802,-3.9973,-3.9697,-3.9645,-3.9154,-3.8945,-3.8736,-3.8291,-3.808,-3.7974,-3.7974,-3.7974,-3.7974,-3.7974,-3.7805,-3.7493,-3.6964,-3.6651,-3.6459,-3.6411,-3.6435,-3.6531,-3.6771,-3.6627,-3.6386,-3.6098,-3.4938,-3.3713,-3.2906,-3.1786,0.0,0.0,-3.0331,-3.0171,-3.0897,-3.0364,-2.9964,-3.0045,-2.9619,-2.9415,-2.9607,-2.9375,-2.9355,-2.9607,-2.9785,-2.9902,-2.9902,-2.9902,-3.0019,-3.0273,-3.0469,-3.0566,-3.0566,-3.0781,-3.0898,-3.0898,-3.0898,-3.0898,-3.0898,-3.0898,-3.0898,-3.0898,-3.0704,-3.0509,-3.0392,-3.0216,-2.9863,-2.9509,-2.9509,-2.9272,-2.8975,-5.7303,-5.7303,-5.7303,-5.7303,-5.7303,-5.6964,-5.5933,-5.5701,-5.5147,-5.4079,-5.3086,-5.2412,-5.235,-5.1131,-5.0334,-5.0334,-5.0334,-5.0168,-4.9654,-4.8661,-4.8058,-4.7908,-4.6878,-4.5974,-4.5296,-4.4443,-4.3865,-4.3614,-4.3187,-4.2986,-4.2986,-4.2986,-4.2986,-4.2986,-4.2986,-4.2986,-4.2986,-4.2986,-4.2791,-4.2439,-4.2811,-4.2384,-4.1505,-4.1326,-4.1003,-4.045,-3.9898,-3.9645,-3.9542,-3.905,-3.8841,-3.8631,-3.8185,-3.8027,-3.7974,-3.7974,-3.7974,-3.7974,-3.7974,-3.7974,-3.7878,-3.7469,-3.7276,-3.7108,-3.6843,-3.6988,-3.7228,-3.7348,-3.7276,-3.706,-3.6675,-3.5363,-3.4155,-3.3434,0.0,0.0,0.0,-3.1002,-3.0819,-3.2325,-3.1123,-3.0434,-3.1017,-3.0378,-2.9934,-2.992,-2.9883,-2.9883,-2.9883,-3.0176,-3.0351,-3.0351,-3.0351,-3.0527,-3.0879,-3.0898,-3.0898,-3.0898,-3.0898,-3.0898,-3.0898,-3.0898,-3.0898,-3.0898,-3.0898,-3.0898,-3.0879,-3.0509,-3.0333,-3.0274,-2.9922,-2.9627,-2.939,-2.939,-2.9213,-2.8975,-5.7303,-5.7303,-5.7303,-5.7303,-5.7303,-5.6908,-5.5729,-5.4998,-5.4019,-5.2465,-5.1408,-5.0652,-5.0359,-4.9912,-4.9654,-4.9654,-4.9654,-4.9654,-4.959,-4.9038,-4.846,-4.7933,-4.6878,-4.5799,-4.4719,-4.4593,-4.4066,-4.3037,-4.2986,-4.2986,-4.2986,-4.2986,-4.2986,-4.2986,-4.2986,-4.2986,-4.2986,-4.2986,-4.2961,-4.2911,-4.2961,-4.2665,-4.2087,-4.153,-4.1003,-4.045,-3.9898,-3.9542,-3.931,-3.9258,-3.8893,-3.8421,-3.8368,-3.8185,-3.7974,-3.7974,-3.7974,-3.7974,-3.7974,-3.7974,-3.7974,-3.7926,-3.7565,-3.73,-3.7757,-3.7517,-3.7324,-3.7829,-3.7541,-3.718,-3.7156,-3.6216,-3.5146,-3.4116,0.0,0.0,-3.2469,-3.265,-3.2794,-3.2775,-3.2497,-3.2166,-3.1584,-3.1232,-3.096,-3.082,-3.0801,-3.0801,-3.0801,-3.082,-3.084,-3.084,-3.084,-3.0859,-3.0898,-3.0898,-3.0898,-3.0898,-3.0898,-3.0898,-3.0898,-3.0898,-3.0898,-3.0898,-3.0898,-3.0898,-3.0879,-3.0509,-3.0216,-2.9922,-2.9627,-2.9331,-2.9035,-2.9035,-2.9035,-2.8975,-5.7303,-5.7303,-5.7303,-5.7303,-5.6964,-5.6337,-5.5057,-5.4139,-5.3052,-5.1659,-5.0804,-5.0232,-5.0129,-4.9783,-4.959,-4.959,-4.959,-4.959,-4.959,-4.9088,-4.836,-4.7456,-4.6702,-4.5949,-4.5171,-4.4794,-4.4242,-4.3489,-4.3137,-4.2986,-4.2986,-4.2986,-4.2986,-4.2986,-4.2986,-4.2986,-4.2986,-4.2986,-4.2986,-4.2936,-4.2665,-4.2133,-4.158,-4.1053,-4.0475,-3.9973,-3.9592,-3.9387,-3.9258,-3.8893,-3.8579,-3.8368,-3.8185,-3.808,-3.7974,-3.7974,-3.7974,-3.7974,-3.7974,-3.7974,-3.7974,-3.7974,-3.7829,-3.7733,-3.7926,-3.7829,-3.7733,-3.795,-3.7829,-3.7589,-3.7252,-3.661,-3.5808,-3.4981,0.0,-3.3877,-3.3758,-3.3731,-3.3848,-3.4178,-3.3323,-3.2696,-3.2544,-3.1583,-3.0935,-3.0879,-3.0898,-3.0898,-3.0898,-3.0898,-3.0898,-3.0898,-3.0898,-3.0898,-3.0898,-3.0898,-3.0898,-3.0898,-3.0898,-3.0898,-3.0898,-3.0898,-3.0898,-3.0898,-3.0898,-3.0762,-3.0567,-3.0216,-2.9922,-2.9627,-2.9331,-2.9094,-2.8975,-2.8975,-2.8975,-2.8975,-5.7303,-5.7134,-5.7021,-5.7021,-5.6451,-5.5556,-5.4378,-5.3477,-5.2439,-5.1246,-5.0487,-5.0129,-5.0129,-4.9783,-4.959,-4.959,-4.959,-4.959,-4.959,-4.8912,-4.8083,-4.7118,-4.6602,-4.605,-4.5497,-4.492,-4.4342,-4.379,-4.3237,-4.2986,-4.2986,-4.2986,-4.2986,-4.2986,-4.2986,-4.2986,-4.2986,-4.2986,-4.2986,-4.2936,-4.2439,-4.1831,-4.1225,-4.0674,-4.0174,-3.9645,-3.9413,-3.9206,-3.905,-3.8579,-3.8344,-3.8262,-3.8027,-3.7974,-3.7974,-3.7974,-3.7974,-3.7974,-3.7974,-3.7974,-3.7974,-3.7974,-3.7974,-3.7974,-3.7974,-3.7974,-3.7974,-3.7974,-3.7974,-3.7878,-3.7517,-3.7183,-3.669,-3.6057,-3.5474,-3.508,-3.5032,-3.4818,-3.4808,-3.512,-3.3823,-3.2952,-3.3098,-3.1787,-3.0898,-3.0898,-3.0898,-3.0898,-3.0898,-3.0898,-3.0898,-3.0898,-3.0898,-3.0898,-3.0898,-3.0898,-3.0898,-3.0898,-3.0898,-3.0898,-3.0898,-3.0898,-3.0898,-3.0898,-3.0898,-3.0762,-3.0509,-3.0098,-2.9804,-2.9568,-2.9153,-2.8975,-2.8975,-2.8975,-2.8975,-2.8975,-5.7303,-5.6794,-5.6394,-5.6394,-5.5643,-5.4675,-5.3631,-5.2991,-5.2218,-5.1246,-5.0487,-5.0129,-5.0129,-4.9783,-4.959,-4.959,-4.959,-4.959,-4.959,-4.8535,-4.7682,-4.7093,-4.6602,-4.605,-4.5497,-4.492,-4.4342,-4.379,-4.3237,-4.2986,-4.2986,-4.2986,-4.2986,-4.2986,-4.2986,-4.2986,-4.2986,-4.2986,-4.2986,-4.2936,-4.2414,-4.1831,-4.1225,-4.0727,-4.0174,-3.9645,-3.9362,-3.9102,-3.8736,-3.8473,-3.8185,-3.7974,-3.7974,-3.7974,-3.7974,-3.7974,-3.7974,-3.7974,-3.7974,-3.7974,-3.7974,-3.7974,-3.7974,-3.7974,-3.7974,-3.7974,-3.7974,-3.7974,-3.7974,-3.7974,-3.7974,-3.7974,-3.7805,-3.7276,-3.7204,-3.6892,-3.6051,-3.5892,-3.5757,-3.5411,-3.4043,-3.3119,-3.3119,-3.1787,-3.0898,-3.0898,-3.0898,-3.0898,-3.0898,-3.0898,-3.0898,-3.0898,-3.0898,-3.0898,-3.0898,-3.0898,-3.0898,-3.0898,-3.0898,-3.0898,-3.0898,-3.0898,-3.0898,-3.0898,-3.0898,-3.0898,-3.084,-3.0176,-2.9922,-2.9863,-2.9213,-2.8975,-2.8975,-2.8975,-2.8975,-2.8975,-5.7303,-5.6794,-5.6279,-5.5789,-5.4706,-5.3631,-5.257,-5.1757,-5.0968,-5.0487,-5.004,-4.9719,-4.9719,-4.9654,-4.959,-4.959,-4.959,-4.959,-4.959,-4.8535,-4.7832,-4.7682,-4.6803,-4.5874,-4.4895,-4.4719,-4.4166,-4.3212,-4.3062,-4.2986,-4.2986,-4.2986,-4.2986,-4.2986,-4.2986,-4.2986,-4.2986,-4.2986,-4.2986,-4.2886,-4.1957,-4.148,-4.1175,-4.03,-3.9848,-3.9645,-3.9102,-3.8893,-3.8736,-3.8262,-3.808,-3.7974,-3.7974,-3.7974,-3.7974,-3.7974,-3.7974,-3.7974,-3.7974,-3.7974,-3.7974,-3.7974,-3.7974,-3.7974,-3.7974,-3.7974,-3.7974,-3.7974,-3.7974,-3.7974,-3.7974,-3.7974,-3.7926,-3.7781,-3.744,-3.6962,-3.6533,-3.6079,-3.5659,-3.5179,-3.3931,-3.3006,-3.2856,-3.1672,-3.0898,-3.0898,-3.0898,-3.0898,-3.0898,-3.0898,-3.0898,-3.0898,-3.0898,-3.0898,-3.0898,-3.0898,-3.0898,-3.0898,-3.0898,-3.0898,-3.0898,-3.0898,-3.0898,-3.0898,-3.0898,-3.0762,-3.0509,-3.0098,-2.9804,-2.9568,-2.9153,-2.8975,-2.8975,-2.8975,-2.8975,-2.8975,-5.6964,-5.6451,-5.5759,-5.4825,-5.3691,-5.2623,-5.1606,-5.0842,-5.0295,-4.9912,-4.9719,-4.959,-4.959,-4.959,-4.959,-4.959,-4.959,-4.959,-4.959,-4.8535,-4.7908,-4.7908,-4.6878,-4.5899,-4.4995,-4.4744,-4.4192,-4.3313,-4.3087,-4.2986,-4.2986,-4.2986,-4.2986,-4.2986,-4.2986,-4.2986,-4.2986,-4.2986,-4.2861,-4.2585,-4.1706,-4.115,-4.0874,-4.0023,-3.9697,-3.9645,-3.9154,-3.8893,-3.8736,-3.8291,-3.808,-3.7974,-3.7974,-3.7974,-3.7974,-3.7974,-3.7974,-3.7974,-3.7974,-3.8142,-3.831,-3.831,-3.8142,-3.7974,-3.7974,-3.7974,-3.7974,-3.7974,-3.7974,-3.7974,-3.7974,-3.7974,-3.7921,-3.7655,-3.7334,-3.6904,-3.6254,-3.5872,-3.5323,-3.4568,-3.3537,-3.2799,-3.2399,-3.146,-3.0898,-3.0898,-3.0898,-3.0898,-3.0898,-3.0898,-3.0898,-3.0898,-3.0898,-3.0898,-3.0898,-3.0898,-3.0898,-3.0898,-3.0898,-3.0898,-3.0898,-3.0898,-3.0898,-3.0898,-3.0898,-3.0762,-3.0567,-3.0098,-2.9804,-2.9646,-2.9338,-2.9122,-2.9012,-2.9159,-2.9122,-2.9012,-5.6509,-5.5903,-5.5057,-5.3752,-5.2685,-5.1747,-5.0715,-5.0295,-4.9912,-4.9654,-4.959,-4.959,-4.959,-4.959,-4.959,-4.959,-4.959,-4.959,-4.959,-4.8586,-4.7958,-4.7908,-4.6928,-4.6075,-4.5422,-4.4895,-4.4317,-4.374,-4.3212,-4.2986,-4.2986,-4.2986,-4.2986,-4.2986,-4.2986,-4.2986,-4.2986,-4.2936,-4.2665,-4.2162,-4.1505,-4.0953,-4.045,-3.9898,-3.9697,-3.9645,-3.9413,-3.9102,-3.8736,-3.8473,-3.8185,-3.7974,-3.7974,-3.7974,-3.7974,-3.7974,-3.7974,-3.7998,-3.8046,-3.8431,-3.8815,-3.8864,-3.8503,-3.8118,-3.807,-3.8046,-3.8046,-3.8046,-3.8046,-3.8046,-3.8046,-3.8046,-3.7886,-3.7197,-3.7012,-3.658,-3.5488,-3.5212,-3.4747,-3.3649,-3.297,-3.2399,-3.1845,-3.1228,-3.0898,-3.0898,-3.0898,-3.0898,-3.0898,-3.0898,-3.0898,-3.0898,-3.0898,-3.0918,-3.0937,-3.0918,-3.0898,-3.0898,-3.0898,-3.0898,-3.0898,-3.0898,-3.0918,-3.0937,-3.0937,-3.0957,-3.0879,-3.0272,-2.9938,-2.9842,-2.9656,-2.936,-2.9085,-2.9434,-2.9342,-2.9085,-5.6509,-5.5903,-5.5057,-5.3752,-5.25,-5.1471,-5.0715,-5.0104,-4.9654,-4.959,-4.959,-4.959,-4.959,-4.959,-4.959,-4.959,-4.959,-4.959,-4.959,-4.8962,-4.8385,-4.7933,-4.728,-4.6276,-4.4844,-4.4694,-4.4141,-4.3162,-4.3037,-4.2986,-4.2986,-4.2986,-4.2986,-4.2986,-4.2986,-4.2986,-4.2961,-4.2564,-4.2313,-4.2112,-4.1078,-4.0626,-4.045,-3.9898,-3.9697,-3.9645,-3.9413,-3.9102,-3.8736,-3.8238,-3.8027,-3.7974,-3.7974,-3.7974,-3.7974,-3.7974,-3.7974,-3.807,-3.8503,-3.8719,-3.8912,-3.932,-3.9345,-3.9152,-3.8719,-3.8647,-3.8647,-3.8647,-3.8647,-3.8647,-3.8647,-3.8647,-3.8287,-3.7268,-3.6363,-3.5543,-3.4803,-3.3853,-3.3197,-3.2913,-3.2342,-3.196,-3.1787,-3.1228,-3.0898,-3.0898,-3.0898,-3.0898,-3.0898,-3.0898,-3.0898,-3.0898,-3.0898,-3.1055,-3.1387,-3.1055,-3.0898,-3.0898,-3.0898,-3.0898,-3.0898,-3.0898,-3.1074,-3.1387,-3.1387,-3.1189,-3.0971,-3.0936,-3.0389,-2.9605,-2.9596,-2.9586,-2.9452,-2.9544,-2.9525,-2.9507,-5.6135,-5.5729,-5.4998,-5.3356,-5.2253,-5.1346,-5.0715,-5.004,-4.959,-4.959,-4.959,-4.959,-4.959,-4.959,-4.959,-4.959,-4.959,-4.959,-4.959,-4.9088,-4.851,-4.7933,-4.7405,-4.6476,-4.507,-4.4769,-4.4091,-4.2986,-4.2986,-4.2986,-4.2986,-4.2986,-4.2986,-4.2986,-4.2986,-4.2986,-4.2936,-4.2439,-4.2062,-4.1681,-4.0852,-4.035,-4.0099,-3.9798,-3.9697,-3.9697,-3.9542,-3.9206,-3.8736,-3.8185,-3.7974,-3.7974,-3.7974,-3.7974,-3.7974,-3.7974,-3.8166,-3.8455,-3.8743,-3.9176,-3.9633,-3.9922,-4.0162,-4.0162,-3.9369,-3.92,-3.92,-3.92,-3.92,-3.92,-3.92,-3.92,-3.8861,-3.8029,-3.6855,-3.5825,-3.526,-3.3925,-3.2901,-3.2612,-3.2082,-3.1752,-3.168,-3.1368,-3.1269,-3.1484,-3.1504,-3.1406,-3.1191,-3.1191,-3.1191,-3.1191,-3.1191,-3.1387,-3.1816,-3.1601,-3.1504,-3.1504,-3.1094,-3.0996,-3.1191,-3.1191,-3.1426,-3.1816,-3.1816,-3.1636,-3.1255,-3.1051,-3.0502,-2.9766,-2.967,-2.9562,-2.9599,-2.98,-3.0002,-3.0185,-5.5729,-5.5496,-5.4908,-5.3078,-5.2094,-5.1408,-5.0842,-5.0104,-4.959,-4.959,-4.959,-4.959,-4.959,-4.959,-4.959,-4.959,-4.959,-4.959,-4.959,-4.9163,-4.8661,-4.8083,-4.7556,-4.6753,-4.5648,-4.497,-4.4141,-4.3112,-4.3011,-4.2986,-4.2986,-4.2986,-4.2986,-4.2986,-4.2986,-4.2986,-4.2936,-4.2439,-4.1831,-4.1225,-4.0752,-4.0199,-3.9697,-3.9697,-3.9697,-3.9645,-3.9645,-3.9258,-3.8684,-3.8157,-3.7974,-3.7974,-3.7974,-3.8046,-3.8118,-3.8118,-3.8527,-3.8984,-3.9056,-3.9729,-4.0427,-4.0499,-4.086,-4.0956,-4.009,-3.9801,-3.9753,-3.9753,-3.9753,-3.9753,-3.9753,-3.9753,-3.9539,-3.8807,-3.7633,-3.6582,-3.5831,-3.4344,-3.3062,-3.2434,-3.2054,-3.1819,-3.1661,-3.1621,-3.1777,-3.2148,-3.2229,-3.2012,-3.1641,-3.1621,-3.1621,-3.1621,-3.1621,-3.1836,-3.2266,-3.2207,-3.2207,-3.2266,-3.1484,-3.1289,-3.1621,-3.1621,-3.1875,-3.2285,-3.2205,-3.2021,-3.1554,-3.1043,-3.055,-3.0074,-2.9886,-2.9843,-2.9819,-3.0167,-3.0552,-3.0882,-5.5729,-5.5496,-5.5085,-5.3713,-5.2404,-5.1596,-5.1471,-5.0397,-4.959,-4.959,-4.959,-4.959,-4.959,-4.959,-4.959,-4.959,-4.959,-4.959,-4.959,-4.9515,-4.9238,-4.8686,-4.8109,-4.7305,-4.6225,-4.5171,-4.4317,-4.3689,-4.3212,-4.2986,-4.2986,-4.2986,-4.2986,-4.2986,-4.2986,-4.2986,-4.2936,-4.2439,-4.1831,-4.1225,-4.0752,-4.0199,-3.9697,-3.9697,-3.9542,-3.9362,-3.9362,-3.8945,-3.8421,-3.808,-3.7974,-3.7974,-3.7974,-3.831,-3.8695,-3.8695,-3.908,-3.9609,-4.0066,-4.0282,-4.0499,-4.0956,-4.1124,-4.1148,-4.1004,-4.0619,-4.0282,-4.0282,-4.0282,-4.0282,-4.0282,-4.0282,-3.997,-3.8854,-3.7713,-3.6489,-3.5306,-3.3969,-3.2895,-3.2312,-3.2213,-3.2133,-3.2131,-3.209,-3.2109,-3.2229,-3.2229,-3.2148,-3.209,-3.209,-3.209,-3.209,-3.209,-3.2285,-3.2695,-3.2344,-3.2344,-3.2695,-3.2226,-3.2031,-3.209,-3.209,-3.2305,-3.2715,-3.2405,-3.2076,-3.1783,-3.1727,-3.1132,-3.0211,-3.0497,-3.0626,-3.0626,-3.0681,-3.0956,-3.1249,-5.6164,-5.5729,-5.5203,-5.4286,-5.2685,-5.1596,-5.1596,-5.0461,-4.959,-4.959,-4.959,-4.959,-4.959,-4.959,-4.959,-4.959,-4.959,-4.959,-4.959,-4.959,-4.9339,-4.8786,-4.8209,-4.7556,-4.6778,-4.5673,-4.4995,-4.4744,-4.3564,-4.2986,-4.2986,-4.2986,-4.2986,-4.2986,-4.2986,-4.2986,-4.2936,-4.2439,-4.2062,-4.1731,-4.0852,-4.0375,-4.0124,-3.9642,-3.9413,-3.9258,-3.8945,-3.8631,-3.8368,-3.808,-3.819,-3.8455,-3.8455,-3.8815,-3.9272,-3.9272,-3.9633,-4.009,-4.0331,-4.0619,-4.0884,-4.1124,-4.1172,-4.1172,-4.1172,-4.0693,-4.0354,-4.0779,-4.0836,-4.0721,-4.0354,-4.0297,-3.9996,-3.9186,-3.7663,-3.6421,-3.5862,-3.4166,-3.2728,-3.2248,-3.2229,-3.2266,-3.25,-3.2519,-3.2617,-3.2851,-3.2871,-3.2773,-3.2539,-3.2519,-3.2519,-3.2519,-3.2519,-3.2715,-3.3144,-3.2969,-3.2969,-3.3144,-3.2949,-3.2734,-3.2519,-3.2335,-3.2506,-3.2831,-3.2516,-3.2137,-3.1821,-3.1638,-3.1162,-3.0534,-3.0479,-3.0589,-3.0809,-3.1029,-3.1231,-3.1341]},{"header":{"parameterUnit":"m.s-1","parameterCategory":1,"la1":30.6,"la2":28.766,"lo1":-90.7593,"lo2":-88.6598,"dy":0.0162,"dx":0.0183,"nx":116,"ny":114,"refTime":"2023-03-15T12:00:00:Z","depth":0,"parameterNumber":3,"parameterNumberName":"V-component_of_WINDS"},"data":[0.0,0.0,0.0,0.0,0.0,0.0,0.0,0.0,0.0,0.0,0.0,0.0,0.0,0.0,0.0,0.0,0.0,0.0,0.0,0.0,0.0,0.0,0.0,0.0,0.0,0.0,0.0,0.0,0.0,0.0,0.0,0.0,0.0,0.0,0.0,0.0,0.0,0.0,0.0,0.0,0.0,0.0,0.0,0.0,0.0,0.0,0.0,0.0,0.0,0.0,0.0,0.0,0.0,0.0,0.0,0.0,0.0,0.0,0.0,0.0,0.0,0.0,0.0,0.0,0.0,0.0,0.0,0.0,0.0,0.0,0.0,0.0,0.0,0.0,0.0,0.0,0.0,0.0,0.0,0.0,0.0,0.0,0.0,0.0,0.0,0.0,0.0,0.0,0.0,0.0,0.0,0.0,0.0,0.0,0.0,0.0,0.0,0.0,0.0,0.0,0.0,0.0,0.0,0.0,0.0,0.0,0.0,0.0,0.0,0.0,0.0,0.0,0.0,0.0,0.0,0.0,0.0,0.0,0.0,0.0,0.0,0.0,0.0,0.0,0.0,0.0,0.0,0.0,0.0,0.0,0.0,0.0,0.0,0.0,0.0,0.0,0.0,0.0,0.0,0.0,0.0,0.0,0.0,0.0,0.0,0.0,0.0,0.0,0.0,0.0,0.0,0.0,0.0,0.0,0.0,0.0,0.0,0.0,0.0,0.0,0.0,0.0,0.0,0.0,0.0,0.0,0.0,0.0,0.0,0.0,0.0,0.0,0.0,0.0,0.0,0.0,0.0,0.0,0.0,0.0,0.0,0.0,0.0,0.0,0.0,0.0,0.0,0.0,0.0,0.0,0.0,0.0,0.0,0.0,0.0,0.0,0.0,0.0,0.0,0.0,0.0,0.0,0.0,0.0,0.0,0.0,0.0,0.0,0.0,0.0,0.0,0.0,0.0,0.0,0.0,0.0,0.0,0.0,0.0,0.0,0.0,0.0,0.0,0.0,0.0,0.0,0.0,0.0,0.0,0.0,0.0,0.0,0.0,0.0,0.0,0.0,0.0,0.0,0.0,0.0,0.0,0.0,0.0,0.0,0.0,0.0,0.0,0.0,0.0,0.0,0.0,0.0,0.0,0.0,0.0,0.0,0.0,0.0,0.0,0.0,0.0,0.0,0.0,0.0,0.0,0.0,0.0,0.0,0.0,0.0,0.0,0.0,0.0,0.0,0.0,0.0,0.0,0.0,0.0,0.0,0.0,0.0,0.0,0.0,0.0,0.0,0.0,0.0,0.0,0.0,0.0,0.0,0.0,0.0,0.0,0.0,0.0,0.0,0.0,0.0,0.0,0.0,0.0,0.0,0.0,0.0,0.0,0.0,0.0,0.0,0.0,0.0,0.0,0.0,0.0,0.0,0.0,0.0,0.0,0.0,0.0,0.0,0.0,0.0,0.0,0.0,0.0,0.0,0.0,0.0,0.0,0.0,0.0,0.0,0.0,0.0,0.0,0.0,0.0,0.0,0.0,0.0,0.0,0.0,0.0,0.0,0.0,0.0,0.0,0.0,0.0,0.0,0.0,0.0,0.0,0.0,0.0,0.0,0.0,0.0,0.0,0.0,0.0,0.0,0.0,0.0,0.0,0.0,0.0,0.0,0.0,0.0,0.0,0.0,0.0,0.0,0.0,0.0,0.0,0.0,0.0,0.0,0.0,0.0,0.0,0.0,0.0,0.0,0.0,0.0,0.0,0.0,0.0,0.0,0.0,0.0,0.0,0.0,0.0,0.0,0.0,0.0,0.0,0.0,0.0,0.0,0.0,0.0,0.0,0.0,0.0,0.0,0.0,0.0,0.0,0.0,0.0,0.0,0.0,0.0,0.0,0.0,0.0,0.0,0.0,0.0,0.0,0.0,0.0,0.0,0.0,0.0,0.0,0.0,0.0,0.0,0.0,0.0,0.0,0.0,0.0,0.0,0.0,0.0,0.0,0.0,0.0,0.0,0.0,0.0,0.0,0.0,0.0,0.0,0.0,0.0,0.0,0.0,0.0,0.0,0.0,0.0,0.0,0.0,0.0,0.0,0.0,0.0,0.0,0.0,0.0,0.0,0.0,0.0,0.0,0.0,0.0,0.0,0.0,0.0,0.0,0.0,0.0,0.0,0.0,0.0,0.0,0.0,0.0,0.0,0.0,0.0,0.0,0.0,0.0,0.0,0.0,0.0,0.0,0.0,0.0,0.0,0.0,0.0,0.0,0.0,0.0,0.0,0.0,0.0,0.0,0.0,0.0,0.0,0.0,0.0,0.0,0.0,0.0,0.0,0.0,0.0,0.0,0.0,0.0,0.0,0.0,0.0,0.0,0.0,0.0,0.0,0.0,0.0,0.0,0.0,0.0,0.0,0.0,0.0,0.0,0.0,0.0,0.0,0.0,0.0,0.0,0.0,0.0,0.0,0.0,0.0,0.0,0.0,0.0,0.0,0.0,0.0,0.0,0.0,0.0,0.0,0.0,0.0,0.0,0.0,0.0,0.0,0.0,0.0,0.0,0.0,0.0,0.0,0.0,0.0,0.0,0.0,0.0,0.0,0.0,0.0,0.0,0.0,0.0,0.0,0.0,0.0,0.0,0.0,0.0,0.0,0.0,0.0,0.0,0.0,0.0,0.0,0.0,0.0,0.0,0.0,0.0,0.0,0.0,0.0,0.0,0.0,0.0,0.0,0.0,0.0,0.0,0.0,0.0,0.0,0.0,0.0,0.0,0.0,0.0,0.0,0.0,0.0,0.0,0.0,0.0,0.0,0.0,0.0,0.0,0.0,0.0,0.0,0.0,0.0,0.0,0.0,0.0,0.0,0.0,0.0,0.0,0.0,0.0,0.0,0.0,0.0,0.0,0.0,0.0,0.0,0.0,0.0,0.0,0.0,0.0,0.0,0.0,0.0,0.0,0.0,0.0,0.0,0.0,0.0,0.0,0.0,0.0,0.0,0.0,0.0,0.0,0.0,0.0,0.0,0.0,0.0,0.0,0.0,0.0,0.0,0.0,0.0,0.0,0.0,0.0,0.0,0.0,0.0,0.0,0.0,0.0,0.0,0.0,0.0,0.0,0.0,0.0,0.0,0.0,0.0,0.0,0.0,0.0,0.0,0.0,0.0,0.0,0.0,0.0,0.0,0.0,0.0,0.0,0.0,0.0,0.0,0.0,0.0,0.0,0.0,0.0,0.0,0.0,0.0,0.0,0.0,0.0,0.0,0.0,0.0,0.0,0.0,0.0,0.0,0.0,0.0,0.0,0.0,0.0,0.0,0.0,0.0,0.0,0.0,0.0,0.0,0.0,0.0,0.0,0.0,0.0,0.0,0.0,0.0,0.0,0.0,0.0,0.0,0.0,0.0,0.0,0.0,0.0,0.0,0.0,0.0,0.0,0.0,0.0,0.0,0.0,0.0,0.0,0.0,0.0,0.0,0.0,0.0,0.0,0.0,0.0,0.0,0.0,0.0,0.0,0.0,0.0,0.0,0.0,0.0,0.0,0.0,0.0,0.0,0.0,0.0,0.0,0.0,0.0,0.0,0.0,0.0,0.0,0.0,0.0,0.0,0.0,0.0,0.0,0.0,0.0,0.0,0.0,0.0,0.0,0.0,0.0,0.0,0.0,0.0,0.0,0.0,0.0,0.0,0.0,0.0,0.0,0.0,0.0,0.0,0.0,0.0,0.0,0.0,0.0,0.0,0.0,0.0,0.0,0.0,0.0,0.0,0.0,0.0,0.0,0.0,0.0,0.0,0.0,0.0,0.0,0.0,0.0,0.0,0.0,0.0,0.0,0.0,0.0,0.0,0.0,0.0,0.0,0.0,0.0,0.0,0.0,0.0,0.0,0.0,0.0,0.0,0.0,0.0,0.0,0.0,0.0,0.0,0.0,0.0,0.0,0.0,0.0,0.0,0.0,0.0,0.0,0.0,0.0,0.0,0.0,0.0,0.0,0.0,0.0,0.0,0.0,0.0,0.0,0.0,0.0,0.0,0.0,0.0,0.0,0.0,0.0,0.0,0.0,0.0,0.0,0.0,0.0,0.0,0.0,0.0,0.0,0.0,0.0,0.0,0.0,0.0,0.0,0.0,0.0,0.0,0.0,0.0,0.0,0.0,0.0,0.0,0.0,0.0,0.0,0.0,0.0,0.0,0.0,0.0,0.0,0.0,0.0,0.0,0.0,0.0,0.0,0.0,0.0,0.0,0.0,0.0,0.0,0.0,0.0,0.0,0.0,0.0,0.0,0.0,0.0,0.0,0.0,0.0,0.0,0.0,0.0,0.0,0.0,0.0,0.0,0.0,0.0,0.0,0.0,0.0,0.0,0.0,0.0,0.0,0.0,0.0,0.0,0.0,0.0,0.0,0.0,0.0,0.0,0.0,0.0,0.0,0.0,0.0,0.0,0.0,0.0,0.0,0.0,0.0,0.0,0.0,0.0,0.0,0.0,0.0,0.0,0.0,0.0,0.0,0.0,0.0,0.0,0.0,0.0,0.0,0.0,0.0,0.0,0.0,0.0,0.0,0.0,0.0,0.0,0.0,0.0,0.0,0.0,0.0,0.0,0.0,0.0,0.0,0.0,0.0,0.0,0.0,0.0,0.0,0.0,0.0,0.0,0.0,0.0,0.0,0.0,0.0,0.0,0.0,0.0,0.0,0.0,0.0,0.0,0.0,0.0,0.0,0.0,0.0,0.0,0.0,0.0,0.0,0.0,0.0,0.0,0.0,0.0,0.0,0.0,0.0,0.0,0.0,0.0,0.0,0.0,0.0,0.0,0.0,0.0,0.0,0.0,0.0,0.0,0.0,0.0,0.0,0.0,0.0,0.0,0.0,0.0,0.0,0.0,0.0,0.0,0.0,0.0,0.0,0.0,0.0,0.0,0.0,0.0,0.0,0.0,0.0,0.0,0.0,0.0,0.0,0.0,0.0,0.0,0.0,0.0,0.0,0.0,0.0,0.0,0.0,0.0,0.0,0.0,0.0,0.0,0.0,0.0,0.0,0.0,0.0,0.0,0.0,0.0,0.0,0.0,0.0,0.0,0.0,0.0,0.0,0.0,0.0,0.0,0.0,0.0,0.0,0.0,0.0,0.0,0.0,0.0,0.0,0.0,0.0,0.0,0.0,0.0,0.0,0.0,0.0,0.0,0.0,0.0,0.0,0.0,0.0,0.0,0.0,0.0,0.0,0.0,0.0,0.0,0.0,0.0,0.0,0.0,0.0,0.0,0.0,0.0,0.0,0.0,0.0,0.0,0.0,0.0,0.0,0.0,0.0,0.0,0.0,0.0,0.0,0.0,0.0,0.0,0.0,0.0,0.0,0.0,0.0,0.0,0.0,0.0,0.0,0.0,0.0,0.0,0.0,0.0,0.0,0.0,0.0,0.0,0.0,0.0,0.0,0.0,0.0,0.0,0.0,0.0,0.0,0.0,0.0,0.0,0.0,0.0,0.0,0.0,0.0,0.0,0.0,0.0,0.0,0.0,0.0,0.0,0.0,0.0,0.0,0.0,0.0,0.0,0.0,0.0,0.0,0.0,0.0,0.0,0.0,0.0,0.0,0.0,0.0,0.0,0.0,0.0,0.0,0.0,0.0,0.0,0.0,0.0,0.0,0.0,0.0,0.0,0.0,0.0,0.0,0.0,0.0,0.0,0.0,0.0,0.0,0.0,0.0,0.0,0.0,0.0,0.0,0.0,0.0,0.0,0.0,0.0,0.0,0.0,0.0,0.0,0.0,0.0,0.0,0.0,0.0,0.0,0.0,0.0,0.0,0.0,0.0,0.0,0.0,0.0,0.0,0.0,0.0,0.0,0.0,0.0,0.0,0.0,0.0,0.0,0.0,0.0,0.0,0.0,0.0,0.0,0.0,0.0,0.0,0.0,0.0,0.0,0.0,0.0,0.0,0.0,0.0,0.0,0.0,0.0,0.0,0.0,0.0,0.0,0.0,0.0,0.0,0.0,0.0,0.0,0.0,0.0,0.0,0.0,0.0,0.0,0.0,0.0,0.0,0.0,0.0,0.0,0.0,0.0,0.0,0.0,0.0,0.0,0.0,0.0,0.0,0.0,0.0,0.0,0.0,0.0,0.0,0.0,0.0,2.8774,0.0,0.0,0.0,0.0,0.0,0.0,0.0,0.0,0.0,0.0,0.0,0.0,0.0,0.0,0.0,0.0,0.0,0.0,0.0,0.0,0.0,0.0,0.0,0.0,0.0,0.0,0.0,0.0,0.0,0.0,0.0,0.0,0.0,0.0,0.0,0.0,0.0,0.0,0.0,2.5124,2.5566,2.6298,2.7432,2.7881,2.7753,0.0,0.0,0.0,0.0,0.0,0.0,0.0,0.0,0.0,0.0,0.0,0.0,0.0,0.0,0.0,0.0,0.0,0.0,0.0,0.0,0.0,0.0,0.0,0.0,0.0,0.0,0.0,0.0,0.0,0.0,0.0,0.0,0.0,0.0,0.0,0.0,0.0,0.0,0.0,0.0,0.0,0.0,0.0,0.0,0.0,0.0,0.0,0.0,0.0,0.0,0.0,0.0,0.0,0.0,0.0,0.0,0.0,0.0,0.0,0.0,0.0,0.0,0.0,0.0,0.0,0.0,0.0,0.0,0.0,0.0,0.0,3.0319,0.0,0.0,0.0,0.0,0.0,0.0,0.0,0.0,0.0,0.0,0.0,0.0,0.0,0.0,0.0,0.0,0.0,0.0,0.0,0.0,0.0,0.0,0.0,0.0,0.0,0.0,0.0,0.0,0.0,0.0,0.0,0.0,0.0,0.0,0.0,2.4877,2.5767,2.6812,2.6747,2.7083,2.7862,2.968,2.9957,2.891,2.9077,0.0,0.0,0.0,0.0,0.0,0.0,0.0,0.0,0.0,0.0,0.0,0.0,0.0,0.0,0.0,0.0,0.0,0.0,0.0,0.0,0.0,0.0,0.0,0.0,0.0,0.0,0.0,0.0,0.0,0.0,0.0,0.0,0.0,0.0,0.0,0.0,0.0,0.0,0.0,0.0,0.0,0.0,0.0,0.0,0.0,0.0,0.0,0.0,0.0,0.0,0.0,0.0,0.0,0.0,0.0,0.0,0.0,0.0,0.0,0.0,0.0,0.0,0.0,0.0,0.0,3.6461,3.8211,3.8174,3.6732,3.6185,3.4371,3.1959,0.0,0.0,0.0,0.0,0.0,0.0,0.0,0.0,0.0,0.0,0.0,0.0,0.0,0.0,0.0,0.0,0.0,0.0,0.0,0.0,0.0,0.0,2.0461,2.0684,2.1131,2.1186,2.1186,0.0,0.0,0.0,0.0,0.0,0.0,2.403,2.502,2.5859,2.6553,2.8015,2.9109,2.9962,3.1384,3.1861,3.1358,2.9926,3.0632,3.2734,0.0,0.0,0.0,0.0,0.0,0.0,0.0,0.0,0.0,0.0,0.0,0.0,0.0,0.0,0.0,0.0,0.0,0.0,0.0,0.0,0.0,0.0,0.0,0.0,0.0,0.0,0.0,0.0,0.0,0.0,0.0,0.0,0.0,0.0,0.0,0.0,0.0,0.0,0.0,0.0,0.0,2.8163,2.8715,0.0,0.0,0.0,0.0,0.0,0.0,0.0,0.0,0.0,0.0,0.0,0.0,0.0,0.0,3.6328,3.8818,3.97,3.9065,4.1271,4.1913,4.1171,4.0903,4.0991,4.1341,4.1516,0.0,3.4253,3.3229,0.0,0.0,0.0,0.0,0.0,0.0,0.0,0.0,0.0,0.0,0.0,0.0,0.0,0.0,0.0,0.0,0.0,0.0,0.0,0.0,0.0,2.1355,2.1771,2.2315,2.316,2.3321,2.2418,0.0,0.0,0.0,0.0,2.4467,2.5393,2.5871,2.6886,2.8481,3.0841,3.2012,3.2199,3.3582,3.4227,3.4147,3.2765,3.2196,3.2213,3.1016,0.0,0.0,0.0,0.0,0.0,0.0,0.0,0.0,0.0,0.0,0.0,0.0,0.0,0.0,0.0,0.0,0.0,0.0,0.0,0.0,0.0,0.0,0.0,0.0,0.0,0.0,0.0,0.0,0.0,0.0,0.0,0.0,0.0,0.0,0.0,0.0,0.0,0.0,0.0,2.9932,3.0855,3.0232,3.2461,3.3739,0.0,0.0,0.0,0.0,0.0,0.0,0.0,0.0,0.0,3.7735,3.8772,3.9771,4.0519,4.224,4.3102,4.3161,4.5106,4.5543,4.4643,4.4947,4.493,4.4684,4.4821,4.335,4.068,3.8829,3.7549,3.6662,0.0,0.0,0.0,0.0,0.0,0.0,0.0,0.0,0.0,0.0,0.0,0.0,0.0,0.0,0.0,0.0,0.0,0.0,2.2146,2.2698,2.3271,2.4098,2.5345,2.5634,2.4606,2.5249,0.0,0.0,2.4962,2.5485,2.6876,2.7329,2.8673,3.1008,3.3359,3.4534,3.4652,3.5895,3.6516,3.6565,3.5886,3.4612,3.2963,3.2371,3.2146,3.2148,0.0,0.0,0.0,0.0,0.0,0.0,0.0,0.0,0.0,0.0,0.0,0.0,0.0,0.0,0.0,0.0,0.0,0.0,0.0,0.0,0.0,0.0,0.0,0.0,0.0,0.0,0.0,0.0,0.0,0.0,0.0,0.0,0.0,0.0,0.0,0.0,0.0,3.1773,3.3275,3.1969,3.4841,3.6273,0.0,0.0,0.0,0.0,0.0,0.0,3.7439,3.8936,4.0284,4.1468,4.2321,4.3311,4.4464,4.5362,4.6063,4.6585,4.8119,4.8306,4.7394,4.8047,4.7775,4.6889,4.6877,4.6564,4.5832,4.3642,4.1663,4.0045,3.9771,3.9611,0.0,4.0247,4.061,4.1067,0.0,0.0,0.0,0.0,0.0,0.0,0.0,0.0,0.0,0.0,0.0,2.1041,2.4274,2.465,2.5335,2.6942,2.7468,2.7894,2.8369,2.6985,2.6841,2.8403,2.7617,2.7394,2.8021,2.9578,3.1486,3.3696,3.4876,3.6121,3.7442,3.8265,3.8479,3.8199,3.8575,3.832,3.7426,3.5001,3.4056,3.4106,3.3571,0.0,0.0,0.0,0.0,0.0,0.0,0.0,0.0,0.0,0.0,0.0,0.0,0.0,0.0,0.0,0.0,0.0,0.0,0.0,0.0,0.0,0.0,0.0,0.0,0.0,0.0,0.0,0.0,0.0,0.0,0.0,0.0,0.0,0.0,0.0,0.0,0.0,0.0,3.3599,3.7033,0.0,0.0,0.0,0.0,3.9067,3.9715,4.071,4.1991,4.3467,4.4569,4.5273,4.6172,4.6951,4.7649,4.8602,4.9054,4.9157,5.0119,5.0217,4.955,4.8872,4.8194,4.7565,4.7628,4.7542,4.7183,4.4818,4.3742,4.3575,4.2912,4.2696,4.2791,4.39,4.431,4.4412,0.0,0.0,0.0,0.0,0.0,0.0,0.0,0.0,0.0,2.1599,2.2171,2.3627,2.6615,2.7208,2.8085,2.9779,3.0292,3.0404,2.996,2.9279,2.9063,2.9386,2.8726,2.8925,3.0206,3.1863,3.347,3.4906,3.6784,3.8114,3.8969,3.9423,3.9853,4.0207,3.9842,3.9631,3.9395,3.6354,3.4986,3.4668,3.3216,3.2609,0.0,0.0,0.0,0.0,0.0,0.0,0.0,0.0,0.0,0.0,0.0,0.0,0.0,0.0,0.0,0.0,0.0,0.0,0.0,0.0,0.0,0.0,0.0,0.0,0.0,0.0,0.0,0.0,0.0,0.0,0.0,0.0,0.0,0.0,0.0,0.0,0.0,3.8263,4.122,0.0,0.0,4.0952,4.1897,4.2491,4.3298,4.4519,4.6292,4.7437,4.8309,4.8988,4.9304,4.9802,5.047,5.0407,5.0603,5.1074,5.1511,5.14,5.0726,5.0611,5.0236,4.9589,4.9605,4.9347,4.8891,4.8246,4.7303,4.614,4.5505,4.5439,4.5762,4.6647,4.7169,4.7558,0.0,0.0,0.0,0.0,0.0,0.0,0.0,0.0,0.0,2.2521,2.3604,2.5335,2.8072,2.9202,3.0357,3.1838,3.2199,3.2066,3.1395,3.0558,3.0134,3.0262,2.9936,3.0457,3.1938,3.3596,3.5177,3.6659,3.8341,3.9521,4.0249,4.051,4.0896,4.1411,4.0848,4.0676,4.0733,3.827,3.6515,3.5352,3.4028,3.3915,3.4323,0.0,0.0,0.0,0.0,0.0,0.0,0.0,0.0,0.0,0.0,0.0,0.0,0.0,0.0,0.0,0.0,0.0,0.0,0.0,0.0,0.0,0.0,0.0,0.0,0.0,0.0,0.0,0.0,0.0,0.0,0.0,0.0,0.0,0.0,0.0,4.2108,4.2298,4.5077,4.6202,4.4267,4.4855,4.5633,4.6262,4.7049,4.8186,4.9749,5.0577,5.1242,5.1665,5.1453,5.1544,5.1997,5.1455,5.1455,5.2002,5.217,5.2015,5.1461,5.1594,5.1344,5.0697,5.0697,5.0451,5.0063,5.0328,4.9693,4.8529,4.8098,4.7945,4.8064,4.8923,4.9265,4.9444,0.0,0.0,0.0,0.0,0.0,0.0,0.0,2.2156,2.2668,2.3245,2.4239,2.5912,2.8637,3.0432,3.1888,3.3061,3.2904,3.2761,3.2804,3.0712,3.0002,3.1182,3.1391,3.1989,3.3187,3.4776,3.6709,3.8944,3.9471,4.03,4.13,4.1622,4.1729,4.1757,4.1723,4.175,4.1698,4.0783,3.885,3.6325,3.6199,3.5754,3.5079,0.0,0.0,0.0,0.0,0.0,0.0,0.0,0.0,0.0,0.0,0.0,0.0,0.0,0.0,0.0,0.0,0.0,0.0,0.0,0.0,0.0,0.0,0.0,0.0,0.0,0.0,0.0,0.0,0.0,0.0,0.0,0.0,0.0,3.8069,4.2376,4.5424,4.5484,4.8356,4.9538,4.7638,4.8626,4.9643,5.0226,5.0883,5.1558,5.2217,5.2875,5.3204,5.3204,5.2606,5.2247,5.2247,5.1824,5.1771,5.2032,5.22,5.2091,5.17,5.1744,5.1405,5.0759,5.0759,5.0759,5.0728,5.0728,5.0728,5.0672,5.058,5.0064,4.9559,5.0655,5.0612,5.0135,0.0,0.0,0.0,0.0,0.0,0.0,0.0,2.2945,2.392,2.3883,2.5605,2.7679,2.9893,3.126,3.2616,3.4148,3.2726,3.2123,3.2964,3.056,2.9935,3.1843,3.2382,3.3539,3.5475,3.6684,3.804,3.9471,4.0425,4.1254,4.1932,4.2041,4.2351,4.2924,4.2744,4.2754,4.2863,4.159,4.0605,3.9694,3.7636,3.6934,3.6974,0.0,0.0,0.0,0.0,0.0,0.0,0.0,0.0,0.0,0.0,0.0,0.0,0.0,0.0,0.0,0.0,0.0,0.0,0.0,0.0,0.0,0.0,0.0,0.0,0.0,0.0,0.0,0.0,0.0,0.0,0.0,0.0,4.1326,4.2446,4.5418,4.7997,4.9434,5.1229,5.1977,5.096,5.1618,5.2187,5.2366,5.2546,5.2935,5.3623,5.3832,5.3922,5.3922,5.3743,5.3653,5.3653,5.2564,5.206,5.2137,5.242,5.232,5.1911,5.2581,5.261,5.2144,5.2144,5.1867,5.1436,5.1436,5.1128,5.071,5.0649,5.0393,5.0093,5.0563,5.0774,5.0913,0.0,0.0,0.0,0.0,0.0,0.0,0.0,2.345,2.4374,2.4069,2.6214,2.8376,2.9857,3.1255,3.2474,3.346,3.2223,3.1498,3.1669,3.0604,3.0532,3.1813,3.3319,3.4826,3.638,3.7914,3.927,4.0375,4.1254,4.1957,4.2564,4.2564,4.2771,4.3215,4.2958,4.3102,4.3555,4.2346,4.1928,4.1821,3.9712,3.9173,3.9367,3.7572,3.7577,3.8298,3.6858,3.6882,3.7289,3.5364,0.0,0.0,0.0,0.0,0.0,0.0,0.0,0.0,0.0,0.0,0.0,0.0,0.0,0.0,0.0,0.0,0.0,0.0,0.0,0.0,0.0,0.0,0.0,0.0,4.2777,4.5273,4.7328,4.8955,5.0661,5.2636,5.3803,5.4371,5.4251,5.4371,5.4431,5.4431,5.4192,5.4192,5.461,5.461,5.461,5.461,5.4371,5.4221,5.4221,5.2875,5.2264,5.236,5.2231,5.2181,5.2185,5.2917,5.3071,0.0,5.3006,5.276,5.2144,5.2144,5.1898,0.0,0.0,0.0,0.0,0.0,5.097,5.1474,0.0,0.0,0.0,0.0,0.0,0.0,0.0,2.3766,2.4361,2.3946,2.6306,2.8245,2.8839,3.0533,3.1687,3.1815,3.1367,3.0698,2.9854,3.0783,3.1486,3.1763,3.4204,3.5956,3.6681,3.8718,4.03,4.1275,4.1882,4.2489,4.2986,4.2986,4.2986,4.3017,4.2815,4.3165,4.3823,4.3067,4.284,4.2944,4.1925,4.1603,4.1618,4.0122,4.0305,4.1196,3.975,3.9367,3.9354,3.754,0.0,0.0,0.0,0.0,0.0,0.0,0.0,0.0,0.0,0.0,0.0,0.0,0.0,0.0,0.0,0.0,0.0,0.0,0.0,0.0,0.0,0.0,0.0,0.0,4.6698,4.871,5.2091,5.2665,5.3384,5.5089,5.5867,5.6496,5.7034,5.6585,5.6256,5.6218,5.5688,5.5329,5.5209,0.0,0.0,0.0,0.0,5.4311,5.4311,5.3054,5.2522,5.2791,5.2158,5.2106,5.2505,5.3177,5.3285,5.2975,5.3498,5.3375,5.2821,5.2729,5.2698,5.2575,5.1313,5.0962,5.1138,5.0777,5.1184,0.0,0.0,0.0,0.0,0.0,0.0,0.0,0.0,2.398,2.4405,2.389,2.6078,2.7571,2.7216,2.8813,3.0121,3.0752,2.9781,2.9314,2.9793,3.0783,3.219,3.3997,3.5454,3.691,3.8391,3.9672,4.0676,4.1275,4.1882,4.2489,4.2986,4.2986,4.2986,4.3042,4.3441,4.3742,4.3903,4.3749,4.3388,4.2997,4.2788,4.2031,4.0943,4.0584,4.1025,4.1744,4.1259,4.1813,4.2434,4.0554,4.0299,4.0375,3.7723,0.0,0.0,0.0,0.0,0.0,0.0,0.0,0.0,0.0,0.0,0.0,0.0,0.0,0.0,0.0,0.0,0.0,0.0,0.0,0.0,4.6958,4.9934,5.2562,5.4371,5.5508,5.6107,5.5987,5.6526,5.6974,5.7094,5.6974,5.6705,5.6248,5.6526,5.6286,5.5239,5.5688,0.0,5.5209,5.5059,5.4999,5.4999,5.4221,5.3832,5.3882,0.0,0.0,5.3705,5.4296,5.4474,5.4283,5.3899,5.3652,5.3468,5.2944,5.2698,5.2637,5.1836,5.189,5.226,5.1222,5.1391,5.2106,0.0,0.0,0.0,0.0,0.0,0.0,0.0,2.3546,2.4154,2.4386,2.6054,2.7286,2.7385,2.8311,2.9033,2.932,2.8749,2.8784,2.9767,3.1336,3.2842,3.4248,3.6182,3.7588,3.8417,3.9798,4.0724,4.1275,4.1882,4.2489,4.2986,4.2986,4.2891,4.264,4.336,4.3457,4.3082,4.3486,4.3387,4.2997,4.2709,4.2152,4.1488,4.1486,4.1684,4.2043,4.2323,4.2668,4.2811,4.168,4.1288,4.0858,3.8668,3.8259,3.8206,0.0,0.0,0.0,0.0,0.0,0.0,0.0,0.0,0.0,0.0,0.0,0.0,0.0,0.0,4.2456,0.0,0.0,4.8447,5.0644,5.2792,5.464,5.5957,5.7004,5.7483,5.7184,5.7423,5.7752,5.8082,5.7812,5.7483,5.7184,5.6825,5.6346,5.5718,5.5688,5.5538,5.5209,5.5179,5.5179,5.5179,5.4551,5.4221,5.4221,5.3862,5.3826,5.4005,5.4673,5.487,5.4683,5.473,5.433,5.3683,5.3006,5.2698,5.2667,5.2329,5.266,5.3312,5.2571,5.2877,5.3459,0.0,0.0,0.0,0.0,0.0,0.0,0.0,0.0,2.3596,2.4335,2.5574,2.6646,2.734,2.7795,2.7989,2.7884,2.8135,2.8722,2.9704,3.1863,3.342,3.4198,3.6558,3.7939,3.8165,3.9496,4.0526,4.1125,4.163,4.2108,4.266,4.266,4.2409,4.2062,4.2819,4.2786,4.2261,4.3017,4.3152,4.2814,4.2474,4.2213,4.2054,4.2156,4.2242,4.2474,4.3101,4.2845,4.2205,4.2166,4.1526,4.0579,3.9332,3.9469,3.9652,3.7697,3.8125,0.0,0.0,0.0,0.0,0.0,0.0,0.0,0.0,0.0,4.1311,4.1448,4.3661,4.6202,4.7938,4.9673,5.1648,5.4192,5.5149,5.5957,5.7124,5.7872,5.8321,5.8321,5.8321,5.853,5.9069,5.862,5.8261,5.8141,5.7274,5.6615,5.6376,5.5987,5.5628,5.5388,5.5388,5.5329,5.5179,5.467,5.4401,5.4401,5.3882,5.3856,5.4352,5.4965,5.5176,5.5036,5.536,5.476,5.3468,5.2944,5.2698,5.2698,5.2698,5.3277,5.4051,5.3742,5.422,5.4814,0.0,0.0,0.0,0.0,0.0,0.0,0.0,0.0,0.0,2.2438,2.3655,2.4644,2.4944,2.6019,2.6694,2.6624,2.811,2.9284,2.9767,3.1863,3.3746,3.5257,3.6584,3.7739,3.8793,3.8969,3.9572,4.0601,4.0676,4.0978,4.1476,4.1476,4.1426,4.143,4.207,4.2285,4.2235,4.2814,4.2736,4.2342,4.2735,4.2317,4.1452,4.1852,4.2609,4.3409,4.3407,4.261,4.1771,4.2794,4.1895,4.0456,4.1454,4.1488,4.0863,3.9132,0.0,3.8359,3.7738,3.8414,3.9341,3.9479,3.9151,3.9765,0.0,0.0,4.4836,4.6264,4.8627,5.069,5.1498,5.2306,5.3533,5.5628,5.6466,5.7154,5.7902,5.859,5.9009,5.9009,5.9009,5.9009,5.9099,5.9039,5.874,5.8118,5.853,5.8261,5.7064,5.7513,5.7274,5.6107,5.6128,5.5777,5.5209,5.5119,5.5089,5.5089,5.525,5.537,5.542,5.5975,5.6219,5.6164,5.5251,5.4083,5.2821,5.2729,5.2698,5.2698,5.2698,5.3277,5.4051,5.3533,5.4059,5.4814,0.0,0.0,0.0,0.0,0.0,0.0,0.0,0.0,0.0,0.0,2.3409,2.4052,2.4564,2.5669,2.6375,2.6329,2.7519,2.863,2.9402,3.1139,3.2842,3.4525,3.5956,3.7134,3.7864,3.8216,3.8768,3.9572,3.97,3.9926,4.04,4.0832,4.0807,4.04,4.1664,4.1824,4.1286,4.2164,4.2396,4.2211,4.2056,4.1742,4.1246,4.0762,4.0627,4.0776,4.1183,4.0741,0.0,0.0,4.0094,3.9915,4.0615,4.0529,3.9952,3.9143,3.8371,0.0,3.8043,3.8842,3.996,0.0,4.2466,4.39,4.6491,4.7554,4.8308,4.9398,5.1078,5.2576,5.3234,5.4221,5.5329,0.0,5.7274,5.7932,5.859,5.859,5.8381,5.7992,5.7932,5.8231,5.9039,5.9099,5.8979,5.871,5.859,5.8291,5.7723,5.7573,5.7094,5.6248,5.6218,5.5867,5.5209,5.5179,5.5179,5.5179,5.5481,5.5681,5.583,5.6225,5.647,5.6554,5.5667,5.4976,5.4391,5.3622,5.3529,5.3806,5.3321,5.3759,5.4609,5.4137,5.4671,5.5536,0.0,0.0,0.0,0.0,0.0,0.0,0.0,0.0,0.0,0.0,0.0,0.0,0.0,2.5597,2.6177,2.5816,2.6813,2.7759,2.8446,3.0302,3.2031,3.337,3.5012,3.6222,3.6935,3.7337,3.7914,3.8617,3.8818,3.8969,3.9245,3.9853,3.9827,3.9423,4.067,4.085,4.0206,4.1071,4.1455,4.1428,4.101,4.0749,4.0461,3.9297,3.8338,3.7634,3.8407,3.8145,0.0,0.0,3.7397,3.791,3.8663,3.87,3.8432,3.8145,3.7635,3.7318,3.813,3.9465,4.1083,4.2981,4.5332,4.7451,4.8805,5.0122,5.1229,5.1917,5.2965,5.3952,5.461,5.5538,5.6436,5.7244,5.7782,5.8351,5.9009,5.8381,5.7663,5.7154,5.6795,5.7034,5.8171,5.862,5.883,5.883,5.856,5.8411,5.8411,5.7932,5.7363,5.6735,5.6705,5.6316,5.5478,5.5478,5.5359,5.5179,5.5481,5.5681,5.588,5.6225,5.6475,5.6502,5.593,5.5592,5.5345,5.4391,5.4176,5.4453,5.3841,5.4154,5.494,5.4613,5.5164,5.6027,0.0,0.0,0.0,0.0,0.0,0.0,0.0,0.0,0.0,0.0,0.0,0.0,0.0,2.5561,2.5886,2.4648,2.6142,2.6965,2.6699,2.9698,3.1693,3.2231,3.3715,3.513,3.6405,3.6455,3.6983,3.804,3.804,3.804,3.8065,3.809,3.8238,3.8459,3.8779,3.9023,3.9239,3.9533,3.9677,3.9677,3.9677,3.9311,3.8652,3.744,3.612,3.5012,3.561,0.0,0.0,0.0,3.4018,3.374,3.5707,3.6511,0.0,3.6145,3.6245,0.0,0.0,0.0,4.3039,4.4327,4.6963,4.9553,5.084,5.2157,5.3294,5.3982,5.467,5.5329,5.6038,5.6188,5.6585,5.7872,5.8112,5.8351,5.9009,5.7962,5.7124,5.7094,5.5987,5.5508,0.0,5.7423,5.8141,5.8141,5.871,5.9069,5.9069,5.9069,5.874,5.8082,5.8052,5.7453,5.6166,5.6188,5.5807,5.5179,5.5481,5.5581,5.5631,5.6176,5.6151,5.5715,5.5715,5.5345,5.4714,5.4683,5.4468,5.4109,5.4078,5.4323,5.4717,5.4717,5.5295,5.6027,0.0,0.0,0.0,0.0,0.0,0.0,0.0,0.0,0.0,0.0,0.0,0.0,0.0,0.0,0.0,0.0,2.5991,2.6691,2.6908,2.8714,3.0085,3.0701,3.2045,3.3047,3.3596,3.4262,3.4819,3.5278,3.5845,3.6095,3.6088,3.6629,3.69,3.6973,3.7881,3.8405,3.867,3.9298,3.9297,3.8794,3.8568,3.7957,3.7004,3.5578,3.4237,3.2909,0.0,0.0,0.0,0.0,0.0,0.0,3.3779,0.0,0.0,3.3055,0.0,0.0,0.0,0.0,4.5299,4.7556,5.0005,5.2217,5.3533,5.4192,5.4461,5.4251,5.4012,5.3803,5.3563,5.4251,5.5149,5.6047,5.7274,5.8351,5.9009,5.8351,5.7274,5.5987,5.5448,0.0,0.0,0.0,0.0,5.8052,5.8321,5.865,5.9069,5.9099,5.88,5.8141,5.8112,5.7693,5.6795,5.6795,5.6466,5.5888,5.5842,5.5979,5.6127,5.6519,5.659,5.644,5.644,5.6269,5.6053,5.5561,5.5641,5.6046,5.5468,5.5563,5.6061,5.6076,5.6197,5.629,0.0,0.0,0.0,0.0,0.0,0.0,0.0,0.0,0.0,0.0,0.0,0.0,0.0,0.0,0.0,0.0,0.0,2.5995,2.6085,2.7581,2.866,2.9167,3.0734,3.1668,3.1756,3.2628,3.3027,3.2993,3.359,3.3811,3.3806,3.4423,3.4751,3.4845,3.583,3.6326,3.6441,3.7048,3.7069,3.6727,3.6495,3.5877,3.4974,3.3578,3.2219,0.0,0.0,0.0,0.0,0.0,0.0,0.0,0.0,0.0,0.0,0.0,0.0,0.0,0.0,4.3658,4.7177,5.0298,5.2337,5.3832,5.494,5.4999,5.464,5.3982,5.3114,5.2426,5.2247,5.2516,5.3324,5.494,5.6047,5.7214,5.856,5.7992,5.7034,5.5987,5.5478,5.479,0.0,0.0,0.0,5.7004,5.7723,5.8321,5.874,5.8979,5.8919,5.8501,5.8471,5.8141,5.7453,5.7453,5.7034,5.6218,5.6033,5.6077,5.6274,5.6616,5.681,5.681,5.681,5.681,5.6779,5.6269,5.6244,5.6419,5.5871,5.5929,5.6316,5.6284,5.6399,5.6486,0.0,0.0,0.0,0.0,0.0,0.0,0.0,0.0,0.0,0.0,0.0,0.0,0.0,0.0,0.0,0.0,0.0,0.0,2.4406,2.6425,2.7626,2.765,2.9725,3.087,3.0723,3.1412,3.1591,3.1266,3.1307,3.1266,3.1251,3.1599,3.1855,3.2134,3.2673,3.2882,3.283,3.3026,3.3284,3.3538,3.3549,3.3219,3.2556,3.1422,3.016,2.8829,2.7493,0.0,0.0,0.0,0.0,0.0,0.0,0.0,0.0,0.0,0.0,4.0307,4.4129,4.6529,4.881,5.2383,5.3713,5.4371,5.494,5.4551,5.3832,5.3084,5.1887,5.1139,0.0,0.0,5.1199,5.4461,5.461,5.5209,5.7812,5.7094,5.6526,0.0,0.0,0.0,0.0,0.0,0.0,5.5239,0.0,5.8112,5.8171,5.877,5.9099,5.9099,5.9099,5.88,5.8171,5.8112,5.7453,5.6248,5.6063,5.5979,5.6028,5.6567,5.6761,5.681,5.681,5.681,5.681,5.681,5.6277,5.5484,5.5484,5.553,5.5539,5.5539,5.5999,5.668,0.0,0.0,0.0,0.0,0.0,0.0,0.0,0.0,0.0,0.0,0.0,0.0,0.0,0.0,0.0,0.0,0.0,0.0,2.5105,2.6225,2.6817,2.6664,2.7757,2.8415,2.8611,2.9498,2.9719,2.9145,2.9609,2.9595,2.915,2.9262,2.9448,2.9696,3.0097,3.0314,3.0528,3.1558,3.1756,3.1338,3.1618,3.1417,3.0905,2.9931,2.9223,2.8644,2.775,0.0,0.0,0.0,0.0,0.0,0.0,3.4121,3.5934,0.0,0.0,4.4216,4.6401,4.938,5.2137,5.3604,5.4072,5.4132,5.3773,5.2815,5.1528,4.9883,4.8476,4.7309,0.0,0.0,0.0,5.1858,5.4162,0.0,5.856,5.856,0.0,5.7184,0.0,5.6286,5.5508,5.5718,0.0,0.0,5.6825,5.7782,5.88,5.9009,5.9099,5.9099,5.9099,5.9009,5.886,5.7842,5.7184,5.6855,5.6073,5.583,5.6028,5.6372,5.6616,5.681,5.681,5.681,5.681,5.681,5.6881,5.6965,5.6965,5.6955,5.6954,5.6954,5.6849,5.668,0.0,0.0,0.0,0.0,0.0,0.0,0.0,0.0,0.0,0.0,0.0,0.0,0.0,0.0,0.0,0.0,0.0,0.0,0.0,2.561,2.6029,2.5912,2.6649,2.7086,2.7139,2.7959,2.821,2.7776,2.8125,2.8126,2.7788,2.7683,2.7841,2.8272,2.8418,2.8445,2.8438,2.9596,2.9721,0.0,0.0,2.9803,2.9549,2.903,2.857,2.8137,2.7626,2.7507,0.0,0.0,0.0,3.2988,3.5531,3.7327,3.9019,4.1766,0.0,4.7477,4.9328,5.1668,5.3713,5.4132,5.3982,5.3354,5.1875,5.0451,4.8865,4.6591,4.5304,0.0,4.3599,0.0,0.0,0.0,0.0,0.0,5.8231,5.868,5.8501,0.0,5.7992,0.0,5.6974,5.6974,5.7154,0.0,5.7513,5.7872,5.862,5.8949,5.9099,5.9099,5.9099,5.9099,5.9099,5.7888,5.7198,5.7064,5.6184,5.583,5.6028,5.6274,5.6567,5.681,0.0,5.681,5.681,5.6906,5.7008,5.7105,5.74,5.7554,5.7514,5.7716,5.7732,5.7674,0.0,0.0,0.0,0.0,0.0,0.0,0.0,0.0,0.0,0.0,0.0,0.0,0.0,0.0,0.0,0.0,0.0,0.0,0.0,0.0,2.5341,2.54,2.6077,2.6382,2.6205,2.6782,2.6944,2.6682,2.6682,2.6624,2.6509,2.6271,2.6497,2.7027,2.6918,2.6662,2.6385,2.7258,2.7452,2.7265,2.7924,2.8275,2.8338,0.0,0.0,0.0,2.7376,2.7878,2.8788,3.0032,3.2038,3.4606,3.8331,4.0456,4.2295,4.5903,4.8208,5.0046,5.2151,5.3506,5.4311,5.4221,5.3563,5.2247,4.9659,4.7848,4.6022,4.3419,0.0,4.1871,4.1871,4.2581,4.4665,4.9299,0.0,5.2965,5.7603,5.8171,5.8381,5.9039,5.9189,5.9189,5.9129,5.865,5.859,5.9069,5.859,5.8261,5.8261,5.88,5.9099,5.9099,5.9099,5.9099,5.9099,5.8136,5.7535,5.7214,5.6577,5.6191,5.615,5.6396,5.6659,5.681,0.0,0.0,5.681,5.6971,5.6916,5.6668,5.7403,5.7684,5.7686,5.8181,5.8601,5.8899,0.0,0.0,0.0,0.0,0.0,0.0,0.0,0.0,0.0,0.0,2.2699,2.2313,0.0,0.0,0.0,0.0,0.0,0.0,0.0,0.0,0.0,2.5391,2.554,2.5636,2.5723,2.5842,0.0,0.0,0.0,2.4613,2.401,2.398,2.4033,2.4143,2.4112,2.4057,2.4031,2.479,2.507,2.511,2.5825,2.6445,2.6931,0.0,0.0,0.0,2.7376,2.7601,2.8439,3.1056,3.3387,3.5805,3.9341,4.1839,4.4255,4.7917,4.9902,5.1302,5.3345,5.4471,5.488,5.4341,5.2875,5.087,4.8237,4.5753,0.0,0.0,3.9559,3.908,3.908,4.1003,4.4088,4.8686,5.09,5.3653,5.8291,5.8471,5.8381,0.0,0.0,0.0,0.0,0.0,0.0,0.0,0.0,0.0,5.8949,5.9039,5.9099,5.9099,5.9099,5.9099,5.9099,5.8617,5.8226,5.7932,5.7725,5.7314,5.6738,5.7068,5.7089,5.681,0.0,0.0,5.681,5.6858,5.7053,5.7355,5.7883,5.8243,5.8496,5.8932,5.9029,5.8899,0.0,0.0,0.0,0.0,0.0,0.0,0.0,2.3763,2.4101,2.4492,2.4255,2.3699,2.297,2.2516,0.0,0.0,0.0,0.0,0.0,0.0,0.0,0.0,0.0,0.0,0.0,0.0,0.0,0.0,0.0,0.0,0.0,0.0,0.0,0.0,0.0,0.0,0.0,0.0,0.0,0.0,0.0,0.0,0.0,0.0,0.0,0.0,0.0,2.689,2.789,2.9807,3.1988,3.4819,4.0094,4.3063,4.5412,4.9387,5.109,5.2157,5.4162,5.494,5.494,5.3922,5.2187,4.9717,4.604,0.0,0.0,0.0,3.7375,3.7404,3.7404,3.9559,0.0,4.6561,4.8566,5.1498,5.6825,5.7004,0.0,0.0,0.0,0.0,0.0,0.0,0.0,0.0,0.0,0.0,5.9099,5.9099,5.9099,5.9099,5.9099,5.9099,5.9099,5.8737,5.846,5.8354,5.8131,5.7902,5.7638,5.7484,5.7346,5.7303,0.0,0.0,5.681,5.6923,5.7163,5.7559,5.8441,5.8927,5.9285,5.9971,6.0192,6.0059,0.0,0.0,0.0,0.0,0.0,0.0,0.0,2.4643,2.5083,2.5931,2.5931,2.537,2.409,2.3115,2.2448,0.0,0.0,0.0,0.0,0.0,0.0,0.0,0.0,0.0,0.0,0.0,0.0,0.0,0.0,0.0,0.0,0.0,0.0,0.0,0.0,0.0,0.0,0.0,0.0,0.0,0.0,0.0,0.0,0.0,0.0,0.0,0.0,0.0,2.7273,2.8502,3.0312,3.3128,3.9061,4.2735,4.5619,4.9516,5.1357,5.2606,5.4461,5.5089,5.488,5.3503,5.1498,4.8641,4.4306,4.1594,0.0,3.6118,3.5908,3.6357,3.6626,3.8482,4.1145,0.0,4.6292,4.9134,5.494,5.5418,5.6107,0.0,0.0,0.0,0.0,0.0,0.0,0.0,0.0,0.0,5.9099,5.9099,5.9099,5.9099,5.9099,5.9099,5.9099,5.8911,5.8829,5.8776,5.865,5.8624,5.8624,5.8001,5.7752,5.7795,0.0,0.0,0.0,5.6971,5.7258,5.7684,5.876,5.9464,5.9859,6.075,6.1119,6.1119,0.0,0.0,0.0,0.0,0.0,0.0,0.0,2.5067,2.5998,2.7418,2.7029,2.6417,2.5926,2.4315,2.3038,0.0,0.0,0.0,0.0,0.0,0.0,0.0,0.0,0.0,0.0,0.0,0.0,0.0,0.0,0.0,0.0,0.0,0.0,0.0,0.0,0.0,0.0,0.0,0.0,0.0,0.0,0.0,0.0,0.0,0.0,0.0,0.0,0.0,0.0,0.0,0.0,3.1523,3.4361,3.9127,4.4238,4.7017,0.0,0.0,5.3922,5.473,5.488,5.3503,5.081,4.7578,4.4167,0.0,3.8003,3.5938,3.5549,3.5938,3.7105,3.8003,4.0038,4.4556,4.5933,4.8252,5.3653,5.485,5.5927,0.0,0.0,0.0,0.0,0.0,0.0,0.0,0.0,0.0,0.0,5.9099,5.9099,5.9099,5.9099,5.9099,5.9099,5.9606,5.9736,5.9439,6.0172,6.0147,5.9297,5.8857,5.8362,5.7795,0.0,0.0,0.0,5.681,5.7242,5.7918,5.8669,5.9387,6.0044,6.0835,6.1119,6.1119,0.0,0.0,0.0,0.0,0.0,0.0,2.4271,2.4745,2.5473,2.6928,2.6894,2.6317,2.5251,2.4482,2.3648,0.0,0.0,0.0,0.0,0.0,0.0,0.0,0.0,0.0,0.0,0.0,0.0,0.0,0.0,0.0,0.0,0.0,0.0,0.0,0.0,0.0,0.0,0.0,0.0,0.0,0.0,0.0,0.0,0.0,0.0,0.0,0.0,0.0,0.0,0.0,0.0,0.0,3.1297,3.4727,0.0,0.0,4.7095,4.9793,5.2306,5.3473,5.3743,5.2815,5.0122,4.683,4.3579,0.0,3.7853,3.5908,3.5519,3.5669,3.6178,3.6806,3.8362,4.1803,4.2581,4.4616,4.9912,5.087,5.2366,0.0,0.0,0.0,0.0,0.0,0.0,0.0,0.0,0.0,0.0,5.9099,5.9099,5.9099,5.9261,5.9315,5.9315,5.9773,5.9986,6.0061,6.0377,6.0248,5.9625,5.905,5.8423,5.7795,0.0,0.0,0.0,5.681,5.7242,5.7965,5.8624,5.9355,6.0087,6.0835,6.1119,6.1119,0.0,0.0,0.0,0.0,0.0,2.2801,2.4271,2.4508,2.5015,2.6488,2.6522,2.603,2.5088,2.4501,2.3877,2.3106,0.0,0.0,0.0,0.0,0.0,0.0,0.0,0.0,0.0,0.0,0.0,0.0,0.0,0.0,0.0,0.0,0.0,0.0,0.0,0.0,0.0,0.0,0.0,0.0,0.0,0.0,0.0,0.0,0.0,0.0,0.0,0.0,0.0,0.0,0.0,0.0,2.9349,3.1477,3.4589,0.0,4.4281,4.7309,5.0002,5.1648,5.2396,5.1528,4.9208,4.626,0.0,0.0,3.7994,3.6209,3.5651,3.5579,3.5759,3.6327,3.7494,3.9738,4.0606,4.2551,4.707,4.8207,0.0,0.0,0.0,0.0,0.0,0.0,0.0,0.0,0.0,0.0,0.0,5.9099,5.9099,5.9099,5.9369,5.9529,5.9529,5.9933,6.0197,6.0377,6.0481,6.03,5.9778,5.9101,5.8423,0.0,0.0,0.0,0.0,5.681,5.7258,5.8058,5.8578,5.9343,6.0173,6.0793,6.1002,6.1119,0.0,0.0,0.0,0.0,0.0,0.0,0.0,2.4508,2.5015,2.6488,2.6048,2.5737,2.6059,2.4466,2.3536,2.3853,0.0,0.0,0.0,0.0,0.0,0.0,0.0,0.0,0.0,0.0,2.5157,2.5202,2.613,0.0,0.0,0.0,0.0,0.0,0.0,0.0,0.0,0.0,0.0,0.0,0.0,0.0,0.0,0.0,0.0,0.0,0.0,0.0,0.0,0.0,0.0,0.0,0.0,2.9956,3.2437,3.7105,4.1713,4.5603,4.698,4.9254,5.093,4.9659,4.7976,4.5881,0.0,0.0,3.8305,3.6909,3.6006,3.5699,3.6357,3.6985,3.7853,3.92,4.1055,4.3309,4.5963,4.8027,0.0,0.0,0.0,0.0,0.0,0.0,0.0,0.0,0.0,0.0,0.0,0.0,5.9099,5.9099,5.9369,5.9529,5.9529,6.0114,6.0377,6.0377,6.069,6.0455,5.9778,5.9101,0.0,0.0,0.0,0.0,0.0,5.681,5.7353,5.8211,5.8518,5.9375,6.042,6.0633,6.0877,6.1119,0.0,0.0,0.0,0.0,0.0,0.0,0.0,2.3004,2.3342,2.4323,2.4222,2.4132,2.4251,2.3755,2.3217,2.2855,0.0,0.0,0.0,0.0,0.0,0.0,0.0,0.0,0.0,0.0,2.6399,2.6573,2.7418,2.7504,2.6986,0.0,0.0,0.0,0.0,0.0,0.0,0.0,0.0,0.0,0.0,0.0,0.0,0.0,0.0,0.0,0.0,0.0,0.0,0.0,0.0,0.0,0.0,0.0,0.0,3.3006,3.6956,0.0,4.3369,4.4855,4.5681,4.5364,4.4582,4.3339,4.1048,3.9603,3.8305,3.6878,3.6006,3.5579,3.5789,3.5968,3.6985,3.9649,4.0606,4.2102,0.0,0.0,0.0,0.0,0.0,0.0,0.0,0.0,0.0,0.0,0.0,0.0,0.0,0.0,5.9099,5.9099,5.9613,5.9827,5.9827,5.9918,6.0229,6.069,5.9819,5.9316,5.907,5.8393,0.0,0.0,0.0,0.0,0.0,5.681,5.7353,5.8257,5.8669,5.9476,6.042,6.0835,6.1002,6.1119,0.0,0.0,0.0,0.0,0.0,0.0,0.0,2.2313,2.2448,2.2936,2.297,2.3105,2.3376,2.3139,2.2902,2.2733,0.0,0.0,0.0,0.0,0.0,0.0,0.0,0.0,0.0,2.6752,2.74,2.753,2.8639,2.8889,2.8389,2.9917,2.9657,0.0,0.0,0.0,0.0,0.0,0.0,0.0,0.0,0.0,2.8064,0.0,0.0,0.0,0.0,0.0,0.0,0.0,0.0,0.0,0.0,0.0,0.0,0.0,3.3544,0.0,3.9709,4.1354,4.2222,4.2252,4.2352,0.0,0.0,3.8995,3.8341,3.6909,3.6006,3.5519,3.5519,3.5699,3.6626,3.8901,3.9918,0.0,0.0,0.0,0.0,0.0,0.0,0.0,0.0,0.0,0.0,0.0,0.0,0.0,0.0,0.0,5.9153,5.9261,5.972,6.0016,6.0016,5.989,5.9993,6.0393,5.9316,5.8639,5.8393,0.0,0.0,0.0,0.0,0.0,0.0,5.681,5.7258,5.798,5.8441,5.9254,6.0206,6.0666,6.0919,6.1119,0.0,0.0,0.0,0.0,0.0,0.0,0.0,0.0,2.2313,2.2313,2.2313,2.2564,2.3241,2.2699,2.2598,2.3241,0.0,0.0,0.0,0.0,0.0,0.0,0.0,0.0,0.0,2.7249,2.8095,2.8186,2.9744,3.0239,2.9798,3.1617,3.1154,2.8798,2.9917,2.9366,0.0,0.0,0.0,0.0,0.0,0.0,0.0,0.0,0.0,0.0,0.0,0.0,0.0,0.0,0.0,0.0,0.0,0.0,0.0,0.0,0.0,0.0,0.0,3.8452,3.9918,4.0021,0.0,0.0,3.9025,3.8684,0.0,3.6908,3.6006,3.5519,3.5639,3.6118,3.6776,3.7614,0.0,0.0,0.0,0.0,0.0,0.0,0.0,0.0,0.0,0.0,0.0,0.0,0.0,0.0,0.0,0.0,0.0,5.9476,5.9736,5.9895,5.9978,5.9829,5.9716,5.9716,5.8978,5.8331,5.7826,0.0,0.0,0.0,0.0,0.0,0.0,5.681,5.7067,5.7543,5.8072,5.885,5.9772,6.0249,6.075,6.1119,0.0,0.0,0.0,0.0,0.0,0.0,0.0,0.0,0.0,0.0,2.2313,2.2381,2.255,2.2415,2.2381,0.0,0.0,0.0,0.0,0.0,0.0,0.0,0.0,0.0,0.0,2.7068,2.7881,2.8894,2.9945,3.0691,3.1061,3.1989,3.1584,3.0053,2.9825,2.8935,2.7585,0.0,0.0,0.0,0.0,0.0,0.0,0.0,0.0,0.0,3.1032,3.0731,0.0,0.0,0.0,0.0,0.0,0.0,0.0,0.0,3.1508,0.0,3.3607,0.0,3.5381,3.6472,3.7375,3.7995,0.0,3.7991,3.7716,3.6785,3.6006,3.5818,3.6776,3.6686,3.7558,0.0,0.0,0.0,0.0,0.0,0.0,0.0,0.0,0.0,0.0,0.0,0.0,0.0,0.0,0.0,0.0,0.0,0.0,5.9446,5.8827,5.8784,5.9509,5.9195,5.9008,5.9008,5.7857,5.7487,5.7795,0.0,0.0,0.0,0.0,0.0,0.0,5.681,5.7067,5.7559,5.8441,5.912,5.9816,6.0623,6.1035,6.1119,0.0,0.0,0.0,0.0,0.0,0.0,0.0,0.0,0.0,0.0,0.0,0.0,0.0,0.0,0.0,0.0,0.0,0.0,0.0,0.0,0.0,0.0,0.0,0.0,2.6657,2.758,2.8681,3.003,3.1192,3.2168,3.2886,3.3571,3.3033,3.1398,3.0117,2.899,2.7978,2.771,2.8004,0.0,0.0,0.0,0.0,0.0,0.0,0.0,3.1959,3.172,0.0,3.1031,3.0941,3.0821,0.0,0.0,0.0,0.0,3.1555,3.2743,3.2933,3.3695,3.4547,3.5003,3.5922,3.6722,3.6753,3.6971,3.6971,3.6257,3.5782,3.5818,3.6806,3.6956,0.0,0.0,4.2021,0.0,0.0,0.0,0.0,0.0,0.0,0.0,0.0,0.0,0.0,0.0,0.0,0.0,0.0,0.0,0.0,0.0,5.8398,5.8593,5.9368,5.8723,5.83,5.835,5.7303,5.6994,5.7333,0.0,0.0,0.0,0.0,0.0,5.681,5.681,5.6954,5.7258,5.8211,5.8895,5.9431,6.042,6.0919,6.1119,0.0,0.0,0.0,0.0,0.0,0.0,0.0,0.0,0.0,0.0,0.0,0.0,0.0,0.0,0.0,0.0,0.0,0.0,0.0,0.0,0.0,0.0,0.0,2.5422,2.7013,2.8363,2.9786,3.1292,3.301,3.4182,3.4849,3.5731,3.4908,3.2667,3.0855,2.9529,2.8642,2.8227,2.8317,0.0,2.9475,0.0,0.0,0.0,0.0,0.0,0.0,0.0,0.0,3.2557,3.2527,3.2377,3.16,0.0,0.0,0.0,0.0,0.0,3.3223,3.4654,3.5705,3.4878,3.5552,3.6321,3.5782,3.607,3.629,3.5739,3.5639,3.5938,3.6896,3.7584,0.0,0.0,0.0,0.0,0.0,0.0,0.0,0.0,0.0,0.0,0.0,0.0,0.0,0.0,0.0,0.0,0.0,0.0,0.0,0.0,5.8075,5.844,5.9165,5.8232,5.7765,5.7672,5.7087,5.681,5.681,5.681,0.0,0.0,0.0,0.0,5.681,5.681,5.681,5.6906,5.7887,5.8578,5.903,6.012,6.0685,6.092,0.0,0.0,0.0,0.0,0.0,0.0,0.0,0.0,0.0,0.0,0.0,0.0,0.0,0.0,0.0,0.0,0.0,0.0,0.0,0.0,0.0,0.0,2.468,2.6454,2.8604,2.8982,3.0178,3.22,3.5001,3.6382,3.6479,3.7822,3.6722,3.3476,3.2503,3.1083,2.9452,2.9943,2.9872,2.9502,0.0,0.0,0.0,0.0,0.0,0.0,0.0,0.0,0.0,3.2886,3.2527,3.2258,3.1061,0.0,0.0,0.0,0.0,0.0,3.3456,3.537,3.6971,3.5736,3.5552,3.5814,3.6291,3.6038,3.5802,3.6241,3.6327,3.7045,3.9379,4.0337,4.1594,0.0,0.0,0.0,0.0,0.0,0.0,0.0,0.0,0.0,0.0,0.0,0.0,0.0,0.0,0.0,0.0,0.0,0.0,0.0,0.0,5.7162,5.8035,5.7869,5.7549,5.6964,5.6871,5.681,5.681,5.681,5.681,0.0,0.0,0.0,5.681,5.681,5.681,5.6954,5.8257,5.885,5.9075,6.0463,6.0639,6.0133,0.0,0.0,0.0,0.0,0.0,0.0,0.0,0.0,0.0,0.0,0.0,0.0,0.0,0.0,0.0,0.0,0.0,0.0,0.0,0.0,0.0,2.4154,2.564,2.7106,2.8481,3.0136,3.2236,3.4723,3.7335,3.8817,3.9122,3.8598,3.7032,3.4679,3.3598,3.2169,3.063,3.0598,3.0379,3.0103,0.0,0.0,0.0,0.0,0.0,0.0,0.0,0.0,0.0,0.0,3.3036,3.2946,3.2317,0.0,0.0,0.0,0.0,0.0,3.3754,3.4973,3.6038,3.6462,3.7074,3.7717,3.8031,3.7858,3.7823,3.8452,3.8601,3.92,0.0,0.0,4.4586,4.7938,0.0,0.0,0.0,0.0,0.0,0.0,0.0,0.0,0.0,0.0,0.0,0.0,0.0,0.0,0.0,0.0,0.0,0.0,0.0,0.0,5.6638,5.63,5.6146,5.6176,5.6176,5.6176,5.6207,5.6625,5.681,0.0,0.0,5.681,5.681,5.681,5.681,5.6906,5.8072,5.8414,5.8434,5.953,5.9694,5.9404,0.0,0.0,0.0,0.0,0.0,0.0,0.0,0.0,0.0,0.0,0.0,0.0,0.0,0.0,0.0,0.0,0.0,0.0,0.0,0.0,2.3258,2.4582,2.626,2.7927,2.9529,3.2304,3.5044,3.7669,4.0367,4.1766,4.1857,3.9303,3.7311,3.5836,3.462,3.3205,3.1757,3.1593,3.1259,3.0769,0.0,0.0,0.0,0.0,0.0,0.0,0.0,0.0,0.0,0.0,0.0,0.0,0.0,0.0,0.0,3.3001,3.2491,3.2135,3.3994,3.4607,3.516,3.6956,3.8182,3.911,3.9738,3.9888,4.0157,4.1115,4.1324,4.1683,0.0,4.4915,0.0,5.1109,0.0,0.0,0.0,0.0,0.0,0.0,0.0,0.0,0.0,0.0,0.0,0.0,0.0,0.0,0.0,0.0,0.0,0.0,0.0,0.0,5.5468,5.4822,5.4822,5.5468,5.5468,5.5468,5.5499,5.6207,5.6563,5.6563,5.6748,5.6717,5.6563,5.6563,5.6471,5.6412,5.7415,5.7886,5.8012,5.8462,5.8674,5.8721,0.0,0.0,0.0,0.0,0.0,0.0,0.0,0.0,0.0,0.0,0.0,0.0,0.0,0.0,0.0,0.0,0.0,0.0,0.0,0.0,2.2802,2.3231,2.5778,2.9283,3.3763,3.6202,3.8471,4.0594,4.4436,4.565,4.4243,4.0619,3.8111,3.6694,3.5847,3.4331,3.2494,3.3797,3.3237,3.1588,3.2207,0.0,0.0,0.0,0.0,0.0,0.0,0.0,0.0,0.0,0.0,0.0,0.0,0.0,3.2147,3.2182,3.2307,3.2736,3.4116,3.4955,3.5759,3.7075,3.7494,3.8212,4.0666,4.1272,4.1773,4.3658,4.4018,4.4257,0.0,4.7698,5.0524,0.0,0.0,0.0,0.0,0.0,0.0,0.0,0.0,0.0,0.0,0.0,0.0,0.0,0.0,0.0,0.0,0.0,0.0,0.0,0.0,0.0,5.4745,5.4145,5.4145,5.4745,5.4745,5.4745,5.4775,5.5468,5.5776,5.5807,5.6532,5.644,5.5776,5.5776,5.5407,5.4977,5.6149,5.7388,5.8494,5.8018,5.7991,5.8086,0.0,0.0,0.0,0.0,0.0,0.0,0.0,0.0,0.0,0.0,0.0,0.0,0.0,0.0,0.0,0.0,0.0,0.0,0.0,0.0,2.2802,2.4648,2.6322,2.9045,3.2959,3.6159,3.9425,4.2943,4.5087,4.5602,4.4513,4.0756,3.8464,3.7415,3.614,3.518,3.4484,3.4583,3.4201,3.3514,3.3298,3.2815,0.0,0.0,0.0,0.0,0.0,0.0,0.0,0.0,3.3868,3.3058,3.2799,3.2454,3.2195,3.2598,3.2625,3.2706,3.3634,3.4681,3.5908,3.7614,3.896,4.0457,4.2701,4.3838,4.5005,4.698,4.7728,4.8163,0.0,0.0,0.0,0.0,0.0,0.0,0.0,0.0,0.0,0.0,0.0,0.0,0.0,0.0,0.0,0.0,0.0,0.0,0.0,0.0,0.0,0.0,0.0,0.0,0.0,5.3437,5.3221,5.3468,5.3899,5.4068,5.4068,5.4791,5.5099,5.5099,5.5376,5.5345,5.5099,5.5099,5.4945,5.4808,5.5796,5.6876,5.7793,5.7609,5.7458,5.7392,0.0,0.0,0.0,0.0,0.0,0.0,0.0,0.0,0.0,0.0,0.0,0.0,0.0,0.0,0.0,0.0,0.0,0.0,2.2313,2.2003,2.2873,2.5222,2.6445,2.8653,3.2118,3.5109,3.8654,4.2805,4.4009,4.436,4.3802,4.0527,3.8734,3.8193,3.6907,3.6347,3.6364,3.5856,3.5399,3.4956,3.4471,3.3712,0.0,0.0,0.0,0.0,0.0,0.0,0.0,0.0,3.3986,3.3312,3.281,3.2654,3.2733,3.2896,3.3016,3.3245,3.3694,3.4651,3.5878,3.7404,3.9589,4.2073,4.4676,4.6292,4.7818,4.9793,5.0212,5.0375,5.1109,0.0,0.0,0.0,0.0,0.0,0.0,0.0,0.0,0.0,0.0,0.0,0.0,0.0,0.0,0.0,0.0,0.0,0.0,0.0,0.0,0.0,0.0,0.0,0.0,5.2944,5.2698,5.2729,5.3191,5.3406,5.3437,5.4068,5.4375,5.4375,5.4591,5.456,5.4375,5.4375,5.4406,5.457,5.5228,5.6131,5.6988,5.7,5.7025,5.7063,0.0,0.0,0.0,0.0,0.0,0.0,0.0,0.0,0.0,0.0,0.0,0.0,0.0,0.0,0.0,0.0,0.0,0.0,2.2313,2.2313,2.297,2.444,2.5916,2.8351,3.1876,3.3459,3.6106,3.9802,4.1419,4.2242,4.2219,4.0054,3.9005,3.8971,3.8261,3.7922,3.7922,3.7922,3.7056,3.5737,3.5704,3.4879,3.361,0.0,0.0,0.0,0.0,0.0,0.0,0.0,3.428,3.3727,3.2111,3.2714,3.3808,3.2876,3.3513,3.4503,3.4503,3.4981,3.5699,3.6357,3.899,4.2462,4.6411,4.8327,4.9868,5.1798,5.1199,5.0435,5.1139,5.1798,0.0,0.0,0.0,0.0,0.0,0.0,0.0,0.0,0.0,0.0,0.0,0.0,0.0,0.0,0.0,0.0,0.0,0.0,0.0,0.0,0.0,0.0,0.0,5.2698,5.2698,5.2698,5.2698,5.2698,5.2729,5.3406,5.3714,5.3745,5.4375,5.4283,5.3714,5.3714,5.3854,5.4146,5.4327,5.5122,5.6126,5.6323,5.6641,5.7025,0.0,0.0,0.0,0.0,0.0,0.0,0.0,0.0,0.0,0.0,0.0,0.0,0.0,0.0,0.0,0.0,0.0,0.0,2.2313,2.2313,2.297,2.444,2.5429,2.6721,2.8363,3.0847,3.4648,3.988,4.1469,4.1726,4.0745,4.0624,3.9698,3.8174,3.9076,3.914,3.8633,3.8125,3.7937,3.7926,3.6884,3.5898,3.5085,0.0,0.0,0.0,0.0,0.0,0.0,0.0,0.0,0.0,3.3328,3.3631,3.3858,3.3157,3.3693,3.4414,3.3903,3.528,3.7135,3.8272,4.1743,4.5514,4.8087,4.8626,4.9523,5.2905,5.3683,5.3653,5.3384,0.0,0.0,0.0,0.0,0.0,0.0,0.0,0.0,0.0,0.0,0.0,0.0,0.0,0.0,0.0,0.0,0.0,0.0,0.0,0.0,0.0,0.0,0.0,0.0,0.0,5.2698,5.2698,5.2698,5.2698,5.2729,5.2914,5.3006,5.3037,5.3221,5.3191,5.3006,5.3006,5.3419,5.4146,5.4465,5.5295,5.6362,5.668,5.6987,5.7214,0.0,0.0,0.0,0.0,0.0,0.0,0.0,0.0,0.0,0.0,2.2639,2.2514,0.0,0.0,0.0,0.0,0.0,0.0,0.0,2.2962,2.3374,2.456,2.5347,2.6543,2.8201,3.1056,3.412,3.7349,3.8887,3.9466,3.9199,4.0288,4.0032,3.873,4.0916,4.1115,3.9785,3.9691,3.9411,3.8903,3.8024,3.7235,3.6546,0.0,0.0,0.0,0.0,0.0,0.0,0.0,0.0,0.0,3.3652,3.4076,3.4422,3.3677,3.4152,3.4921,3.5011,3.6387,3.8302,4.039,4.3618,4.698,4.9464,5.0571,5.1858,0.0,5.5059,5.485,5.497,0.0,0.0,0.0,0.0,0.0,0.0,0.0,0.0,0.0,0.0,0.0,0.0,0.0,0.0,0.0,0.0,0.0,0.0,0.0,0.0,0.0,0.0,0.0,0.0,0.0,0.0,5.1898,5.1898,5.1898,5.1929,5.2206,5.2452,5.2698,5.2698,5.2421,5.1929,5.2206,5.2872,5.3703,5.3639,5.4576,5.5979,5.5913,5.6321,5.6854,0.0,0.0,0.0,0.0,0.0,0.0,0.0,0.0,0.0,0.0,2.3003,2.302,0.0,0.0,0.0,0.0,0.0,0.0,0.0,0.0,2.4048,2.4784,2.5778,2.7523,3.0138,3.289,3.4052,3.3515,3.5053,3.6411,3.7629,3.9643,4.03,3.9929,4.3189,4.325,4.1069,4.1789,4.0933,3.9073,3.9005,3.8599,3.7918,3.7178,0.0,0.0,0.0,0.0,0.0,0.0,0.0,0.0,3.3579,3.4339,3.5297,3.4321,3.4747,3.5759,3.6985,3.7883,3.929,4.2542,4.5113,4.7698,5.087,5.3443,5.5508,5.6615,0.0,5.482,0.0,0.0,0.0,0.0,0.0,0.0,0.0,0.0,0.0,0.0,0.0,0.0,0.0,0.0,0.0,0.0,0.0,0.0,0.0,0.0,0.0,0.0,0.0,0.0,0.0,0.0,0.0,0.0,5.0697,5.0697,5.0728,5.1313,5.1959,5.2513,5.2513,5.1836,5.0728,5.1387,5.2199,5.2944,5.2311,5.3335,5.5111,5.4453,5.5032,5.6118,0.0,0.0,0.0,0.0,0.0,0.0,0.0,0.0,0.0,0.0,0.0,0.0,0.0,0.0,0.0,0.0,0.0,0.0,0.0,0.0,2.4107,2.5002,2.7277,2.9057,3.0255,3.1905,3.3012,3.3515,3.6113,3.6949,3.6194,4.1278,4.2033,3.9285,4.2956,4.332,4.1136,4.0746,4.0316,3.9808,3.9208,3.8903,3.87,3.7947,3.7044,0.0,0.0,0.0,0.0,0.0,0.0,0.0,3.4881,3.5208,3.5367,3.4607,3.4942,3.5669,3.6477,3.7913,3.9978,4.323,4.7549,5.1528,5.3832,5.479,5.5119,5.488,5.5718,0.0,0.0,0.0,0.0,0.0,0.0,0.0,0.0,0.0,0.0,0.0,0.0,0.0,0.0,0.0,0.0,0.0,0.0,0.0,0.0,0.0,0.0,0.0,0.0,0.0,5.0913,5.0759,5.0697,0.0,5.0697,5.0697,5.0697,5.0851,5.0974,5.1128,5.1128,5.0974,5.074,5.1208,5.1737,5.2248,5.2417,5.3172,5.4197,5.4218,5.47,5.5414,0.0,0.0,0.0,0.0,0.0,0.0,0.0,0.0,0.0,0.0,0.0,0.0,0.0,0.0,0.0,0.0,0.0,0.0,0.0,0.0,0.0,2.622,2.8252,2.9681,3.0313,3.1702,3.276,3.3502,3.5399,3.5896,3.5162,3.9418,4.0264,3.8428,4.2301,4.2735,4.0608,4.1006,4.0756,4.0079,3.9673,3.9537,3.9503,3.9073,3.847,0.0,0.0,0.0,0.0,0.0,0.0,0.0,0.0,0.0,3.488,3.4237,3.4472,3.531,3.6567,3.8153,4.0516,4.5065,4.9224,5.2546,5.3922,5.4221,5.4132,5.3773,5.479,0.0,0.0,0.0,0.0,0.0,0.0,0.0,0.0,0.0,0.0,0.0,0.0,0.0,0.0,0.0,0.0,0.0,0.0,0.0,0.0,0.0,0.0,0.0,0.0,0.0,5.0205,4.9866,4.9682,4.9682,4.9682,4.9682,4.9712,5.0389,5.0328,4.9743,5.042,5.0328,4.9712,5.0306,5.0934,5.1521,5.1495,5.2353,5.3634,5.3489,5.4061,5.4929,0.0,0.0,0.0,0.0,0.0,0.0,0.0,0.0,0.0,0.0,0.0,0.0,0.0,0.0,0.0,0.0,0.0,0.0,0.0,0.0,0.0,2.7286,2.8769,2.9852,3.041,3.1932,3.2959,3.3504,3.4324,3.4788,3.4877,3.7187,3.8029,3.7778,4.1411,4.1869,4.0028,4.1386,4.123,4.0113,4.0113,4.0113,4.0113,0.0,0.0,0.0,0.0,0.0,0.0,0.0,0.0,0.0,0.0,0.0,3.4411,3.3849,3.3997,3.4741,3.6716,3.8721,4.1534,4.68,5.0002,5.2037,5.2695,5.2845,5.2875,5.2995,0.0,0.0,0.0,0.0,0.0,0.0,0.0,0.0,0.0,0.0,0.0,0.0,0.0,0.0,0.0,0.0,0.0,0.0,0.0,0.0,0.0,0.0,0.0,0.0,0.0,4.9497,4.9497,4.8912,4.8604,4.8604,4.8604,4.8604,4.8666,4.9805,4.9712,4.8666,4.9835,4.9682,4.8666,4.9418,5.0164,5.0762,5.0476,5.1529,5.3099,5.2717,5.3306,5.4363,0.0,0.0,0.0,0.0,0.0,0.0,0.0,0.0,0.0,0.0,2.7169,2.7527,0.0,0.0,0.0,0.0,0.0,0.0,0.0,0.0,0.0,2.6576,2.8497,2.9906,3.0573,3.2482,3.3477,3.3491,3.4767,3.5646,3.6285,3.8622,3.8995,3.781,4.0342,4.0941,4.0078,4.0277,4.0282,4.0113,4.0113,4.0113,4.0113,0.0,0.0,0.0,0.0,0.0,0.0,0.0,3.7836,0.0,0.0,0.0,0.0,3.4411,3.4,3.4053,3.6058,4.0068,4.4257,4.68,4.8985,5.0614,0.0,0.0,5.1648,0.0,0.0,0.0,0.0,0.0,0.0,0.0,0.0,0.0,0.0,0.0,0.0,0.0,0.0,0.0,0.0,0.0,0.0,0.0,0.0,0.0,0.0,0.0,4.9528,4.8912,4.8789,0.0,4.8758,4.8666,4.8604,4.8604,4.8604,4.8604,4.8635,4.882,4.8789,4.8635,4.882,4.8789,4.8676,4.9546,4.9939,5.0137,5.0781,5.1531,5.2188,5.2305,5.2762,5.3483,0.0,0.0,0.0,0.0,0.0,0.0,0.0,0.0,0.0,0.0,0.0,2.8779,0.0,0.0,0.0,0.0,0.0,0.0,0.0,0.0,0.0,2.7612,2.9193,3.0094,3.0038,3.1962,3.313,3.3514,3.4455,3.5631,3.7049,3.8065,3.8642,3.88,3.9439,3.9815,3.9962,3.9561,3.9688,4.0113,4.0113,4.0062,0.0,0.0,0.0,0.0,0.0,0.0,0.0,0.0,0.0,0.0,0.0,0.0,0.0,0.0,3.4082,3.403,3.64,3.9499,4.2761,4.5514,4.7399,4.8955,5.0315,5.0391,5.0421,0.0,0.0,0.0,0.0,0.0,0.0,0.0,0.0,0.0,0.0,0.0,0.0,0.0,0.0,0.0,0.0,0.0,0.0,0.0,0.0,0.0,0.0,4.9097,4.8943,4.8635,4.8604,0.0,4.8604,4.8604,4.8604,4.8604,4.8604,4.8604,4.8604,4.8604,4.8604,4.8604,4.8604,4.8604,4.8646,4.93,4.9693,4.9971,5.0679,5.1471,5.22,5.2378,5.2868,5.3416,0.0,0.0,0.0,0.0,0.0,0.0,0.0,0.0,0.0,0.0,0.0,0.0,0.0,0.0,0.0,0.0,0.0,0.0,0.0,0.0,0.0,2.8973,2.9946,3.0387,3.0129,3.1856,3.3006,3.3484,3.4322,3.5818,3.7913,3.8093,3.9013,4.0519,3.956,3.9283,3.9538,3.9247,3.9468,4.0014,3.964,3.9513,0.0,0.0,0.0,0.0,0.0,0.0,0.0,0.0,0.0,0.0,0.0,0.0,0.0,0.0,0.0,3.3979,3.6091,3.8112,4.0307,4.309,4.5065,4.677,0.0,0.0,0.0,0.0,0.0,0.0,0.0,0.0,0.0,0.0,0.0,0.0,0.0,0.0,0.0,0.0,0.0,0.0,0.0,0.0,0.0,0.0,0.0,0.0,4.8635,4.8604,4.8604,4.8604,4.8604,4.8604,4.8604,4.845,4.8358,4.8358,4.8481,4.843,4.8275,4.8738,4.8759,4.8481,4.8584,4.8604,4.8646,4.9219,4.9653,4.9971,5.064,5.1475,5.2307,5.2485,5.2938,5.3518,0.0,0.0,0.0,0.0,0.0,0.0,0.0,0.0,0.0,0.0,0.0,0.0,0.0,0.0,3.1515,3.0108,2.9973,2.9683,2.9041,2.9769,3.0222,3.0225,3.0406,0.0,3.146,3.2767,3.3475,3.3484,3.4801,3.6776,3.932,3.9948,4.1265,4.3049,4.1275,3.9818,3.8711,3.9437,3.9775,3.9708,3.8421,0.0,0.0,0.0,0.0,0.0,0.0,0.0,0.0,0.0,0.0,0.0,0.0,0.0,0.0,0.0,0.0,0.0,3.4438,3.6066,3.7913,3.9379,4.1615,4.3858,0.0,0.0,0.0,0.0,0.0,0.0,0.0,0.0,0.0,0.0,0.0,0.0,0.0,0.0,0.0,0.0,0.0,0.0,0.0,0.0,0.0,0.0,0.0,0.0,4.8604,4.8604,4.8604,4.8604,4.8604,4.8604,4.8604,4.7989,4.765,4.765,4.8093,4.7949,4.7318,4.9024,4.9236,4.8244,4.8491,4.8604,4.8646,4.9501,4.9892,5.001,5.0826,5.1651,5.2307,5.2307,5.2834,5.3518,0.0,0.0,0.0,0.0,0.0,0.0,0.0,0.0,0.0,0.0,0.0,0.0,0.0,3.2429,3.209,3.1562,3.1495,3.1596,3.1799,3.2122,3.2138,3.1737,3.2171,3.2176,3.1632,3.2853,3.3473,3.3484,3.4412,3.5968,3.8123,3.8362,3.908,4.0157,4.0366,4.0497,4.0402,3.8528,3.8303,3.9106,3.8261,0.0,0.0,0.0,0.0,0.0,0.0,0.0,0.0,0.0,0.0,0.0,0.0,0.0,0.0,0.0,0.0,3.4252,3.4444,3.5308,3.6584,3.8317,4.0427,4.2432,4.3748,0.0,0.0,0.0,0.0,0.0,0.0,0.0,0.0,0.0,0.0,0.0,0.0,0.0,0.0,0.0,0.0,0.0,0.0,0.0,0.0,0.0,0.0,0.0,4.8604,4.8604,4.8419,4.7989,4.7958,4.7742,4.7311,4.7065,4.6973,4.6942,4.7379,4.77,4.7926,4.8789,4.9213,4.9276,4.9407,4.9097,4.8646,4.9541,4.9892,5.001,5.1129,5.1871,5.2343,5.2589,5.3007,5.3518,0.0,0.0,0.0,0.0,0.0,0.0,0.0,0.0,0.0,0.0,0.0,0.0,0.0,0.0,3.3964,3.3457,3.3173,3.3119,3.3389,3.3423,3.3321,3.3173,3.3594,3.3353,3.2311,3.3329,3.3761,3.3484,3.4174,3.5489,3.7404,3.7644,3.8212,3.908,3.9529,4.0154,4.0751,3.8981,3.8513,3.8904,0.0,0.0,3.7806,0.0,0.0,0.0,0.0,0.0,0.0,0.0,0.0,0.0,0.0,0.0,0.0,0.0,0.0,0.0,3.468,0.0,0.0,0.0,0.0,4.0187,4.1953,0.0,0.0,0.0,0.0,0.0,0.0,0.0,0.0,0.0,0.0,0.0,0.0,0.0,0.0,0.0,0.0,0.0,0.0,0.0,0.0,0.0,0.0,0.0,4.8604,4.8389,4.7958,4.7281,4.725,4.7065,4.6603,4.6357,4.6265,4.6265,4.6695,4.7059,4.7502,4.8326,4.8828,4.9011,4.9265,4.9253,4.9097,4.9821,5.0097,5.0175,5.1205,5.1908,5.2343,5.2624,5.3041,5.3518,0.0,0.0,0.0,0.0,0.0,0.0,0.0,0.0,0.0,0.0,0.0,0.0,0.0,0.0,0.0,3.5802,3.5013,3.4303,3.3592,3.3503,3.3808,3.4518,3.4496,3.4203,3.3566,3.4217,3.4241,3.3484,3.4174,3.5459,3.7375,3.8003,3.902,4.0217,3.8931,3.8721,3.9403,4.0696,4.0516,3.9254,0.0,3.7741,3.8299,0.0,0.0,0.0,3.9431,3.8999,0.0,3.8258,0.0,0.0,0.0,0.0,0.0,0.0,0.0,0.0,0.0,0.0,0.0,0.0,0.0,0.0,0.0,0.0,0.0,0.0,0.0,0.0,0.0,0.0,0.0,0.0,0.0,0.0,0.0,0.0,0.0,0.0,0.0,0.0,0.0,0.0,0.0,0.0,0.0,4.8573,4.8573,4.7927,4.725,4.6573,4.6542,4.6542,4.6542,4.5895,4.5557,4.5596,4.5981,4.6053,4.5891,4.7659,4.8061,4.7385,4.8088,4.8948,4.9908,5.0299,5.0454,5.0563,5.1016,5.1651,5.2307,5.2307,5.2834,5.3518,0.0,0.0,0.0,0.0,0.0,0.0,0.0,0.0,0.0,0.0,0.0,0.0,3.7855,3.7922,3.7753,3.7313,3.7077,3.6874,3.6671,3.61,3.5636,3.5385,3.4865,3.4047,3.2895,3.3498,3.3704,3.3484,3.4174,3.5011,3.6028,3.6207,3.6746,3.7584,3.7644,3.7793,3.7943,3.7375,0.0,3.926,3.7601,3.8129,0.0,0.0,0.0,0.0,0.0,3.9118,3.9659,0.0,3.8969,3.8784,0.0,0.0,0.0,0.0,0.0,0.0,3.5133,0.0,0.0,0.0,0.0,0.0,0.0,0.0,0.0,0.0,0.0,0.0,0.0,0.0,0.0,0.0,0.0,0.0,0.0,0.0,0.0,0.0,0.0,0.0,0.0,0.0,0.0,0.0,0.0,4.7896,4.7896,4.6788,4.6049,4.5865,4.5403,4.5126,4.5126,4.4941,4.4887,4.4887,4.5266,4.5833,4.6555,4.7335,4.8015,4.8558,4.8752,4.9001,4.9277,4.9603,5.0077,5.0563,5.1355,5.1908,5.2343,5.2659,5.3041,5.3518,0.0,0.0,0.0,0.0,0.0,0.0,0.0,0.0,0.0,0.0,0.0,0.0,3.8768,3.9106,3.9039,3.8396,3.8362,3.8227,3.7922,3.7153,3.6518,3.6115,3.5388,3.4505,3.3408,3.3751,3.3931,3.3934,3.4324,3.4831,3.5519,3.5519,3.5699,3.6088,3.6447,3.6626,3.6567,0.0,0.0,0.0,3.8437,0.0,0.0,3.9611,3.997,0.0,0.0,0.0,4.0645,3.9745,3.9125,0.0,0.0,0.0,0.0,0.0,0.0,0.0,0.0,0.0,0.0,0.0,0.0,0.0,0.0,3.7979,0.0,0.0,0.0,0.0,0.0,0.0,0.0,0.0,0.0,0.0,0.0,0.0,0.0,0.0,0.0,0.0,0.0,0.0,0.0,0.0,4.7404,4.7065,4.6788,4.6018,4.5464,4.5187,4.4825,4.461,4.461,4.461,4.461,4.461,4.5024,4.5614,4.6397,4.6761,4.738,4.8123,4.8123,4.8317,4.8605,4.8808,4.9437,5.0381,5.0899,5.1609,5.2307,5.2555,5.3007,5.3518,0.0,0.0,0.0,0.0,0.0,0.0,0.0,0.0,0.0,0.0,0.0,3.9488,4.023,4.0837,0.0,0.0,3.9174,3.8811,3.8038,3.726,3.6757,3.6581,3.586,3.5166,3.4411,3.4472,3.4515,3.4503,3.4593,3.4891,3.5519,3.5519,3.5519,3.5519,0.0,0.0,3.5519,0.0,0.0,3.8392,3.9679,4.0507,0.0,0.0,4.2349,4.2325,4.2857,4.2399,4.1342,4.004,3.8987,0.0,0.0,0.0,0.0,0.0,3.8214,0.0,0.0,0.0,0.0,0.0,0.0,0.0,3.7802,3.7965,3.806,0.0,0.0,0.0,0.0,0.0,0.0,0.0,0.0,0.0,0.0,0.0,0.0,0.0,0.0,0.0,0.0,0.0,0.0,4.6603,4.6511,4.6203,4.5495,4.5464,4.5226,4.4641,4.461,4.461,4.461,4.461,4.461,4.461,4.4949,4.5358,4.5796,4.6088,4.6477,4.6892,4.6892,4.7249,4.7896,4.7896,4.8742,5.0075,5.014,5.1037,5.2279,5.2345,5.2834,5.3518,0.0,0.0,0.0,0.0,0.0,0.0,0.0,0.0,0.0,0.0,3.9569,4.0702,4.1539,4.1205,0.0,0.0,4.0223,3.9556,3.8785,3.8023,3.7064,3.5859,3.5093,3.4394,3.3728,3.4241,3.4479,3.4503,3.504,3.537,3.5519,3.5519,3.5519,3.5519,3.5519,3.5519,3.5579,0.0,0.0,3.7674,3.8452,0.0,4.3072,4.2694,4.3114,4.3892,4.3976,4.3669,4.2842,0.0,3.9701,3.8968,0.0,0.0,0.0,0.0,0.0,0.0,0.0,0.0,0.0,0.0,0.0,0.0,3.8073,3.8305,3.8548,0.0,0.0,0.0,0.0,0.0,0.0,0.0,0.0,0.0,0.0,0.0,0.0,0.0,0.0,0.0,0.0,0.0,4.6018,4.6542,4.608,4.5495,4.4856,4.4825,4.4764,4.461,4.461,4.461,4.461,4.461,4.461,4.461,4.4685,4.5098,4.5796,4.5868,4.6262,4.6892,4.6892,4.6957,4.7087,4.7087,4.8172,4.9755,5.0344,5.1102,5.1963,5.2565,5.3109,5.3518,0.0,0.0,0.0,0.0,0.0,0.0,0.0,0.0,0.0,3.9501,4.1432,4.2651,4.2364,4.178,0.0,0.0,0.0,0.0,0.0,3.7645,3.6867,3.6134,3.5364,3.4831,3.4502,3.4831,3.4981,3.4981,3.534,3.5519,3.5519,3.5519,3.516,3.4532,3.522,3.513,3.4592,0.0,3.7015,3.8033,3.9349,0.0,4.3106,4.3485,4.3974,4.4482,4.4708,4.4297,4.331,4.1541,4.0605,0.0,0.0,3.8307,3.8341,0.0,3.7605,3.7844,0.0,0.0,0.0,3.889,0.0,0.0,0.0,3.904,3.8853,3.8216,0.0,0.0,0.0,0.0,0.0,0.0,0.0,0.0,0.0,0.0,0.0,0.0,0.0,0.0,0.0,0.0,4.4233,4.4572,4.4295,4.4079,4.4117,4.4117,4.4271,4.461,4.461,4.461,4.461,4.461,4.461,4.461,4.4799,4.5098,4.5505,4.5873,4.623,4.6617,4.6997,4.7134,4.7134,4.737,4.8099,4.9094,4.9444,5.0747,5.2334,5.2334,5.2842,5.3518,0.0,0.0,0.0,0.0,0.0,0.0,0.0,0.0,3.9702,4.062,4.3038,4.4346,4.3352,4.2602,0.0,0.0,0.0,0.0,0.0,3.7153,3.6507,3.623,3.5723,3.5459,3.531,3.5429,3.5519,3.5519,3.5519,3.5519,3.5519,3.5519,3.4921,3.3933,3.5011,3.4981,3.4143,0.0,0.0,3.8751,0.0,4.1811,4.253,4.4038,4.464,4.476,4.5157,4.4665,4.3587,4.2314,0.0,4.0933,3.915,3.8645,0.0,0.0,0.0,0.0,0.0,0.0,0.0,0.0,0.0,3.9737,0.0,0.0,0.0,3.8395,0.0,0.0,0.0,0.0,0.0,0.0,0.0,0.0,0.0,0.0,0.0,0.0,0.0,0.0,0.0,0.0,4.2289,4.2602,4.2442,4.2658,4.3377,4.3531,4.387,4.4394,4.4548,4.461,4.461,4.461,4.461,4.461,4.4911,4.5136,4.521,4.5909,4.6301,4.6442,4.71,4.7438,4.7538,4.7869,4.8263,4.8719,4.8729,5.0289,5.2537,5.2068,5.2606,5.3518,3.4974,3.4637,0.0,0.0,0.0,0.0,0.0,0.0,3.9193,4.1055,4.3085,4.4586,0.0,0.0,0.0,0.0,0.0,0.0,3.9363,0.0,3.6045,3.4781,3.5224,3.522,3.4623,3.519,3.5519,3.5519,3.5519,3.5519,3.5519,3.5519,3.5429,3.528,3.5429,3.5759,3.6178,0.0,3.8003,0.0,4.0816,4.1811,0.0,4.3848,4.4599,4.4959,4.5196,4.4941,4.4318,0.0,4.2528,4.1839,0.0,3.9369,0.0,0.0,0.0,0.0,0.0,0.0,0.0,0.0,4.0794,0.0,0.0,0.0,4.0361,3.8294,0.0,0.0,0.0,0.0,0.0,0.0,0.0,0.0,0.0,0.0,0.0,0.0,0.0,0.0,0.0,0.0,0.0,4.2509,4.1873,4.1807,4.2694,4.3285,4.3624,4.3716,4.4302,4.461,4.461,4.461,4.461,4.461,4.4648,4.4836,4.521,4.5651,4.6227,4.6858,4.7236,4.7605,4.7935,4.7968,4.8562,4.9488,4.9457,5.0289,5.1457,5.2031,5.2774,5.3518,3.5735,3.5368,0.0,0.0,0.0,0.0,0.0,0.0,4.2402,4.4047,4.5963,4.7106,0.0,0.0,0.0,0.0,0.0,3.9361,0.0,0.0,0.0,3.6211,3.5759,3.5549,3.5639,3.5549,3.5519,3.5519,3.5519,3.5519,3.5519,3.5519,3.51,3.4382,3.5549,0.0,3.5998,0.0,3.8751,0.0,0.0,0.0,0.0,4.4148,4.48,4.5126,4.4573,4.4472,4.4441,0.0,4.3198,0.0,0.0,0.0,0.0,0.0,0.0,0.0,0.0,0.0,0.0,0.0,0.0,0.0,0.0,0.0,3.9741,0.0,0.0,0.0,0.0,0.0,0.0,0.0,0.0,0.0,0.0,0.0,0.0,0.0,0.0,0.0,0.0,0.0,0.0,0.0,0.0,4.0519,4.1335,4.2417,4.3187,4.3593,4.387,4.4209,4.461,4.4209,4.424,4.461,4.461,4.4685,4.4874,4.5692,4.6266,4.6617,4.7605,4.813,4.8292,4.8483,4.8843,4.9272,4.971,5.0683,5.1826,5.1725,5.2435,5.3518,3.6441,0.0,0.0,0.0,0.0,0.0,0.0,0.0,0.0,0.0,0.0,0.0,4.785,4.6364,0.0,0.0,4.242,4.0706,0.0,0.0,3.7793,0.0,0.0,0.0,0.0,3.5938,3.5699,3.5519,3.5519,3.5519,3.5519,3.5519,3.4981,3.4113,3.5938,3.6567,3.6417,0.0,3.9828,4.1294,4.2252,4.303,4.3688,4.48,4.5213,4.5126,4.4497,4.4369,4.4396,4.364,4.367,0.0,4.2408,0.0,0.0,0.0,0.0,0.0,3.8262,0.0,0.0,0.0,0.0,0.0,0.0,0.0,0.0,0.0,0.0,0.0,0.0,0.0,0.0,0.0,0.0,0.0,0.0,0.0,0.0,0.0,0.0,0.0,0.0,0.0,0.0,0.0,3.8341,0.0,4.0166,4.1366,4.2417,4.3316,4.3501,4.3932,4.461,4.4117,4.4117,4.461,4.461,4.461,4.4648,4.5692,4.6266,4.6515,4.7803,4.8452,4.8642,4.8892,4.9018,4.9086,4.9796,5.0879,5.1961,5.1623,5.2367,5.3518,3.636,3.5971,3.5519,3.5552,3.6091,0.0,0.0,0.0,0.0,0.0,0.0,0.0,0.0,0.0,0.0,0.0,0.0,4.3387,4.3445,0.0,3.8781,0.0,0.0,3.6776,0.0,0.0,3.6148,3.5519,3.5519,3.5519,3.5519,3.5519,3.5489,3.5489,3.6806,3.7734,3.8392,3.9768,4.1474,4.32,4.323,4.3648,4.4407,0.0,4.5919,4.505,4.5485,0.0,0.0,4.3801,4.3832,0.0,0.0,0.0,0.0,0.0,0.0,0.0,0.0,0.0,0.0,3.8167,0.0,0.0,0.0,0.0,4.071,0.0,0.0,0.0,0.0,0.0,0.0,0.0,0.0,0.0,0.0,0.0,0.0,0.0,0.0,0.0,0.0,0.0,0.0,0.0,3.6557,0.0,3.9398,4.0166,4.1181,4.2602,4.3285,4.3932,4.461,4.4579,4.4579,4.461,4.461,4.461,4.461,4.5431,4.6159,4.6828,4.7671,4.8389,4.8954,4.9018,4.9018,4.9086,4.9796,5.0574,5.1319,5.2029,5.2807,5.3518,0.0,3.6626,3.6776,3.6776,3.6596,0.0,0.0,4.2286,0.0,0.0,0.0,0.0,0.0,4.9299,4.906,0.0,0.0,4.6914,4.6178,4.4353,0.0,0.0,0.0,3.9649,0.0,0.0,0.0,0.0,3.6148,3.5938,3.5519,3.5519,3.5519,3.5579,3.6836,3.8033,0.0,0.0,0.0,0.0,0.0,4.4915,4.6202,0.0,0.0,4.475,4.4759,4.486,0.0,4.4655,4.4391,4.4098,4.3577,4.3098,4.2612,4.2047,4.1797,0.0,0.0,0.0,4.2143,3.9546,0.0,0.0,0.0,0.0,0.0,0.0,0.0,0.0,0.0,0.0,0.0,0.0,0.0,0.0,0.0,0.0,0.0,0.0,0.0,0.0,0.0,0.0,0.0,3.5798,3.6072,3.6747,0.0,3.9644,4.072,4.1181,4.1894,4.2786,4.3932,4.3494,4.371,4.461,4.461,4.4723,4.5024,4.5985,4.6724,4.727,4.826,4.8801,4.9018,4.9018,4.9018,4.9086,4.9796,5.0541,5.1286,5.2029,5.2807,5.3518,3.6866,3.7135,0.0,0.0,0.0,0.0,0.0,0.0,0.0,0.0,4.8733,0.0,5.0506,0.0,5.0067,0.0,5.0099,4.9333,4.7923,4.7152,0.0,4.5053,4.3569,0.0,0.0,0.0,0.0,0.0,0.0,3.6836,3.6178,3.5968,3.5968,3.6237,3.7285,3.8362,3.9529,4.1085,4.2491,0.0,0.0,4.5424,0.0,0.0,4.4528,0.0,0.0,4.5102,4.5157,4.5069,4.4691,4.4243,4.4042,4.3622,4.3159,4.2879,4.2652,4.2511,4.2193,4.2694,0.0,0.0,4.0279,0.0,3.8425,0.0,0.0,0.0,0.0,0.0,0.0,0.0,0.0,0.0,0.0,0.0,0.0,0.0,0.0,0.0,0.0,0.0,0.0,0.0,3.3031,3.4333,3.5034,3.592,0.0,0.0,4.0013,4.0474,4.1217,4.2109,4.3217,4.3033,4.3371,4.4271,4.46,4.5024,4.54,4.6375,4.7101,4.7605,4.8483,4.8861,4.9018,4.9018,4.9018,4.912,5.0101,5.0777,5.1286,5.2029,5.2807,5.3518,3.7614,3.7554,0.0,0.0,3.7281,0.0,0.0,0.0,4.499,0.0,4.7519,4.9173,4.9801,4.979,5.0104,5.1079,5.1465,5.0851,4.9001,4.9288,0.0,0.0,4.5933,4.4317,4.1683,0.0,0.0,0.0,0.0,3.8063,3.7404,3.6806,3.6836,3.7404,3.8093,0.0,3.9439,4.1482,4.3069,4.4317,4.4975,4.5274,4.5155,4.3828,0.0,4.6515,4.6304,4.5672,4.4989,4.502,4.4721,4.4374,4.4534,4.4178,4.3655,4.3655,4.3655,4.3464,4.2628,4.2866,4.3013,4.1486,0.0,0.0,0.0,0.0,4.0694,0.0,0.0,0.0,0.0,0.0,0.0,0.0,0.0,0.0,0.0,0.0,0.0,0.0,0.0,0.0,0.0,3.1596,3.1895,3.2908,3.3545,3.4577,0.0,0.0,0.0,4.0351,4.1124,4.1832,4.254,4.3193,4.3531,4.3661,4.4688,4.5369,4.5769,4.6582,4.7303,4.7967,4.8354,4.8704,4.9018,4.9018,4.9018,4.9154,5.0608,5.1217,5.132,5.2097,5.2841,5.3518,3.8931,3.9679,4.0457,0.0,4.0286,4.0428,0.0,0.0,0.0,0.0,5.0151,5.2031,5.1246,5.1934,5.2439,5.2245,5.3084,0.0,0.0,0.0,0.0,5.075,4.9583,4.7714,4.5125,4.4077,0.0,3.9619,0.0,0.0,3.7404,3.7255,3.7015,3.6776,3.7883,3.8212,3.8063,4.0068,4.1953,4.3618,4.4317,4.4855,0.0,0.0,4.4717,4.5627,4.5574,4.5169,4.478,4.5455,4.5047,4.4374,4.4534,4.4486,4.4363,4.4363,4.4363,4.4264,4.4072,4.4165,4.3997,4.2952,4.2334,4.1693,0.0,0.0,0.0,0.0,0.0,0.0,0.0,0.0,0.0,0.0,0.0,0.0,0.0,0.0,0.0,0.0,0.0,0.0,0.0,0.0,3.1554,3.2907,3.2695,0.0,0.0,0.0,0.0,3.9,3.9708,4.0632,4.1832,4.2129,4.286,4.4034,4.4728,4.561,4.6617,4.7304,4.7901,4.8354,4.8704,4.8892,4.9018,4.9018,4.9018,4.9086,5.0033,5.1048,5.2131,5.2909,5.3315,5.3518,3.9778,4.1833,0.0,4.3629,0.0,0.0,4.3891,0.0,0.0,4.6971,5.0474,0.0,5.0829,5.1908,5.2749,5.2956,5.3365,0.0,5.3951,0.0,0.0,5.2299,5.1243,4.9624,4.7249,4.5574,0.0,4.0816,0.0,0.0,3.7823,3.7554,3.7375,3.7345,3.8063,3.8362,3.8422,4.0427,4.2222,4.3768,4.4167,0.0,0.0,4.4137,4.4287,4.4855,4.4855,4.4918,4.5102,4.5425,4.5139,4.4702,4.4626,4.461,4.461,4.461,4.461,4.461,4.461,4.461,4.4479,4.3997,4.3591,4.3002,4.1839,4.134,4.0929,0.0,0.0,0.0,0.0,0.0,0.0,0.0,0.0,0.0,0.0,0.0,0.0,0.0,0.0,0.0,0.0,0.0,0.0,0.0,0.0,0.0,0.0,0.0,0.0,0.0,3.945,4.0528,4.1124,4.2294,4.319,4.3742,4.4982,4.6092,4.7134,4.7869,4.8354,4.8736,4.8892,4.9018,4.9018,4.9018,4.9018,4.912,5.0168,5.1488,5.2875,5.3348,5.3518,5.3518,4.058,4.3775,0.0,0.0,0.0,0.0,0.0,4.6005,0.0,4.6824,0.0,5.1626,4.9967,5.1011,5.2209,5.3146,0.0,5.2896,5.3382,5.3471,5.3186,5.2463,5.1879,5.0537,4.8507,4.6548,0.0,0.0,0.0,0.0,3.8512,3.7853,3.7853,3.8392,3.8482,0.0,0.0,4.1354,4.289,0.0,4.4137,4.4227,4.4257,4.3559,4.3708,4.4317,4.4317,4.4798,4.5464,4.5223,4.5209,4.5222,4.4872,4.4702,4.461,4.461,4.461,4.461,4.461,4.461,4.461,4.461,4.461,4.4226,4.2818,4.1954,4.1209,4.0365,3.9195,0.0,0.0,0.0,0.0,0.0,0.0,0.0,0.0,0.0,0.0,0.0,0.0,0.0,0.0,0.0,0.0,0.0,0.0,0.0,0.0,0.0,0.0,0.0,3.9619,0.0,4.0716,0.0,4.3741,4.3359,4.5349,4.6659,4.7438,4.8227,4.8704,4.9018,4.9018,4.9018,4.9018,4.9018,4.912,4.9424,5.071,5.2164,5.3518,5.3518,5.3518,5.3518,4.2029,0.0,0.0,0.0,0.0,4.6696,4.9014,4.9657,4.964,4.9066,5.2046,5.3429,5.1465,5.2411,5.2872,5.1996,5.278,0.0,0.0,0.0,0.0,5.3223,5.2596,5.1274,4.925,4.7717,4.5663,0.0,0.0,0.0,3.923,3.8542,3.8272,3.8422,3.899,0.0,3.9433,4.0367,0.0,4.28,4.3299,4.3798,4.4257,4.3559,4.3708,4.4317,4.4317,4.4528,4.4951,4.5617,4.5605,4.5314,4.5395,4.5033,4.461,4.461,4.461,4.461,4.461,4.461,4.461,4.461,4.461,4.4356,4.3587,4.2842,4.216,4.1484,4.0201,3.933,3.9566,0.0,0.0,0.0,0.0,0.0,0.0,0.0,0.0,0.0,0.0,0.0,0.0,0.0,0.0,0.0,0.0,0.0,0.0,0.0,0.0,0.0,0.0,0.0,0.0,0.0,0.0,4.4539,4.56,4.6581,4.7438,4.8452,4.8923,4.9018,4.9018,4.9018,4.9018,4.9018,4.9729,5.0813,5.1083,5.2164,5.3518,5.3518,5.3518,5.3518,4.5235,0.0,0.0,0.0,0.0,0.0,0.0,5.1341,0.0,4.9672,5.1566,5.243,5.0689,5.1741,5.2509,5.2562,5.2562,5.2769,5.3467,5.2911,5.2541,5.2547,5.2231,0.0,5.0019,4.8276,4.6172,4.3838,0.0,0.0,0.0,3.8542,3.8392,3.8422,0.0,3.9798,0.0,0.0,0.0,4.3389,4.3718,4.4227,4.4796,4.4466,4.4347,4.4377,4.4706,4.4779,4.477,4.5314,4.5635,4.5773,4.5672,4.5372,4.5133,4.5133,4.5133,4.5033,4.4664,4.461,4.461,4.461,4.461,4.4517,4.4209,4.331,4.2509,4.2202,4.0724,3.9385,3.9093,3.8291,0.0,0.0,0.0,0.0,0.0,0.0,0.0,0.0,0.0,0.0,0.0,0.0,0.0,0.0,0.0,0.0,0.0,0.0,0.0,0.0,0.0,0.0,0.0,0.0,0.0,4.5083,4.6138,4.7077,4.7967,4.8673,4.9018,4.9018,4.9018,4.9018,4.9018,4.9018,4.9661,5.0676,5.1048,5.1894,5.2942,5.3348,5.3518,5.3518,0.0,4.9548,0.0,0.0,5.0729,0.0,5.1611,5.2058,5.183,5.0305,5.1103,5.1296,5.008,5.0949,5.2006,5.3025,5.2192,5.2068,5.3011,5.2095,5.1615,5.187,5.1757,5.1408,5.0697,4.8805,4.6653,0.0,0.0,0.0,0.0,0.0,0.0,0.0,0.0,0.0,0.0,0.0,4.2731,4.4526,4.4526,4.4915,4.5514,4.5334,4.5065,4.4796,4.5155,4.5229,4.5072,4.5041,4.5483,4.6018,4.5702,4.5588,4.5557,4.5403,4.5464,4.5434,4.4756,4.461,4.461,4.461,4.461,4.4579,4.4425,4.3556,4.2725,4.2448,4.0878,3.9351,3.8685,3.7934,0.0,0.0,0.0,0.0,0.0,0.0,0.0,0.0,0.0,0.0,0.0,0.0,0.0,0.0,0.0,0.0,0.0,0.0,0.0,0.0,0.0,0.0,4.1075,0.0,4.536,0.0,4.6633,4.7605,4.842,4.8798,4.9018,4.9018,4.9018,4.9018,4.9018,4.9018,4.9526,5.0405,5.098,5.1758,5.2638,5.3281,5.3518,5.3518,0.0,0.0,0.0,0.0,0.0,0.0,0.0,5.1971,5.1816,5.2197,5.2403,5.2244,5.1502,5.1518,5.1659,5.1783,5.1659,5.1632,5.1767,5.1228,5.1336,5.2446,5.1989,5.1599,5.1297,4.9904,4.7614,0.0,0.0,0.0,0.0,0.0,0.0,0.0,0.0,0.0,0.0,4.2051,4.3459,4.5214,4.5214,4.5603,4.613,4.5544,4.5633,4.601,4.5514,4.58,4.6279,4.5344,4.5178,4.5406,4.5579,4.5588,4.5464,4.4849,4.5095,4.5434,4.4756,4.461,4.461,4.461,4.461,4.4456,4.384,4.3593,4.3162,4.1925,4.0674,3.9658,3.9269,3.8752,3.814,0.0,0.0,0.0,0.0,0.0,0.0,0.0,0.0,0.0,0.0,0.0,0.0,0.0,0.0,0.0,0.0,0.0,0.0,0.0,0.0,4.0222,4.1845,4.3499,0.0,4.6296,4.705,4.7605,4.7999,4.8704,4.9018,4.9018,4.9018,4.9018,4.9018,4.9018,4.983,5.1083,5.1183,5.2097,5.3416,5.3484,5.3518,5.3551,0.0,0.0,0.0,0.0,0.0,0.0,0.0,5.2843,5.2791,5.2846,5.2377,5.1908,5.1659,5.1596,5.1846,5.2465,5.197,5.2024,5.2951,5.2284,5.1945,5.2017,5.2211,5.172,5.0446,4.9861,4.8231,0.0,0.0,0.0,0.0,0.0,0.0,0.0,0.0,4.1115,4.2081,4.309,4.4227,4.5334,4.5753,4.6322,4.689,4.6591,4.6441,4.6352,4.6471,4.6029,4.5494,4.6001,4.5818,4.5314,4.5549,4.5865,4.6049,4.5372,4.5649,4.5957,4.4918,4.461,4.461,4.461,4.461,4.4548,4.4271,4.3901,4.347,4.2915,4.1406,4.005,3.9548,3.8836,3.835,0.0,0.0,0.0,0.0,0.0,0.0,0.0,0.0,0.0,0.0,0.0,0.0,0.0,0.0,0.0,0.0,0.0,0.0,3.5707,0.0,4.082,4.1735,4.4338,4.6212,4.732,4.7704,4.8129,4.8576,4.8861,4.9018,4.9018,4.9018,4.9018,4.9018,4.9018,4.9627,5.0574,5.1048,5.186,5.2841,5.3315,5.3518,5.3517,5.1465,0.0,5.1829,0.0,5.1961,5.182,5.3133,5.3139,5.3017,5.2956,5.2156,5.1596,5.1596,5.1596,5.2032,5.3113,5.2562,5.2736,5.4061,5.334,5.2699,5.2265,5.2377,0.0,5.0559,5.0112,4.8862,4.6726,4.5496,0.0,0.0,0.0,0.0,0.0,4.1743,4.2432,4.3339,4.4197,4.5095,4.5933,4.6411,4.689,4.7309,4.7309,4.701,4.6651,4.692,4.6209,4.5343,4.6364,4.6214,4.562,4.5856,4.6203,4.6511,4.6018,4.6234,4.6357,4.5187,4.4764,4.461,4.461,4.461,4.461,4.461,4.424,4.384,4.3655,4.2109,4.0659,4.0201,3.9484,3.8995,0.0,0.0,0.0,0.0,0.0,0.0,0.0,0.0,3.8328,3.7811,0.0,0.0,0.0,0.0,0.0,0.0,0.0,0.0,0.0,0.0,0.0,0.0,0.0,4.7169,4.7901,4.8129,4.8547,4.9018,4.9018,4.9018,4.9018,4.9018,4.9018,4.9018,4.9221,4.9763,5.0507,5.1251,5.1995,5.2739,5.3281,5.3518,5.3551,5.203,5.2204,5.2236,5.2991,5.3262,5.3511,5.3921,5.2623,5.1846,5.2527,5.2032,5.1596,5.1596,5.1596,5.213,5.3389,5.351,5.3752,5.4469,5.3943,5.3557,0.0,0.0,5.2027,5.2347,5.1146,4.9443,4.7309,0.0,0.0,4.329,0.0,0.0,4.326,4.326,4.4047,4.5274,4.5274,4.6052,4.7279,4.7279,4.7309,4.7309,4.7309,4.7309,4.7219,4.6561,4.6419,4.652,4.6163,4.6123,4.6324,4.6493,4.6573,4.6603,4.6573,4.6573,4.6449,4.5772,4.5095,4.461,4.461,4.461,4.461,4.461,4.461,4.4425,4.3747,4.2546,4.1586,4.1586,4.097,4.0224,3.9412,0.0,0.0,0.0,0.0,0.0,0.0,3.9901,4.0079,4.0079,0.0,0.0,0.0,0.0,0.0,0.0,0.0,0.0,3.8119,4.0388,0.0,4.3363,4.606,4.7572,4.7901,4.829,4.8673,4.9018,4.9018,4.9018,4.9018,4.9018,4.9018,4.9052,4.9796,5.0507,5.1285,5.1995,5.2773,5.3484,5.3518,5.3518,5.3551,5.1751,5.1812,5.1819,5.2032,5.2102,5.2465,5.3288,5.2773,5.2465,5.2895,5.2527,5.228,5.228,5.1846,5.2032,0.0,5.2623,5.3079,0.0,5.4648,5.4173,5.4182,5.3854,5.2975,5.1399,5.0825,4.995,4.8875,0.0,0.0,0.0,4.3977,4.3977,4.4018,4.4466,4.5155,4.6022,4.6471,4.692,4.7309,4.7309,4.7309,4.7309,4.7309,4.7309,4.7279,4.707,4.6924,4.6898,4.7266,4.6966,4.6677,4.764,4.765,4.7188,4.6726,4.6911,4.7034,4.5895,4.5434,4.5157,4.4733,4.461,4.461,4.461,4.461,4.4425,4.3747,4.3285,4.2663,4.1771,4.1401,4.0997,4.0221,0.0,0.0,0.0,0.0,0.0,0.0,0.0,3.8332,0.0,3.9202,0.0,0.0,0.0,0.0,0.0,0.0,0.0,0.0,4.1661,0.0,4.488,4.7073,4.829,4.8639,4.8767,4.8925,4.9018,4.9018,4.9018,4.9052,4.9526,4.9729,4.9796,5.0541,5.1285,5.1961,5.2198,5.284,5.3617,5.3617,5.3717,5.3849,5.1596,5.1908,5.2156,5.2156,5.2156,5.2404,5.3017,5.2588,5.228,5.2527,5.2342,5.2342,5.2588,5.2218,0.0,5.3537,5.345,0.0,5.585,5.5738,5.5338,5.4894,5.4409,5.3394,5.1526,0.0,0.0,4.9912,4.8431,4.704,4.5813,4.5544,4.5454,4.5454,4.6112,4.6651,4.71,4.7489,4.7668,4.7638,4.7399,4.7309,4.7309,4.7309,4.7309,4.7309,4.7309,4.7254,4.7322,4.7843,4.7668,4.7374,4.8317,4.8327,4.7896,4.7465,4.7465,4.7373,4.6265,4.5772,4.5434,4.4795,4.461,4.461,4.461,4.461,4.4486,4.4086,4.3778,4.3347,4.2509,4.1925,4.1463,4.1001,0.0,0.0,0.0,0.0,0.0,0.0,0.0,0.0,0.0,4.0232,0.0,0.0,0.0,0.0,0.0,0.0,0.0,4.0886,4.3353,0.0,4.6457,4.7943,4.8798,4.9018,4.9018,4.9154,4.9424,4.9424,4.956,4.9864,5.0304,5.0507,5.0574,5.1319,5.1894,5.2334,5.2638,5.3144,5.3717,5.3717,5.3816,5.4013,5.1596,5.2342,0.0,0.0,5.3017,0.0,5.3017,5.2218,5.1596,5.1596,5.1596,5.1846,5.2588,5.265,5.3139,5.4378,0.0,0.0,0.0,5.6916,5.6715,5.55,5.4374,0.0,5.2601,5.1904,5.1166,5.0383,4.9088,4.8386,4.8327,4.7728,4.7429,4.7459,4.8087,4.8327,4.8297,4.8327,4.8327,4.8237,4.7668,4.7429,4.7429,4.7399,4.7369,4.7369,4.7309,4.7439,4.7624,4.7922,4.8133,4.8343,4.8521,4.8604,4.8604,4.8604,4.8173,4.7527,4.685,4.6172,4.5495,4.4856,4.4603,4.461,4.461,4.461,4.461,4.461,4.4117,4.3655,4.3624,4.2571,4.1709,4.1617,4.114,4.0318,3.8955,0.0,0.0,0.0,0.0,0.0,0.0,4.2763,4.32,0.0,0.0,0.0,0.0,0.0,0.0,4.3621,4.5327,4.677,4.7939,4.868,4.9018,4.9086,4.912,4.9526,5.0168,5.0168,5.0541,5.1185,5.1219,5.1285,5.1352,5.2097,5.2367,5.2469,5.3213,5.3584,5.3717,5.3717,5.3849,5.4045,0.0,0.0,5.197,5.197,5.197,5.197,5.197,5.1721,5.1596,5.1596,5.1596,5.2032,5.3227,5.3349,5.3685,5.4437,5.4793,5.5353,5.6251,5.6903,5.6851,5.6094,5.5811,5.4895,5.3297,5.2552,5.1581,5.0219,4.9911,4.9523,4.909,4.891,4.885,4.8805,4.9,4.879,4.8327,4.888,4.879,4.8327,4.8656,4.885,4.8745,4.8237,4.8057,4.7997,4.7489,4.7439,4.7624,4.7922,4.8133,4.8343,4.8521,4.8604,4.8604,4.8604,4.8512,4.8235,4.7558,4.688,4.6203,4.5526,4.501,4.461,4.461,4.461,4.461,4.461,4.4486,4.4209,4.3685,4.3347,4.2792,4.1771,4.1071,4.0334,3.9439,0.0,0.0,0.0,4.0219,4.133,4.1704,4.3304,4.4215,0.0,0.0,0.0,0.0,0.0,4.5102,4.4693,4.6216,4.7634,4.8748,4.8917,4.9289,4.983,5.0405,5.0777,5.0947,5.0947,5.1048,5.1219,5.1792,5.2063,5.2097,5.2909,5.3213,5.3247,5.345,5.3685,5.3915,5.3915,5.411,5.4367,5.1596,5.1596,5.1596,5.1596,5.1596,5.1596,5.1596,5.1596,5.1596,5.1596,5.1846,5.2465,5.347,5.4107,5.4675,5.5323,5.5615,5.5934,5.6308,5.7122,5.7335,5.668,5.6143,5.506,5.3458,5.2717,5.1835,5.0644,5.0345,5.0016,4.9703,4.9449,4.9299,4.9329,4.9583,4.9523,4.9194,4.9553,4.9344,4.882,4.9179,4.912,4.882,4.8416,4.8297,4.8207,4.7549,4.7396,4.7495,4.788,4.8091,4.8218,4.848,4.8604,4.8604,4.8604,4.8604,4.845,4.7804,4.7342,4.6819,4.5834,4.5311,4.501,4.4702,4.4856,4.5033,4.5033,4.5033,4.4941,4.461,4.3741,4.2879,4.2171,4.0905,3.9886,3.9453,3.9009,0.0,4.0034,4.1433,4.2717,4.3619,4.5165,4.5974,4.563,0.0,0.0,4.621,4.753,4.771,4.6391,4.783,4.8931,4.9492,4.983,5.0202,5.0608,5.1014,5.1386,5.1725,5.1725,5.1928,5.23,5.2672,5.2841,5.2875,5.3315,5.3518,5.3518,5.3518,5.3718,5.398,5.398,5.4207,5.4494,5.1596,5.1596,5.1596,5.1596,5.1596,5.1659,5.1721,5.1783,5.1908,5.2032,5.2588,5.32,5.3926,5.4884,5.5818,5.6451,5.7078,5.7162,5.6594,5.7467,5.7706,5.7124,5.6028,5.4849,5.3609,5.29,5.2062,5.1229,5.0614,5.0345,5.0315,4.9823,4.9599,4.9629,5.0122,5.0285,5.0196,5.0315,5.0002,4.9404,4.9569,4.9224,4.8716,4.8506,4.8446,4.8327,4.7578,4.7309,4.7352,4.7794,4.7964,4.8049,4.8469,4.8563,4.8604,4.8604,4.8604,4.8481,4.7927,4.7681,4.7311,4.6049,4.5649,4.5464,4.5003,4.5249,4.5618,4.5711,4.5649,4.5588,4.5588,4.4048,4.2792,4.2901,4.087,3.9351,3.9613,0.0,0.0,4.1562,4.297,4.4464,4.6193,4.7362,4.7841,4.7496,4.8511,0.0,0.0,4.9255,4.9695,4.8413,4.9627,5.027,5.027,5.1014,5.1386,5.1386,5.1488,5.1894,5.2469,5.2469,5.2841,5.3518,5.3518,5.3518,5.3518,5.3518,5.3484,5.3517,5.3517,5.3751,5.4013,5.4013,5.4239,5.4494,5.1596,5.1596,5.1596,5.1596,5.1596,5.1783,5.2342,5.2711,5.3113,5.3959,5.435,5.4856,5.579,5.6079,5.6451,5.7078,5.7696,5.8029,5.7918,5.7551,5.728,5.7124,5.6444,5.5705,5.4929,5.3704,5.2449,5.1229,5.1109,5.1033,5.105,5.096,5.093,5.093,5.102,5.0704,5.0226,5.0794,5.0644,5.0076,5.069,5.084,5.0631,4.9523,4.9149,4.9,4.7728,4.7309,4.7352,4.7581,4.7794,4.8049,4.826,4.8438,4.8604,4.8604,4.8604,4.8604,4.8481,4.805,4.7404,4.6634,4.6018,4.5711,4.6172,4.5926,4.5741,4.6326,4.5988,4.5588,4.5588,4.4425,4.366,4.4279,4.1395,3.9607,0.0,0.0,4.0347,4.1917,4.4237,4.6322,4.7953,4.8281,4.8976,5.0407,5.0135,5.0101,5.0507,5.0845,5.0947,5.0678,5.0881,5.1048,5.1048,5.1758,5.2131,5.2131,5.2841,5.3213,5.3315,5.3315,5.3382,5.3518,5.3518,5.3518,5.3518,5.3518,5.3584,5.3684,5.3684,5.3882,5.4175,5.4175,5.4303,5.4494,5.1596,5.1596,5.1596,5.1596,5.1596,5.1908,5.2711,5.3017,5.3416,5.4378,5.506,5.5616,5.6021,5.685,5.7443,5.7751,5.8029,5.8305,5.8664,5.7684,5.716,5.7094,5.6166,5.5329,5.467,5.3354,5.2366,5.1738,5.1379,5.1229,5.1229,5.1229,5.1229,5.1229,5.1229,5.105,5.0734,5.1079,5.0794,5.0255,5.096,5.081,5.0092,4.9539,4.909,4.8626,4.7638,4.7309,4.7352,4.7709,4.788,4.8049,4.8355,4.8521,4.8604,4.8604,4.8604,4.8604,4.8604,4.8389,4.7989,4.7311,4.6911,4.6665,4.6603,4.6634,4.6757,4.7065,4.688,4.6573,4.6203,4.5225,4.4637,4.5187,4.2469,0.0,0.0,4.2132,4.191,4.4125,4.6093,4.7836,4.9392,4.9785,5.0313,5.1151,5.0879,5.0845,5.1151,5.1589,5.1792,5.1792,5.1792,5.1995,5.2435,5.2773,5.2942,5.2942,5.3315,5.3518,5.3518,5.3518,5.3518,5.3518,5.3518,5.3518,5.3518,5.3584,5.3651,5.3717,5.3816,5.4013,5.4207,5.4207,5.4335,5.4494,5.1596,5.1596,5.1596,5.1596,5.1596,5.197,5.3078,5.3322,5.3839,5.4911,5.5818,5.6451,5.6509,5.7666,5.8415,5.8415,5.8415,5.8609,5.9045,5.7992,5.7274,5.7094,5.5867,5.479,5.3982,5.2965,5.2276,5.1977,5.1468,5.1229,5.1229,5.1229,5.1229,5.1229,5.1229,5.1229,5.1229,5.1229,5.0883,5.0465,5.102,5.0511,4.9464,4.9359,4.8865,4.8207,4.7549,4.7352,4.7439,4.7794,4.7964,4.8133,4.8438,4.8563,4.8604,4.8604,4.8604,4.8604,4.8604,4.8604,4.8481,4.7958,4.7711,4.7496,4.7157,4.7342,4.765,4.7804,4.7711,4.7434,4.6942,4.5982,4.5428,4.5913,0.0,0.0,0.0,4.3765,4.3607,4.6272,4.7697,4.9061,5.0492,5.1061,5.1458,5.1692,5.1758,5.1758,5.1758,5.2266,5.257,5.257,5.257,5.2875,5.3484,5.3518,5.3518,5.3518,5.3518,5.3518,5.3518,5.3518,5.3518,5.3518,5.3518,5.3518,5.3484,5.3651,5.375,5.3783,5.398,5.4143,5.4271,5.4271,5.4367,5.4494,5.1596,5.1596,5.1596,5.1596,5.1596,5.2032,5.3349,5.4047,5.497,5.6509,5.7472,5.814,5.8445,5.8828,5.9045,5.9045,5.9045,5.9045,5.9099,5.8441,5.7752,5.7124,5.5867,5.4581,5.3294,5.3144,5.2516,5.1289,5.1229,5.1229,5.1229,5.1229,5.1229,5.1229,5.1229,5.1229,5.1229,5.1229,5.1199,5.1139,5.1199,5.0734,5.0046,4.9494,4.8865,4.8207,4.7549,4.7439,4.7581,4.7624,4.7922,4.8301,4.8343,4.8438,4.8604,4.8604,4.8604,4.8604,4.8604,4.8604,4.8604,4.8543,4.8081,4.7742,4.8327,4.8019,4.7773,4.8419,4.805,4.7588,4.7558,4.6458,4.5804,4.6528,0.0,0.0,4.5837,4.4938,4.493,4.7245,4.8521,4.9768,5.1289,5.1596,5.2169,5.3247,5.3348,5.3348,5.3348,5.3382,5.3416,5.3416,5.3416,5.345,5.3518,5.3518,5.3518,5.3518,5.3518,5.3518,5.3518,5.3518,5.3518,5.3518,5.3518,5.3518,5.3484,5.3651,5.3816,5.398,5.4143,5.4303,5.4463,5.4463,5.4463,5.4494,5.1596,5.1596,5.1596,5.1596,5.197,5.265,5.3987,5.4852,5.5905,5.7247,5.8059,5.8555,5.8694,5.8936,5.9099,5.9099,5.9099,5.9099,5.9099,5.8501,5.7633,5.6555,5.5658,5.476,5.3832,5.3384,5.2725,5.1828,5.1409,5.1229,5.1229,5.1229,5.1229,5.1229,5.1229,5.1229,5.1229,5.1229,5.1229,5.1169,5.0734,5.0212,4.9553,4.8925,4.8237,4.7638,4.7499,4.7568,4.7624,4.7922,4.8175,4.8343,4.8438,4.8521,4.8604,4.8604,4.8604,4.8604,4.8604,4.8604,4.8604,4.8604,4.8419,4.8296,4.8543,4.8419,4.8296,4.8573,4.8419,4.8112,4.7681,4.7389,4.7411,4.7927,0.0,4.5782,4.7988,4.6856,4.6481,4.836,4.9519,5.0588,5.1704,5.2433,5.3045,5.3484,5.3518,5.3518,5.3518,5.3518,5.3518,5.3518,5.3518,5.3518,5.3518,5.3518,5.3518,5.3518,5.3518,5.3518,5.3518,5.3518,5.3518,5.3518,5.3518,5.3551,5.3617,5.3816,5.398,5.4143,5.4303,5.4431,5.4494,5.4494,5.4494,5.4494,5.1596,5.1783,5.1908,5.1908,5.2527,5.3416,5.4616,5.5498,5.648,5.7669,5.8335,5.8694,5.8694,5.8936,5.9099,5.9099,5.9099,5.9099,5.9099,5.8291,5.7304,5.6278,5.5538,5.488,5.4221,5.3533,5.2845,5.2187,5.1528,5.1229,5.1229,5.1229,5.1229,5.1229,5.1229,5.1229,5.1229,5.1229,5.1229,5.1169,5.0465,4.9853,4.9239,4.858,4.7878,4.7352,4.7495,4.7666,4.7794,4.8175,4.8313,4.8427,4.8563,4.8604,4.8604,4.8604,4.8604,4.8604,4.8604,4.8604,4.8604,4.8604,4.8604,4.8604,4.8604,4.8604,4.8604,4.8604,4.8604,4.8481,4.8019,4.813,4.836,4.8396,4.7613,4.7516,4.8999,4.8143,4.7909,4.9464,5.0501,5.1352,5.1954,5.2903,5.3518,5.3518,5.3518,5.3518,5.3518,5.3518,5.3518,5.3518,5.3518,5.3518,5.3518,5.3518,5.3518,5.3518,5.3518,5.3518,5.3518,5.3518,5.3518,5.3518,5.3518,5.3551,5.3651,5.3882,5.4045,5.4175,5.4399,5.4494,5.4494,5.4494,5.4494,5.4494,5.1596,5.2156,5.2588,5.2588,5.3383,5.4318,5.5295,5.5963,5.6737,5.7669,5.8335,5.8694,5.8694,5.8936,5.9099,5.9099,5.9099,5.9099,5.9099,5.7842,5.6825,5.6248,5.5538,5.488,5.4221,5.3533,5.2845,5.2187,5.1528,5.1229,5.1229,5.1229,5.1229,5.1229,5.1229,5.1229,5.1229,5.1229,5.1229,5.1169,5.0435,4.9853,4.9239,4.8536,4.7878,4.7352,4.7538,4.7752,4.8049,4.826,4.8438,4.8604,4.8604,4.8604,4.8604,4.8604,4.8604,4.8604,4.8604,4.8604,4.8604,4.8604,4.8604,4.8604,4.8604,4.8604,4.8604,4.8604,4.8604,4.8604,4.8604,4.8604,4.8389,4.7711,4.7619,4.7862,4.8498,4.8616,4.9102,5.0454,5.1434,5.1987,5.1987,5.2903,5.3518,5.3518,5.3518,5.3518,5.3518,5.3518,5.3518,5.3518,5.3518,5.3518,5.3518,5.3518,5.3518,5.3518,5.3518,5.3518,5.3518,5.3518,5.3518,5.3518,5.3518,5.3518,5.3551,5.3883,5.398,5.4013,5.4367,5.4494,5.4494,5.4494,5.4494,5.4494,5.1596,5.2156,5.2711,5.3173,5.4231,5.5295,5.6251,5.7105,5.7863,5.8335,5.8719,5.8991,5.8991,5.9045,5.9099,5.9099,5.9099,5.9099,5.9099,5.7842,5.7004,5.6825,5.5777,5.467,5.3503,5.3294,5.2636,5.1498,5.1319,5.1229,5.1229,5.1229,5.1229,5.1229,5.1229,5.1229,5.1229,5.1229,5.1229,5.1109,5.0002,4.9434,4.9179,4.8027,4.7489,4.7352,4.7752,4.7922,4.8049,4.8427,4.8521,4.8604,4.8604,4.8604,4.8604,4.8604,4.8604,4.8604,4.8604,4.8604,4.8604,4.8604,4.8604,4.8604,4.8604,4.8604,4.8604,4.8604,4.8604,4.8604,4.8604,4.8604,4.8543,4.8358,4.8573,4.8938,4.9259,4.9544,4.9992,5.0711,5.1508,5.2059,5.22,5.2972,5.3518,5.3518,5.3518,5.3518,5.3518,5.3518,5.3518,5.3518,5.3518,5.3518,5.3518,5.3518,5.3518,5.3518,5.3518,5.3518,5.3518,5.3518,5.3518,5.3518,5.3518,5.3551,5.3651,5.3882,5.4045,5.4175,5.4399,5.4494,5.4494,5.4494,5.4494,5.4494,5.197,5.2527,5.3261,5.4112,5.5236,5.6308,5.7189,5.7974,5.85,5.8828,5.8991,5.9099,5.9099,5.9099,5.9099,5.9099,5.9099,5.9099,5.9099,5.7842,5.7094,5.7094,5.5867,5.47,5.3623,5.3324,5.2665,5.1618,5.1349,5.1229,5.1229,5.1229,5.1229,5.1229,5.1229,5.1229,5.1229,5.1229,5.1079,5.075,4.9703,4.9149,4.882,4.7698,4.7309,4.7352,4.7709,4.7922,4.8049,4.8355,4.8521,4.8604,4.8604,4.8604,4.8604,4.8604,4.8604,4.8604,4.8604,4.882,4.9035,4.9035,4.882,4.8604,4.8604,4.8604,4.8604,4.8604,4.8604,4.8604,4.8604,4.8604,4.8646,4.8852,4.9097,4.9421,4.99,5.0175,5.0563,5.1129,5.1765,5.2236,5.2485,5.3144,5.3518,5.3518,5.3518,5.3518,5.3518,5.3518,5.3518,5.3518,5.3518,5.3518,5.3518,5.3518,5.3518,5.3518,5.3518,5.3518,5.3518,5.3518,5.3518,5.3518,5.3518,5.3551,5.3617,5.3882,5.4045,5.4177,5.4743,5.477,5.4563,5.4839,5.477,5.4563,5.2465,5.3166,5.3987,5.5178,5.6251,5.722,5.8085,5.85,5.8828,5.9045,5.9099,5.9099,5.9099,5.9099,5.9099,5.9099,5.9099,5.9099,5.9099,5.7902,5.7154,5.7094,5.5927,5.491,5.4132,5.3503,5.2815,5.2127,5.1498,5.1229,5.1229,5.1229,5.1229,5.1229,5.1229,5.1229,5.1229,5.1169,5.0734,5.0136,4.9464,4.8805,4.8207,4.7549,4.7309,4.7352,4.7495,4.7752,4.8049,4.826,4.8438,4.8604,4.8604,4.8604,4.8604,4.8604,4.8604,4.8635,4.8696,4.9189,4.9682,4.9743,4.9281,4.8789,4.8727,4.8696,4.8696,4.8696,4.8696,4.8696,4.8696,4.8696,4.8821,4.925,4.934,4.9661,5.0448,5.064,5.0914,5.1692,5.2128,5.2485,5.2868,5.328,5.3518,5.3518,5.3518,5.3518,5.3518,5.3518,5.3518,5.3518,5.3518,5.3551,5.3585,5.3551,5.3518,5.3518,5.3518,5.3518,5.3518,5.3518,5.3551,5.3585,5.3585,5.3619,5.3619,5.4054,5.415,5.4114,5.5193,5.5219,5.4701,5.5357,5.5184,5.4701,5.2465,5.3166,5.3987,5.5178,5.6423,5.7416,5.8085,5.8664,5.9045,5.9099,5.9099,5.9099,5.9099,5.9099,5.9099,5.9099,5.9099,5.9099,5.9099,5.8351,5.7663,5.7124,5.6346,5.5149,5.3443,5.3264,5.2606,5.1439,5.1289,5.1229,5.1229,5.1229,5.1229,5.1229,5.1229,5.1229,5.1199,5.0614,5.0315,5.0076,4.8955,4.8416,4.8207,4.7549,4.7309,4.7352,4.7495,4.7752,4.8049,4.8396,4.8563,4.8604,4.8604,4.8604,4.8604,4.8604,4.8604,4.8727,4.9281,4.9558,4.9805,5.0328,5.0359,5.0112,4.9558,4.9466,4.9466,4.9466,4.9466,4.9466,4.9466,4.9466,4.9449,4.9344,4.9821,5.0409,5.0876,5.1512,5.1984,5.2164,5.252,5.2799,5.2903,5.328,5.3518,5.3518,5.3518,5.3518,5.3518,5.3518,5.3518,5.3518,5.3518,5.3788,5.4363,5.3788,5.3518,5.3518,5.3518,5.3518,5.3518,5.3518,5.3822,5.4363,5.4363,5.4432,5.4601,5.5383,5.5106,5.4244,5.5226,5.5497,5.5391,5.5563,5.5529,5.5495,5.2922,5.3349,5.4047,5.5615,5.6651,5.7528,5.8085,5.8719,5.9099,5.9099,5.9099,5.9099,5.9099,5.9099,5.9099,5.9099,5.9099,5.9099,5.9099,5.8501,5.7812,5.7124,5.6496,5.5388,5.3713,5.3354,5.2546,5.1229,5.1229,5.1229,5.1229,5.1229,5.1229,5.1229,5.1229,5.1229,5.1169,5.0465,5.0016,4.9673,4.8686,4.8087,4.7788,4.7429,4.7309,4.7309,4.7439,4.7666,4.8049,4.8438,4.8604,4.8604,4.8604,4.8604,4.8604,4.8604,4.885,4.922,4.9589,5.0143,5.0728,5.1097,5.1405,5.1405,5.0389,5.0174,5.0174,5.0174,5.0174,5.0174,5.0174,5.0174,5.019,5.0237,5.096,5.1642,5.2029,5.2491,5.2909,5.3088,5.2999,5.3107,5.3649,5.3923,5.416,5.4532,5.4566,5.4397,5.4025,5.4025,5.4025,5.4025,5.4025,5.4363,5.5108,5.4735,5.4566,5.4566,5.3856,5.3687,5.4025,5.4025,5.4431,5.5108,5.5108,5.5211,5.5383,5.5587,5.5311,5.4823,5.5363,5.5598,5.5667,5.6046,5.6426,5.6771,5.3349,5.3592,5.4194,5.5933,5.6851,5.7472,5.7974,5.8664,5.9099,5.9099,5.9099,5.9099,5.9099,5.9099,5.9099,5.9099,5.9099,5.9099,5.9099,5.859,5.7992,5.7304,5.6675,5.5718,5.4401,5.3593,5.2606,5.1379,5.1259,5.1229,5.1229,5.1229,5.1229,5.1229,5.1229,5.1229,5.1169,5.0465,4.9853,4.9239,4.8566,4.7908,4.7309,4.7309,4.7309,4.7352,4.7352,4.7624,4.8091,4.851,4.8604,4.8604,4.8604,4.8696,4.8789,4.8789,4.9312,4.9897,4.9989,5.0851,5.1744,5.1836,5.2298,5.2421,5.1313,5.0944,5.0882,5.0882,5.0882,5.0882,5.0882,5.0882,5.095,5.1265,5.2036,5.2733,5.3246,5.3522,5.382,5.4246,5.3745,5.3749,5.4701,5.4769,5.504,5.5683,5.5681,5.5446,5.4803,5.4769,5.4769,5.4769,5.4769,5.5141,5.5886,5.5784,5.5784,5.5886,5.4532,5.4194,5.4769,5.4769,5.5209,5.5919,5.5921,5.6026,5.6201,5.586,5.5686,5.5678,5.5912,5.5979,5.6081,5.6736,5.746,5.8081,5.3349,5.3592,5.4014,5.5379,5.6566,5.7303,5.7416,5.836,5.9099,5.9099,5.9099,5.9099,5.9099,5.9099,5.9099,5.9099,5.9099,5.9099,5.9099,5.9009,5.868,5.8022,5.7334,5.6376,5.5089,5.3832,5.2815,5.2067,5.1498,5.1229,5.1229,5.1229,5.1229,5.1229,5.1229,5.1229,5.1169,5.0465,4.9853,4.9239,4.8566,4.7908,4.7309,4.7309,4.7439,4.7538,4.7538,4.788,4.8301,4.8521,4.8604,4.8604,4.8604,4.9035,4.9528,4.9528,5.002,5.0697,5.1282,5.1559,5.1836,5.2421,5.2637,5.2667,5.2483,5.199,5.1559,5.1559,5.1559,5.1559,5.1559,5.1559,5.1506,5.1327,5.2027,5.2845,5.3596,5.4361,5.5018,5.5407,5.5375,5.5376,5.5512,5.5581,5.5615,5.5681,5.5681,5.5683,5.5581,5.5581,5.5581,5.5581,5.5581,5.5919,5.663,5.6021,5.6021,5.663,5.5818,5.548,5.5581,5.5581,5.5953,5.6664,5.6841,5.6983,5.7191,5.7981,5.7637,5.6669,5.7357,5.7598,5.7598,5.7702,5.8219,5.8771,5.2834,5.3349,5.3894,5.4762,5.6251,5.7303,5.7303,5.8305,5.9099,5.9099,5.9099,5.9099,5.9099,5.9099,5.9099,5.9099,5.9099,5.9099,5.9099,5.9099,5.88,5.8141,5.7453,5.6675,5.5748,5.4431,5.3623,5.3324,5.1917,5.1229,5.1229,5.1229,5.1229,5.1229,5.1229,5.1229,5.1169,5.0465,5.0016,4.9733,4.8686,4.8117,4.7818,4.7559,4.7495,4.7624,4.788,4.8133,4.8343,4.8521,4.8881,4.922,4.922,4.9682,5.0266,5.0266,5.0728,5.1313,5.1621,5.199,5.2329,5.2637,5.2698,5.2698,5.2698,5.2675,5.2591,5.2312,5.2267,5.2356,5.2591,5.2635,5.2716,5.2836,5.3789,5.4637,5.496,5.5617,5.5979,5.5715,5.5681,5.5886,5.6292,5.6325,5.6494,5.69,5.6934,5.6765,5.6359,5.6325,5.6325,5.6325,5.6325,5.6664,5.7408,5.7103,5.7103,5.7408,5.707,5.6697,5.6325,5.6431,5.6874,5.7588,5.7766,5.7978,5.8152,5.8118,5.7843,5.7426,5.7322,5.7529,5.7943,5.8357,5.8737,5.8944]}]]